<?xml version="1.0" encoding="UTF-8" standalone="no" ?>
<gpx xmlns="http://www.topografix.com/GPX/1/1" xmlns:xsi="http://www.w3.org/2001/XMLSchema-instance" xsi:schemaLocation="http://www.topografix.com/GPX/1/1 http://www.topografix.com/GPX/1/1/gpx.xsd" version="1.1" creator="VisuGPX - https://www.visugpx.com">
  <metadata>
    <name>64 - PEDESTRE - Tour Ossau et Ayous - Gabas - boucle</name>
    <desc><![CDATA[Soleil, pluie orage]]></desc>
  </metadata>
  <trk>
    <name><![CDATA[ACTIVE LOG 001]]></name>
    <trkseg>
      <trkpt lat="42.86847" lon="-0.448">
        <ele>1422.888672</ele>
        <time>2014-09-04T06:52:39Z</time>
      </trkpt>
      <trkpt lat="42.86847" lon="-0.448">
        <ele>1422.888672</ele>
        <time>2014-09-04T06:52:40Z</time>
      </trkpt>
      <trkpt lat="42.86847" lon="-0.448">
        <ele>1422.888672</ele>
        <time>2014-09-04T06:52:41Z</time>
      </trkpt>
      <trkpt lat="42.86859" lon="-0.44809">
        <ele>1421.927246</ele>
        <time>2014-09-04T06:52:59Z</time>
      </trkpt>
      <trkpt lat="42.86867" lon="-0.44812">
        <ele>1421.927246</ele>
        <time>2014-09-04T06:53:13Z</time>
      </trkpt>
      <trkpt lat="42.86874" lon="-0.44812">
        <ele>1423.369385</ele>
        <time>2014-09-04T06:53:23Z</time>
      </trkpt>
      <trkpt lat="42.86873" lon="-0.44805">
        <ele>1424.811279</ele>
        <time>2014-09-04T06:53:41Z</time>
      </trkpt>
      <trkpt lat="42.86873" lon="-0.44799">
        <ele>1426.253174</ele>
        <time>2014-09-04T06:54:02Z</time>
      </trkpt>
      <trkpt lat="42.86873" lon="-0.44794">
        <ele>1426.733887</ele>
        <time>2014-09-04T06:54:27Z</time>
      </trkpt>
      <trkpt lat="42.8687" lon="-0.44784">
        <ele>1429.136963</ele>
        <time>2014-09-04T06:54:39Z</time>
      </trkpt>
      <trkpt lat="42.8687" lon="-0.4477">
        <ele>1432.020996</ele>
        <time>2014-09-04T06:54:55Z</time>
      </trkpt>
      <trkpt lat="42.86872" lon="-0.44759">
        <ele>1433.462891</ele>
        <time>2014-09-04T06:55:04Z</time>
      </trkpt>
      <trkpt lat="42.86889" lon="-0.44741">
        <ele>1434.905029</ele>
        <time>2014-09-04T06:55:17Z</time>
      </trkpt>
      <trkpt lat="42.86892" lon="-0.44731">
        <ele>1436.347168</ele>
        <time>2014-09-04T06:55:31Z</time>
      </trkpt>
      <trkpt lat="42.86889" lon="-0.44723">
        <ele>1439.230957</ele>
        <time>2014-09-04T06:55:43Z</time>
      </trkpt>
      <trkpt lat="42.86905" lon="-0.44717">
        <ele>1442.11499</ele>
        <time>2014-09-04T06:55:54Z</time>
      </trkpt>
      <trkpt lat="42.86917" lon="-0.44715">
        <ele>1444.518066</ele>
        <time>2014-09-04T06:56:07Z</time>
      </trkpt>
      <trkpt lat="42.86918" lon="-0.44701">
        <ele>1445.479492</ele>
        <time>2014-09-04T06:56:23Z</time>
      </trkpt>
      <trkpt lat="42.86916" lon="-0.44698">
        <ele>1446.921387</ele>
        <time>2014-09-04T06:56:26Z</time>
      </trkpt>
      <trkpt lat="42.86915" lon="-0.44688">
        <ele>1450.766602</ele>
        <time>2014-09-04T06:56:38Z</time>
      </trkpt>
      <trkpt lat="42.86915" lon="-0.44685">
        <ele>1450.766602</ele>
        <time>2014-09-04T06:56:40Z</time>
      </trkpt>
      <trkpt lat="42.86915" lon="-0.44674">
        <ele>1452.20874</ele>
        <time>2014-09-04T06:56:53Z</time>
      </trkpt>
      <trkpt lat="42.86916" lon="-0.44668">
        <ele>1454.131592</ele>
        <time>2014-09-04T06:57:03Z</time>
      </trkpt>
      <trkpt lat="42.86919" lon="-0.44658">
        <ele>1457.496094</ele>
        <time>2014-09-04T06:57:19Z</time>
      </trkpt>
      <trkpt lat="42.86937" lon="-0.4465">
        <ele>1460.379883</ele>
        <time>2014-09-04T06:57:43Z</time>
      </trkpt>
      <trkpt lat="42.86935" lon="-0.44641">
        <ele>1463.744385</ele>
        <time>2014-09-04T06:58:01Z</time>
      </trkpt>
      <trkpt lat="42.86935" lon="-0.44632">
        <ele>1465.186523</ele>
        <time>2014-09-04T06:58:11Z</time>
      </trkpt>
      <trkpt lat="42.86929" lon="-0.44622">
        <ele>1466.628418</ele>
        <time>2014-09-04T06:58:25Z</time>
      </trkpt>
      <trkpt lat="42.86925" lon="-0.44612">
        <ele>1469.031982</ele>
        <time>2014-09-04T06:58:36Z</time>
      </trkpt>
      <trkpt lat="42.86927" lon="-0.44598">
        <ele>1472.396484</ele>
        <time>2014-09-04T06:58:50Z</time>
      </trkpt>
      <trkpt lat="42.86926" lon="-0.44584">
        <ele>1475.280273</ele>
        <time>2014-09-04T06:59:06Z</time>
      </trkpt>
      <trkpt lat="42.86945" lon="-0.44563">
        <ele>1478.164307</ele>
        <time>2014-09-04T06:59:24Z</time>
      </trkpt>
      <trkpt lat="42.86955" lon="-0.4455">
        <ele>1477.203125</ele>
        <time>2014-09-04T06:59:36Z</time>
      </trkpt>
      <trkpt lat="42.86959" lon="-0.44535">
        <ele>1476.722412</ele>
        <time>2014-09-04T06:59:46Z</time>
      </trkpt>
      <trkpt lat="42.8696" lon="-0.44522">
        <ele>1479.606201</ele>
        <time>2014-09-04T07:00:02Z</time>
      </trkpt>
      <trkpt lat="42.86976" lon="-0.4451">
        <ele>1482.970703</ele>
        <time>2014-09-04T07:00:20Z</time>
      </trkpt>
      <trkpt lat="42.86983" lon="-0.44491">
        <ele>1486.335693</ele>
        <time>2014-09-04T07:00:39Z</time>
      </trkpt>
      <trkpt lat="42.86981" lon="-0.44486">
        <ele>1486.816162</ele>
        <time>2014-09-04T07:00:44Z</time>
      </trkpt>
      <trkpt lat="42.86984" lon="-0.44467">
        <ele>1488.258301</ele>
        <time>2014-09-04T07:01:01Z</time>
      </trkpt>
      <trkpt lat="42.86979" lon="-0.4445">
        <ele>1488.258301</ele>
        <time>2014-09-04T07:01:16Z</time>
      </trkpt>
      <trkpt lat="42.86978" lon="-0.44436">
        <ele>1488.258301</ele>
        <time>2014-09-04T07:01:25Z</time>
      </trkpt>
      <trkpt lat="42.86982" lon="-0.4442">
        <ele>1491.14209</ele>
        <time>2014-09-04T07:01:37Z</time>
      </trkpt>
      <trkpt lat="42.86987" lon="-0.44413">
        <ele>1492.584229</ele>
        <time>2014-09-04T07:01:44Z</time>
      </trkpt>
      <trkpt lat="42.87001" lon="-0.44401">
        <ele>1494.987305</ele>
        <time>2014-09-04T07:01:56Z</time>
      </trkpt>
      <trkpt lat="42.87006" lon="-0.44392">
        <ele>1497.390625</ele>
        <time>2014-09-04T07:02:08Z</time>
      </trkpt>
      <trkpt lat="42.8701" lon="-0.44375">
        <ele>1496.909912</ele>
        <time>2014-09-04T07:02:23Z</time>
      </trkpt>
      <trkpt lat="42.87011" lon="-0.44373">
        <ele>1498.351807</ele>
        <time>2014-09-04T07:02:26Z</time>
      </trkpt>
      <trkpt lat="42.87016" lon="-0.44369">
        <ele>1499.793945</ele>
        <time>2014-09-04T07:02:32Z</time>
      </trkpt>
      <trkpt lat="42.87023" lon="-0.44363">
        <ele>1501.716797</ele>
        <time>2014-09-04T07:02:42Z</time>
      </trkpt>
      <trkpt lat="42.87009" lon="-0.44359">
        <ele>1504.120117</ele>
        <time>2014-09-04T07:03:03Z</time>
      </trkpt>
      <trkpt lat="42.87011" lon="-0.44348">
        <ele>1507.484619</ele>
        <time>2014-09-04T07:03:20Z</time>
      </trkpt>
      <trkpt lat="42.87021" lon="-0.44346">
        <ele>1510.849121</ele>
        <time>2014-09-04T07:03:35Z</time>
      </trkpt>
      <trkpt lat="42.87032" lon="-0.44347">
        <ele>1514.213623</ele>
        <time>2014-09-04T07:03:49Z</time>
      </trkpt>
      <trkpt lat="42.87037" lon="-0.44346">
        <ele>1515.655762</ele>
        <time>2014-09-04T07:03:56Z</time>
      </trkpt>
      <trkpt lat="42.87048" lon="-0.44338">
        <ele>1519.020508</ele>
        <time>2014-09-04T07:04:09Z</time>
      </trkpt>
      <trkpt lat="42.87051" lon="-0.44333">
        <ele>1519.981689</ele>
        <time>2014-09-04T07:04:14Z</time>
      </trkpt>
      <trkpt lat="42.87052" lon="-0.44318">
        <ele>1522.38501</ele>
        <time>2014-09-04T07:04:28Z</time>
      </trkpt>
      <trkpt lat="42.87054" lon="-0.44303">
        <ele>1524.307617</ele>
        <time>2014-09-04T07:04:41Z</time>
      </trkpt>
      <trkpt lat="42.87059" lon="-0.44286">
        <ele>1527.672119</ele>
        <time>2014-09-04T07:04:57Z</time>
      </trkpt>
      <trkpt lat="42.87068" lon="-0.44267">
        <ele>1530.556152</ele>
        <time>2014-09-04T07:05:11Z</time>
      </trkpt>
      <trkpt lat="42.87072" lon="-0.44257">
        <ele>1531.517334</ele>
        <time>2014-09-04T07:05:21Z</time>
      </trkpt>
      <trkpt lat="42.87079" lon="-0.44243">
        <ele>1534.401611</ele>
        <time>2014-09-04T07:05:38Z</time>
      </trkpt>
      <trkpt lat="42.87073" lon="-0.44237">
        <ele>1534.882324</ele>
        <time>2014-09-04T07:05:49Z</time>
      </trkpt>
      <trkpt lat="42.87057" lon="-0.44235">
        <ele>1534.882324</ele>
        <time>2014-09-04T07:06:02Z</time>
      </trkpt>
      <trkpt lat="42.87053" lon="-0.44232">
        <ele>1534.882324</ele>
        <time>2014-09-04T07:06:06Z</time>
      </trkpt>
      <trkpt lat="42.87046" lon="-0.44212">
        <ele>1536.324219</ele>
        <time>2014-09-04T07:06:18Z</time>
      </trkpt>
      <trkpt lat="42.87046" lon="-0.44202">
        <ele>1536.324219</ele>
        <time>2014-09-04T07:06:25Z</time>
      </trkpt>
      <trkpt lat="42.87048" lon="-0.44186">
        <ele>1537.766113</ele>
        <time>2014-09-04T07:06:35Z</time>
      </trkpt>
      <trkpt lat="42.87044" lon="-0.44168">
        <ele>1539.688721</ele>
        <time>2014-09-04T07:06:49Z</time>
      </trkpt>
      <trkpt lat="42.87037" lon="-0.44159">
        <ele>1542.092041</ele>
        <time>2014-09-04T07:06:58Z</time>
      </trkpt>
      <trkpt lat="42.87025" lon="-0.44146">
        <ele>1545.456543</ele>
        <time>2014-09-04T07:07:15Z</time>
      </trkpt>
      <trkpt lat="42.87017" lon="-0.44138">
        <ele>1547.37915</ele>
        <time>2014-09-04T07:07:30Z</time>
      </trkpt>
      <trkpt lat="42.87023" lon="-0.44119">
        <ele>1550.263428</ele>
        <time>2014-09-04T07:07:50Z</time>
      </trkpt>
      <trkpt lat="42.87019" lon="-0.44111">
        <ele>1552.666504</ele>
        <time>2014-09-04T07:08:00Z</time>
      </trkpt>
      <trkpt lat="42.87032" lon="-0.4409">
        <ele>1555.550537</ele>
        <time>2014-09-04T07:08:19Z</time>
      </trkpt>
      <trkpt lat="42.87033" lon="-0.44089">
        <ele>1555.550537</ele>
        <time>2014-09-04T07:08:20Z</time>
      </trkpt>
      <trkpt lat="42.87043" lon="-0.44079">
        <ele>1559.395752</ele>
        <time>2014-09-04T07:08:32Z</time>
      </trkpt>
      <trkpt lat="42.87051" lon="-0.44081">
        <ele>1562.760254</ele>
        <time>2014-09-04T07:08:51Z</time>
      </trkpt>
      <trkpt lat="42.8705" lon="-0.44081">
        <ele>1562.760254</ele>
        <time>2014-09-04T07:08:52Z</time>
      </trkpt>
      <trkpt lat="42.87032" lon="-0.44075">
        <ele>1564.202393</ele>
        <time>2014-09-04T07:09:05Z</time>
      </trkpt>
      <trkpt lat="42.87016" lon="-0.44074">
        <ele>1566.605713</ele>
        <time>2014-09-04T07:09:20Z</time>
      </trkpt>
      <trkpt lat="42.87008" lon="-0.44061">
        <ele>1570.450928</ele>
        <time>2014-09-04T07:09:35Z</time>
      </trkpt>
      <trkpt lat="42.86998" lon="-0.4405">
        <ele>1572.854248</ele>
        <time>2014-09-04T07:09:49Z</time>
      </trkpt>
      <trkpt lat="42.86983" lon="-0.44054">
        <ele>1576.21875</ele>
        <time>2014-09-04T07:10:11Z</time>
      </trkpt>
      <trkpt lat="42.86977" lon="-0.44052">
        <ele>1578.141357</ele>
        <time>2014-09-04T07:10:20Z</time>
      </trkpt>
      <trkpt lat="42.86968" lon="-0.44047">
        <ele>1580.544922</ele>
        <time>2014-09-04T07:10:31Z</time>
      </trkpt>
      <trkpt lat="42.86978" lon="-0.44025">
        <ele>1583.909424</ele>
        <time>2014-09-04T07:10:54Z</time>
      </trkpt>
      <trkpt lat="42.86982" lon="-0.44022">
        <ele>1584.87085</ele>
        <time>2014-09-04T07:10:59Z</time>
      </trkpt>
      <trkpt lat="42.86988" lon="-0.44015">
        <ele>1587.754639</ele>
        <time>2014-09-04T07:11:07Z</time>
      </trkpt>
      <trkpt lat="42.86999" lon="-0.44007">
        <ele>1589.196533</ele>
        <time>2014-09-04T07:11:18Z</time>
      </trkpt>
      <trkpt lat="42.87005" lon="-0.44007">
        <ele>1590.638428</ele>
        <time>2014-09-04T07:11:27Z</time>
      </trkpt>
      <trkpt lat="42.8701" lon="-0.44001">
        <ele>1594.003174</ele>
        <time>2014-09-04T07:11:40Z</time>
      </trkpt>
      <trkpt lat="42.86993" lon="-0.44012">
        <ele>1597.36792</ele>
        <time>2014-09-04T07:11:59Z</time>
      </trkpt>
      <trkpt lat="42.86974" lon="-0.44004">
        <ele>1600.732422</ele>
        <time>2014-09-04T07:12:17Z</time>
      </trkpt>
      <trkpt lat="42.86959" lon="-0.44001">
        <ele>1602.655029</ele>
        <time>2014-09-04T07:12:31Z</time>
      </trkpt>
      <trkpt lat="42.86954" lon="-0.4399">
        <ele>1606.019531</ele>
        <time>2014-09-04T07:12:45Z</time>
      </trkpt>
      <trkpt lat="42.86944" lon="-0.43983">
        <ele>1609.384277</ele>
        <time>2014-09-04T07:13:02Z</time>
      </trkpt>
      <trkpt lat="42.8695" lon="-0.43972">
        <ele>1612.749023</ele>
        <time>2014-09-04T07:13:21Z</time>
      </trkpt>
      <trkpt lat="42.86969" lon="-0.43963">
        <ele>1615.633057</ele>
        <time>2014-09-04T07:13:46Z</time>
      </trkpt>
      <trkpt lat="42.86974" lon="-0.43962">
        <ele>1615.633057</ele>
        <time>2014-09-04T07:13:50Z</time>
      </trkpt>
      <trkpt lat="42.86978" lon="-0.4396">
        <ele>1616.594238</ele>
        <time>2014-09-04T07:13:57Z</time>
      </trkpt>
      <trkpt lat="42.86987" lon="-0.43958">
        <ele>1619.95874</ele>
        <time>2014-09-04T07:14:06Z</time>
      </trkpt>
      <trkpt lat="42.86996" lon="-0.43948">
        <ele>1622.842773</ele>
        <time>2014-09-04T07:14:18Z</time>
      </trkpt>
      <trkpt lat="42.86984" lon="-0.43946">
        <ele>1626.207275</ele>
        <time>2014-09-04T07:14:37Z</time>
      </trkpt>
      <trkpt lat="42.86976" lon="-0.43939">
        <ele>1628.61084</ele>
        <time>2014-09-04T07:14:49Z</time>
      </trkpt>
      <trkpt lat="42.86967" lon="-0.43923">
        <ele>1630.533447</ele>
        <time>2014-09-04T07:15:08Z</time>
      </trkpt>
      <trkpt lat="42.86979" lon="-0.43932">
        <ele>1631.975342</ele>
        <time>2014-09-04T07:15:18Z</time>
      </trkpt>
      <trkpt lat="42.86983" lon="-0.4393">
        <ele>1633.897949</ele>
        <time>2014-09-04T07:15:24Z</time>
      </trkpt>
      <trkpt lat="42.86993" lon="-0.43925">
        <ele>1637.262451</ele>
        <time>2014-09-04T07:15:37Z</time>
      </trkpt>
      <trkpt lat="42.87002" lon="-0.43923">
        <ele>1638.70459</ele>
        <time>2014-09-04T07:15:47Z</time>
      </trkpt>
      <trkpt lat="42.87007" lon="-0.43917">
        <ele>1640.146484</ele>
        <time>2014-09-04T07:15:58Z</time>
      </trkpt>
      <trkpt lat="42.87011" lon="-0.43911">
        <ele>1643.510986</ele>
        <time>2014-09-04T07:16:09Z</time>
      </trkpt>
      <trkpt lat="42.87022" lon="-0.43905">
        <ele>1645.433838</ele>
        <time>2014-09-04T07:16:26Z</time>
      </trkpt>
      <trkpt lat="42.8703" lon="-0.4389">
        <ele>1648.79834</ele>
        <time>2014-09-04T07:16:41Z</time>
      </trkpt>
      <trkpt lat="42.87035" lon="-0.43884">
        <ele>1650.720947</ele>
        <time>2014-09-04T07:16:50Z</time>
      </trkpt>
      <trkpt lat="42.87039" lon="-0.43867">
        <ele>1652.643555</ele>
        <time>2014-09-04T07:17:07Z</time>
      </trkpt>
      <trkpt lat="42.87043" lon="-0.43866">
        <ele>1653.60498</ele>
        <time>2014-09-04T07:17:21Z</time>
      </trkpt>
      <trkpt lat="42.87042" lon="-0.43861">
        <ele>1654.566162</ele>
        <time>2014-09-04T07:17:28Z</time>
      </trkpt>
      <trkpt lat="42.87039" lon="-0.4385">
        <ele>1656.48877</ele>
        <time>2014-09-04T07:17:40Z</time>
      </trkpt>
      <trkpt lat="42.8704" lon="-0.43849">
        <ele>1655.046875</ele>
        <time>2014-09-04T07:18:01Z</time>
      </trkpt>
      <trkpt lat="42.87039" lon="-0.43852">
        <ele>1656.008057</ele>
        <time>2014-09-04T07:18:44Z</time>
      </trkpt>
      <trkpt lat="42.87041" lon="-0.4385">
        <ele>1655.527588</ele>
        <time>2014-09-04T07:19:03Z</time>
      </trkpt>
      <trkpt lat="42.8704" lon="-0.43849">
        <ele>1654.566162</ele>
        <time>2014-09-04T07:19:05Z</time>
      </trkpt>
      <trkpt lat="42.87033" lon="-0.43831">
        <ele>1656.008057</ele>
        <time>2014-09-04T07:19:20Z</time>
      </trkpt>
      <trkpt lat="42.87032" lon="-0.4381">
        <ele>1656.969482</ele>
        <time>2014-09-04T07:19:37Z</time>
      </trkpt>
      <trkpt lat="42.87029" lon="-0.43789">
        <ele>1657.450195</ele>
        <time>2014-09-04T07:19:54Z</time>
      </trkpt>
      <trkpt lat="42.87019" lon="-0.43769">
        <ele>1656.48877</ele>
        <time>2014-09-04T07:20:11Z</time>
      </trkpt>
      <trkpt lat="42.87007" lon="-0.43748">
        <ele>1654.566162</ele>
        <time>2014-09-04T07:20:31Z</time>
      </trkpt>
      <trkpt lat="42.87" lon="-0.43744">
        <ele>1653.60498</ele>
        <time>2014-09-04T07:20:45Z</time>
      </trkpt>
      <trkpt lat="42.86999" lon="-0.43744">
        <ele>1653.60498</ele>
        <time>2014-09-04T07:20:47Z</time>
      </trkpt>
      <trkpt lat="42.86993" lon="-0.43728">
        <ele>1653.124268</ele>
        <time>2014-09-04T07:20:59Z</time>
      </trkpt>
      <trkpt lat="42.86992" lon="-0.43709">
        <ele>1652.643555</ele>
        <time>2014-09-04T07:21:09Z</time>
      </trkpt>
      <trkpt lat="42.86995" lon="-0.43705">
        <ele>1652.643555</ele>
        <time>2014-09-04T07:21:12Z</time>
      </trkpt>
      <trkpt lat="42.87001" lon="-0.43697">
        <ele>1653.124268</ele>
        <time>2014-09-04T07:21:20Z</time>
      </trkpt>
      <trkpt lat="42.87007" lon="-0.43685">
        <ele>1653.60498</ele>
        <time>2014-09-04T07:21:33Z</time>
      </trkpt>
      <trkpt lat="42.87012" lon="-0.43676">
        <ele>1654.085693</ele>
        <time>2014-09-04T07:21:42Z</time>
      </trkpt>
      <trkpt lat="42.87023" lon="-0.43667">
        <ele>1654.085693</ele>
        <time>2014-09-04T07:21:53Z</time>
      </trkpt>
      <trkpt lat="42.87024" lon="-0.43644">
        <ele>1654.085693</ele>
        <time>2014-09-04T07:22:09Z</time>
      </trkpt>
      <trkpt lat="42.87022" lon="-0.43636">
        <ele>1654.085693</ele>
        <time>2014-09-04T07:22:14Z</time>
      </trkpt>
      <trkpt lat="42.8702" lon="-0.43611">
        <ele>1654.566162</ele>
        <time>2014-09-04T07:22:31Z</time>
      </trkpt>
      <trkpt lat="42.87021" lon="-0.43591">
        <ele>1655.046875</ele>
        <time>2014-09-04T07:22:45Z</time>
      </trkpt>
      <trkpt lat="42.8702" lon="-0.43573">
        <ele>1656.48877</ele>
        <time>2014-09-04T07:22:58Z</time>
      </trkpt>
      <trkpt lat="42.87021" lon="-0.4357">
        <ele>1656.008057</ele>
        <time>2014-09-04T07:23:01Z</time>
      </trkpt>
      <trkpt lat="42.8703" lon="-0.43551">
        <ele>1658.411377</ele>
        <time>2014-09-04T07:23:16Z</time>
      </trkpt>
      <trkpt lat="42.87031" lon="-0.43549">
        <ele>1659.372803</ele>
        <time>2014-09-04T07:23:18Z</time>
      </trkpt>
      <trkpt lat="42.87038" lon="-0.43537">
        <ele>1660.334229</ele>
        <time>2014-09-04T07:23:31Z</time>
      </trkpt>
      <trkpt lat="42.87035" lon="-0.43512">
        <ele>1662.737549</ele>
        <time>2014-09-04T07:23:48Z</time>
      </trkpt>
      <trkpt lat="42.87032" lon="-0.43495">
        <ele>1663.69873</ele>
        <time>2014-09-04T07:24:02Z</time>
      </trkpt>
      <trkpt lat="42.87029" lon="-0.43491">
        <ele>1664.660156</ele>
        <time>2014-09-04T07:24:06Z</time>
      </trkpt>
      <trkpt lat="42.87021" lon="-0.43481">
        <ele>1664.660156</ele>
        <time>2014-09-04T07:24:16Z</time>
      </trkpt>
      <trkpt lat="42.87014" lon="-0.43468">
        <ele>1665.140869</ele>
        <time>2014-09-04T07:24:25Z</time>
      </trkpt>
      <trkpt lat="42.87013" lon="-0.43466">
        <ele>1665.140869</ele>
        <time>2014-09-04T07:24:27Z</time>
      </trkpt>
      <trkpt lat="42.86998" lon="-0.43447">
        <ele>1664.179443</ele>
        <time>2014-09-04T07:24:46Z</time>
      </trkpt>
      <trkpt lat="42.86992" lon="-0.43435">
        <ele>1664.660156</ele>
        <time>2014-09-04T07:24:57Z</time>
      </trkpt>
      <trkpt lat="42.8699" lon="-0.43431">
        <ele>1664.660156</ele>
        <time>2014-09-04T07:25:01Z</time>
      </trkpt>
      <trkpt lat="42.86977" lon="-0.43412">
        <ele>1664.660156</ele>
        <time>2014-09-04T07:25:17Z</time>
      </trkpt>
      <trkpt lat="42.86965" lon="-0.43391">
        <ele>1664.660156</ele>
        <time>2014-09-04T07:25:33Z</time>
      </trkpt>
      <trkpt lat="42.86959" lon="-0.43387">
        <ele>1665.621582</ele>
        <time>2014-09-04T07:25:40Z</time>
      </trkpt>
      <trkpt lat="42.86945" lon="-0.4338">
        <ele>1667.543945</ele>
        <time>2014-09-04T07:25:56Z</time>
      </trkpt>
      <trkpt lat="42.86944" lon="-0.43379">
        <ele>1667.543945</ele>
        <time>2014-09-04T07:25:57Z</time>
      </trkpt>
      <trkpt lat="42.86928" lon="-0.43381">
        <ele>1668.024658</ele>
        <time>2014-09-04T07:26:14Z</time>
      </trkpt>
      <trkpt lat="42.86926" lon="-0.43382">
        <ele>1667.543945</ele>
        <time>2014-09-04T07:26:16Z</time>
      </trkpt>
      <trkpt lat="42.86909" lon="-0.43385">
        <ele>1668.024658</ele>
        <time>2014-09-04T07:26:31Z</time>
      </trkpt>
      <trkpt lat="42.86908" lon="-0.43385">
        <ele>1668.024658</ele>
        <time>2014-09-04T07:26:32Z</time>
      </trkpt>
      <trkpt lat="42.86897" lon="-0.43379">
        <ele>1668.024658</ele>
        <time>2014-09-04T07:26:43Z</time>
      </trkpt>
      <trkpt lat="42.86883" lon="-0.43369">
        <ele>1668.986084</ele>
        <time>2014-09-04T07:26:57Z</time>
      </trkpt>
      <trkpt lat="42.8688" lon="-0.43365">
        <ele>1668.986084</ele>
        <time>2014-09-04T07:27:01Z</time>
      </trkpt>
      <trkpt lat="42.86877" lon="-0.43363">
        <ele>1669.466797</ele>
        <time>2014-09-04T07:27:05Z</time>
      </trkpt>
      <trkpt lat="42.86863" lon="-0.43355">
        <ele>1669.947266</ele>
        <time>2014-09-04T07:27:20Z</time>
      </trkpt>
      <trkpt lat="42.86856" lon="-0.43341">
        <ele>1668.986084</ele>
        <time>2014-09-04T07:27:30Z</time>
      </trkpt>
      <trkpt lat="42.8685" lon="-0.43332">
        <ele>1670.427979</ele>
        <time>2014-09-04T07:27:36Z</time>
      </trkpt>
      <trkpt lat="42.86832" lon="-0.43308">
        <ele>1670.908691</ele>
        <time>2014-09-04T07:27:56Z</time>
      </trkpt>
      <trkpt lat="42.86817" lon="-0.43293">
        <ele>1672.350586</ele>
        <time>2014-09-04T07:28:13Z</time>
      </trkpt>
      <trkpt lat="42.86801" lon="-0.43278">
        <ele>1673.312012</ele>
        <time>2014-09-04T07:28:31Z</time>
      </trkpt>
      <trkpt lat="42.86786" lon="-0.43267">
        <ele>1674.753906</ele>
        <time>2014-09-04T07:28:46Z</time>
      </trkpt>
      <trkpt lat="42.8677" lon="-0.43256">
        <ele>1676.676758</ele>
        <time>2014-09-04T07:29:03Z</time>
      </trkpt>
      <trkpt lat="42.8676" lon="-0.43239">
        <ele>1677.637939</ele>
        <time>2014-09-04T07:29:19Z</time>
      </trkpt>
      <trkpt lat="42.86755" lon="-0.43219">
        <ele>1680.04126</ele>
        <time>2014-09-04T07:29:33Z</time>
      </trkpt>
      <trkpt lat="42.86752" lon="-0.4321">
        <ele>1681.002686</ele>
        <time>2014-09-04T07:29:40Z</time>
      </trkpt>
      <trkpt lat="42.86743" lon="-0.43189">
        <ele>1683.886475</ele>
        <time>2014-09-04T07:29:57Z</time>
      </trkpt>
      <trkpt lat="42.86733" lon="-0.43172">
        <ele>1685.328369</ele>
        <time>2014-09-04T07:30:12Z</time>
      </trkpt>
      <trkpt lat="42.86723" lon="-0.43148">
        <ele>1688.693115</ele>
        <time>2014-09-04T07:30:32Z</time>
      </trkpt>
      <trkpt lat="42.86719" lon="-0.4313">
        <ele>1690.615479</ele>
        <time>2014-09-04T07:30:49Z</time>
      </trkpt>
      <trkpt lat="42.86711" lon="-0.43114">
        <ele>1691.096191</ele>
        <time>2014-09-04T07:31:05Z</time>
      </trkpt>
      <trkpt lat="42.86707" lon="-0.43101">
        <ele>1693.019043</ele>
        <time>2014-09-04T07:31:17Z</time>
      </trkpt>
      <trkpt lat="42.86702" lon="-0.43091">
        <ele>1694.94165</ele>
        <time>2014-09-04T07:31:27Z</time>
      </trkpt>
      <trkpt lat="42.86694" lon="-0.43081">
        <ele>1697.825684</ele>
        <time>2014-09-04T07:31:40Z</time>
      </trkpt>
      <trkpt lat="42.86687" lon="-0.43075">
        <ele>1701.190186</ele>
        <time>2014-09-04T07:31:50Z</time>
      </trkpt>
      <trkpt lat="42.86676" lon="-0.43067">
        <ele>1703.593506</ele>
        <time>2014-09-04T07:32:06Z</time>
      </trkpt>
      <trkpt lat="42.86669" lon="-0.43061">
        <ele>1705.0354</ele>
        <time>2014-09-04T07:32:17Z</time>
      </trkpt>
      <trkpt lat="42.86669" lon="-0.4306">
        <ele>1705.0354</ele>
        <time>2014-09-04T07:32:18Z</time>
      </trkpt>
      <trkpt lat="42.86658" lon="-0.43048">
        <ele>1706.958008</ele>
        <time>2014-09-04T07:32:34Z</time>
      </trkpt>
      <trkpt lat="42.86645" lon="-0.43037">
        <ele>1708.400146</ele>
        <time>2014-09-04T07:32:48Z</time>
      </trkpt>
      <trkpt lat="42.86637" lon="-0.43029">
        <ele>1710.322754</ele>
        <time>2014-09-04T07:33:00Z</time>
      </trkpt>
      <trkpt lat="42.86635" lon="-0.43028">
        <ele>1711.28418</ele>
        <time>2014-09-04T07:33:02Z</time>
      </trkpt>
      <trkpt lat="42.86626" lon="-0.43017">
        <ele>1713.206787</ele>
        <time>2014-09-04T07:33:16Z</time>
      </trkpt>
      <trkpt lat="42.86618" lon="-0.43014">
        <ele>1715.610107</ele>
        <time>2014-09-04T07:33:23Z</time>
      </trkpt>
      <trkpt lat="42.86605" lon="-0.43008">
        <ele>1718.013184</ele>
        <time>2014-09-04T07:33:38Z</time>
      </trkpt>
      <trkpt lat="42.86599" lon="-0.43004">
        <ele>1718.493896</ele>
        <time>2014-09-04T07:33:45Z</time>
      </trkpt>
      <trkpt lat="42.8659" lon="-0.42997">
        <ele>1721.858398</ele>
        <time>2014-09-04T07:33:56Z</time>
      </trkpt>
      <trkpt lat="42.86577" lon="-0.42991">
        <ele>1723.781006</ele>
        <time>2014-09-04T07:34:13Z</time>
      </trkpt>
      <trkpt lat="42.86573" lon="-0.42989">
        <ele>1725.223145</ele>
        <time>2014-09-04T07:34:18Z</time>
      </trkpt>
      <trkpt lat="42.86561" lon="-0.42981">
        <ele>1727.145996</ele>
        <time>2014-09-04T07:34:33Z</time>
      </trkpt>
      <trkpt lat="42.86551" lon="-0.42978">
        <ele>1729.549072</ele>
        <time>2014-09-04T07:34:45Z</time>
      </trkpt>
      <trkpt lat="42.86538" lon="-0.42974">
        <ele>1731.47168</ele>
        <time>2014-09-04T07:34:58Z</time>
      </trkpt>
      <trkpt lat="42.86527" lon="-0.42969">
        <ele>1733.875</ele>
        <time>2014-09-04T07:35:12Z</time>
      </trkpt>
    </trkseg>
  </trk>
  <trk>
    <name><![CDATA[ACTIVE LOG 002]]></name>
    <trkseg>
      <trkpt lat="42.8653" lon="-0.42971">
        <ele>1762.233887</ele>
        <time>2014-09-04T07:39:58Z</time>
      </trkpt>
      <trkpt lat="42.8653" lon="-0.42971">
        <ele>1760.311279</ele>
        <time>2014-09-04T07:39:59Z</time>
      </trkpt>
    </trkseg>
  </trk>
  <trk>
    <name><![CDATA[ACTIVE LOG 003]]></name>
    <trkseg>
      <trkpt lat="42.86271" lon="-0.42974">
        <ele>1759.830566</ele>
        <time>2014-09-04T07:40:06Z</time>
      </trkpt>
      <trkpt lat="42.86279" lon="-0.42965">
        <ele>1759.830566</ele>
        <time>2014-09-04T07:40:11Z</time>
      </trkpt>
      <trkpt lat="42.86277" lon="-0.42966">
        <ele>1763.195313</ele>
        <time>2014-09-04T07:40:16Z</time>
      </trkpt>
      <trkpt lat="42.86274" lon="-0.42967">
        <ele>1765.598633</ele>
        <time>2014-09-04T07:40:20Z</time>
      </trkpt>
      <trkpt lat="42.86271" lon="-0.42965">
        <ele>1768.001709</ele>
        <time>2014-09-04T07:40:25Z</time>
      </trkpt>
      <trkpt lat="42.86267" lon="-0.42962">
        <ele>1771.846924</ele>
        <time>2014-09-04T07:40:32Z</time>
      </trkpt>
      <trkpt lat="42.86266" lon="-0.42962">
        <ele>1771.846924</ele>
        <time>2014-09-04T07:40:33Z</time>
      </trkpt>
      <trkpt lat="42.86256" lon="-0.42963">
        <ele>1775.21167</ele>
        <time>2014-09-04T07:40:46Z</time>
      </trkpt>
      <trkpt lat="42.86246" lon="-0.4296">
        <ele>1778.576416</ele>
        <time>2014-09-04T07:41:00Z</time>
      </trkpt>
      <trkpt lat="42.86233" lon="-0.42958">
        <ele>1780.499023</ele>
        <time>2014-09-04T07:41:17Z</time>
      </trkpt>
      <trkpt lat="42.86219" lon="-0.42953">
        <ele>1783.382813</ele>
        <time>2014-09-04T07:41:35Z</time>
      </trkpt>
      <trkpt lat="42.8621" lon="-0.4295">
        <ele>1786.266846</ele>
        <time>2014-09-04T07:41:47Z</time>
      </trkpt>
      <trkpt lat="42.86201" lon="-0.42945">
        <ele>1789.631592</ele>
        <time>2014-09-04T07:42:02Z</time>
      </trkpt>
      <trkpt lat="42.86191" lon="-0.4294">
        <ele>1792.034912</ele>
        <time>2014-09-04T07:42:18Z</time>
      </trkpt>
      <trkpt lat="42.86178" lon="-0.42931">
        <ele>1793.476807</ele>
        <time>2014-09-04T07:42:35Z</time>
      </trkpt>
      <trkpt lat="42.86168" lon="-0.42924">
        <ele>1795.880127</ele>
        <time>2014-09-04T07:42:49Z</time>
      </trkpt>
      <trkpt lat="42.86158" lon="-0.42915">
        <ele>1799.244629</ele>
        <time>2014-09-04T07:43:06Z</time>
      </trkpt>
      <trkpt lat="42.8615" lon="-0.42913">
        <ele>1802.128418</ele>
        <time>2014-09-04T07:43:19Z</time>
      </trkpt>
      <trkpt lat="42.86138" lon="-0.42903">
        <ele>1805.012695</ele>
        <time>2014-09-04T07:43:37Z</time>
      </trkpt>
      <trkpt lat="42.86132" lon="-0.42899">
        <ele>1808.377197</ele>
        <time>2014-09-04T07:43:49Z</time>
      </trkpt>
      <trkpt lat="42.86125" lon="-0.42896">
        <ele>1811.741943</ele>
        <time>2014-09-04T07:44:01Z</time>
      </trkpt>
      <trkpt lat="42.86126" lon="-0.42905">
        <ele>1813.664307</ele>
        <time>2014-09-04T07:44:17Z</time>
      </trkpt>
      <trkpt lat="42.86121" lon="-0.42906">
        <ele>1816.067627</ele>
        <time>2014-09-04T07:44:31Z</time>
      </trkpt>
      <trkpt lat="42.86112" lon="-0.429">
        <ele>1819.432373</ele>
        <time>2014-09-04T07:44:46Z</time>
      </trkpt>
      <trkpt lat="42.86109" lon="-0.42899">
        <ele>1820.874512</ele>
        <time>2014-09-04T07:44:50Z</time>
      </trkpt>
      <trkpt lat="42.861" lon="-0.42888">
        <ele>1823.758301</ele>
        <time>2014-09-04T07:45:07Z</time>
      </trkpt>
      <trkpt lat="42.86093" lon="-0.42876">
        <ele>1825.680908</ele>
        <time>2014-09-04T07:45:23Z</time>
      </trkpt>
      <trkpt lat="42.86088" lon="-0.42865">
        <ele>1828.564941</ele>
        <time>2014-09-04T07:45:39Z</time>
      </trkpt>
      <trkpt lat="42.86081" lon="-0.42857">
        <ele>1828.564941</ele>
        <time>2014-09-04T07:45:50Z</time>
      </trkpt>
      <trkpt lat="42.86073" lon="-0.42857">
        <ele>1829.04541</ele>
        <time>2014-09-04T07:45:58Z</time>
      </trkpt>
      <trkpt lat="42.86058" lon="-0.42855">
        <ele>1830.487549</ele>
        <time>2014-09-04T07:46:16Z</time>
      </trkpt>
      <trkpt lat="42.86054" lon="-0.42854">
        <ele>1831.44873</ele>
        <time>2014-09-04T07:46:21Z</time>
      </trkpt>
      <trkpt lat="42.8604" lon="-0.42838">
        <ele>1831.44873</ele>
        <time>2014-09-04T07:46:38Z</time>
      </trkpt>
      <trkpt lat="42.86027" lon="-0.42823">
        <ele>1832.410156</ele>
        <time>2014-09-04T07:46:57Z</time>
      </trkpt>
      <trkpt lat="42.86019" lon="-0.42819">
        <ele>1833.371338</ele>
        <time>2014-09-04T07:47:13Z</time>
      </trkpt>
      <trkpt lat="42.86016" lon="-0.42815">
        <ele>1834.332764</ele>
        <time>2014-09-04T07:47:27Z</time>
      </trkpt>
      <trkpt lat="42.86012" lon="-0.42816">
        <ele>1836.736084</ele>
        <time>2014-09-04T07:47:36Z</time>
      </trkpt>
      <trkpt lat="42.86007" lon="-0.42805">
        <ele>1838.178223</ele>
        <time>2014-09-04T07:47:51Z</time>
      </trkpt>
      <trkpt lat="42.86007" lon="-0.42794">
        <ele>1841.542725</ele>
        <time>2014-09-04T07:48:04Z</time>
      </trkpt>
      <trkpt lat="42.86012" lon="-0.42789">
        <ele>1844.907227</ele>
        <time>2014-09-04T07:48:17Z</time>
      </trkpt>
      <trkpt lat="42.86017" lon="-0.42781">
        <ele>1845.868652</ele>
        <time>2014-09-04T07:48:34Z</time>
      </trkpt>
      <trkpt lat="42.86013" lon="-0.42769">
        <ele>1849.233154</ele>
        <time>2014-09-04T07:48:51Z</time>
      </trkpt>
      <trkpt lat="42.86012" lon="-0.42769">
        <ele>1849.233154</ele>
        <time>2014-09-04T07:48:52Z</time>
      </trkpt>
      <trkpt lat="42.86006" lon="-0.42764">
        <ele>1852.5979</ele>
        <time>2014-09-04T07:49:00Z</time>
      </trkpt>
      <trkpt lat="42.85995" lon="-0.4275">
        <ele>1855.481934</ele>
        <time>2014-09-04T07:49:20Z</time>
      </trkpt>
      <trkpt lat="42.85989" lon="-0.4275">
        <ele>1857.885254</ele>
        <time>2014-09-04T07:49:33Z</time>
      </trkpt>
      <trkpt lat="42.85978" lon="-0.42776">
        <ele>1860.28833</ele>
        <time>2014-09-04T07:49:55Z</time>
      </trkpt>
      <trkpt lat="42.85973" lon="-0.42793">
        <ele>1862.210938</ele>
        <time>2014-09-04T07:50:11Z</time>
      </trkpt>
      <trkpt lat="42.85972" lon="-0.42808">
        <ele>1865.575684</ele>
        <time>2014-09-04T07:50:25Z</time>
      </trkpt>
      <trkpt lat="42.85965" lon="-0.42808">
        <ele>1867.97876</ele>
        <time>2014-09-04T07:50:40Z</time>
      </trkpt>
      <trkpt lat="42.85961" lon="-0.42805">
        <ele>1868.459717</ele>
        <time>2014-09-04T07:50:47Z</time>
      </trkpt>
      <trkpt lat="42.85954" lon="-0.42797">
        <ele>1872.304932</ele>
        <time>2014-09-04T07:51:02Z</time>
      </trkpt>
      <trkpt lat="42.85946" lon="-0.42793">
        <ele>1871.343506</ele>
        <time>2014-09-04T07:51:18Z</time>
      </trkpt>
      <trkpt lat="42.85943" lon="-0.42791">
        <ele>1871.824219</ele>
        <time>2014-09-04T07:51:22Z</time>
      </trkpt>
      <trkpt lat="42.85937" lon="-0.42789">
        <ele>1874.227539</ele>
        <time>2014-09-04T07:51:28Z</time>
      </trkpt>
      <trkpt lat="42.85923" lon="-0.4278">
        <ele>1874.227539</ele>
        <time>2014-09-04T07:51:42Z</time>
      </trkpt>
      <trkpt lat="42.85915" lon="-0.42771">
        <ele>1876.630859</ele>
        <time>2014-09-04T07:51:57Z</time>
      </trkpt>
      <trkpt lat="42.85913" lon="-0.42769">
        <ele>1874.708252</ele>
        <time>2014-09-04T07:52:03Z</time>
      </trkpt>
      <trkpt lat="42.85896" lon="-0.42747">
        <ele>1876.150146</ele>
        <time>2014-09-04T07:52:22Z</time>
      </trkpt>
      <trkpt lat="42.85876" lon="-0.42724">
        <ele>1875.669434</ele>
        <time>2014-09-04T07:52:42Z</time>
      </trkpt>
      <trkpt lat="42.85862" lon="-0.427">
        <ele>1879.033936</ele>
        <time>2014-09-04T07:52:59Z</time>
      </trkpt>
      <trkpt lat="42.85849" lon="-0.42684">
        <ele>1879.995361</ele>
        <time>2014-09-04T07:53:16Z</time>
      </trkpt>
      <trkpt lat="42.85839" lon="-0.42674">
        <ele>1882.87915</ele>
        <time>2014-09-04T07:53:28Z</time>
      </trkpt>
      <trkpt lat="42.85833" lon="-0.42668">
        <ele>1883.840576</ele>
        <time>2014-09-04T07:53:36Z</time>
      </trkpt>
      <trkpt lat="42.85826" lon="-0.4266">
        <ele>1885.282715</ele>
        <time>2014-09-04T07:53:44Z</time>
      </trkpt>
      <trkpt lat="42.85809" lon="-0.4264">
        <ele>1886.724609</ele>
        <time>2014-09-04T07:54:05Z</time>
      </trkpt>
      <trkpt lat="42.85792" lon="-0.42621">
        <ele>1889.12793</ele>
        <time>2014-09-04T07:54:27Z</time>
      </trkpt>
      <trkpt lat="42.85791" lon="-0.4262">
        <ele>1888.647461</ele>
        <time>2014-09-04T07:54:28Z</time>
      </trkpt>
      <trkpt lat="42.85784" lon="-0.42609">
        <ele>1891.050537</ele>
        <time>2014-09-04T07:54:40Z</time>
      </trkpt>
      <trkpt lat="42.85767" lon="-0.42608">
        <ele>1892.492676</ele>
        <time>2014-09-04T07:54:57Z</time>
      </trkpt>
      <trkpt lat="42.85752" lon="-0.42599">
        <ele>1895.376465</ele>
        <time>2014-09-04T07:55:12Z</time>
      </trkpt>
      <trkpt lat="42.85733" lon="-0.42593">
        <ele>1895.857178</ele>
        <time>2014-09-04T07:55:30Z</time>
      </trkpt>
      <trkpt lat="42.85715" lon="-0.42585">
        <ele>1897.779785</ele>
        <time>2014-09-04T07:55:48Z</time>
      </trkpt>
      <trkpt lat="42.85695" lon="-0.42567">
        <ele>1898.260254</ele>
        <time>2014-09-04T07:56:09Z</time>
      </trkpt>
      <trkpt lat="42.85689" lon="-0.42561">
        <ele>1898.260254</ele>
        <time>2014-09-04T07:56:16Z</time>
      </trkpt>
      <trkpt lat="42.85687" lon="-0.42559">
        <ele>1899.702393</ele>
        <time>2014-09-04T07:56:19Z</time>
      </trkpt>
      <trkpt lat="42.85669" lon="-0.42551">
        <ele>1900.18335</ele>
        <time>2014-09-04T07:56:37Z</time>
      </trkpt>
      <trkpt lat="42.85646" lon="-0.42532">
        <ele>1902.105713</ele>
        <time>2014-09-04T07:57:01Z</time>
      </trkpt>
      <trkpt lat="42.85633" lon="-0.4252">
        <ele>1903.067139</ele>
        <time>2014-09-04T07:57:17Z</time>
      </trkpt>
      <trkpt lat="42.85612" lon="-0.42504">
        <ele>1904.989746</ele>
        <time>2014-09-04T07:57:39Z</time>
      </trkpt>
      <trkpt lat="42.85588" lon="-0.42486">
        <ele>1906.431641</ele>
        <time>2014-09-04T07:58:04Z</time>
      </trkpt>
      <trkpt lat="42.85572" lon="-0.42472">
        <ele>1909.315674</ele>
        <time>2014-09-04T07:58:22Z</time>
      </trkpt>
      <trkpt lat="42.85554" lon="-0.42459">
        <ele>1911.238281</ele>
        <time>2014-09-04T07:58:41Z</time>
      </trkpt>
      <trkpt lat="42.85534" lon="-0.42444">
        <ele>1914.12207</ele>
        <time>2014-09-04T07:59:03Z</time>
      </trkpt>
      <trkpt lat="42.85516" lon="-0.42433">
        <ele>1916.525635</ele>
        <time>2014-09-04T07:59:22Z</time>
      </trkpt>
      <trkpt lat="42.85504" lon="-0.42421">
        <ele>1919.890137</ele>
        <time>2014-09-04T07:59:41Z</time>
      </trkpt>
      <trkpt lat="42.85497" lon="-0.42416">
        <ele>1922.293457</ele>
        <time>2014-09-04T07:59:50Z</time>
      </trkpt>
      <trkpt lat="42.85493" lon="-0.42414">
        <ele>1923.735352</ele>
        <time>2014-09-04T08:00:04Z</time>
      </trkpt>
      <trkpt lat="42.85492" lon="-0.42412">
        <ele>1925.177246</ele>
        <time>2014-09-04T08:00:42Z</time>
      </trkpt>
      <trkpt lat="42.85491" lon="-0.42412">
        <ele>1926.138672</ele>
        <time>2014-09-04T08:01:39Z</time>
      </trkpt>
      <trkpt lat="42.85487" lon="-0.42409">
        <ele>1925.177246</ele>
        <time>2014-09-04T08:02:11Z</time>
      </trkpt>
      <trkpt lat="42.85478" lon="-0.42401">
        <ele>1925.657959</ele>
        <time>2014-09-04T08:02:35Z</time>
      </trkpt>
      <trkpt lat="42.8547" lon="-0.42396">
        <ele>1926.619385</ele>
        <time>2014-09-04T08:02:46Z</time>
      </trkpt>
      <trkpt lat="42.85464" lon="-0.42388">
        <ele>1926.619385</ele>
        <time>2014-09-04T08:02:57Z</time>
      </trkpt>
      <trkpt lat="42.85455" lon="-0.42394">
        <ele>1927.580566</ele>
        <time>2014-09-04T08:03:08Z</time>
      </trkpt>
      <trkpt lat="42.85449" lon="-0.42391">
        <ele>1929.022461</ele>
        <time>2014-09-04T08:03:15Z</time>
      </trkpt>
      <trkpt lat="42.85437" lon="-0.42384">
        <ele>1930.945313</ele>
        <time>2014-09-04T08:03:32Z</time>
      </trkpt>
      <trkpt lat="42.85432" lon="-0.4238">
        <ele>1931.425781</ele>
        <time>2014-09-04T08:03:38Z</time>
      </trkpt>
      <trkpt lat="42.85417" lon="-0.42364">
        <ele>1934.790771</ele>
        <time>2014-09-04T08:04:00Z</time>
      </trkpt>
      <trkpt lat="42.85406" lon="-0.4235">
        <ele>1934.310059</ele>
        <time>2014-09-04T08:04:18Z</time>
      </trkpt>
      <trkpt lat="42.85394" lon="-0.42346">
        <ele>1935.751953</ele>
        <time>2014-09-04T08:04:35Z</time>
      </trkpt>
      <trkpt lat="42.85393" lon="-0.42347">
        <ele>1935.751953</ele>
        <time>2014-09-04T08:04:37Z</time>
      </trkpt>
      <trkpt lat="42.85388" lon="-0.42358">
        <ele>1936.713135</ele>
        <time>2014-09-04T08:04:47Z</time>
      </trkpt>
      <trkpt lat="42.85373" lon="-0.4236">
        <ele>1940.077881</ele>
        <time>2014-09-04T08:05:05Z</time>
      </trkpt>
      <trkpt lat="42.85361" lon="-0.4236">
        <ele>1942.481201</ele>
        <time>2014-09-04T08:05:20Z</time>
      </trkpt>
      <trkpt lat="42.85343" lon="-0.42359">
        <ele>1946.326416</ele>
        <time>2014-09-04T08:05:40Z</time>
      </trkpt>
      <trkpt lat="42.85339" lon="-0.42359">
        <ele>1947.768311</ele>
        <time>2014-09-04T08:05:45Z</time>
      </trkpt>
      <trkpt lat="42.8533" lon="-0.42357">
        <ele>1949.691162</ele>
        <time>2014-09-04T08:05:56Z</time>
      </trkpt>
      <trkpt lat="42.85315" lon="-0.42359">
        <ele>1951.61377</ele>
        <time>2014-09-04T08:06:15Z</time>
      </trkpt>
      <trkpt lat="42.85301" lon="-0.42366">
        <ele>1954.01709</ele>
        <time>2014-09-04T08:06:33Z</time>
      </trkpt>
      <trkpt lat="42.85287" lon="-0.4237">
        <ele>1957.381592</ele>
        <time>2014-09-04T08:06:50Z</time>
      </trkpt>
      <trkpt lat="42.85272" lon="-0.42376">
        <ele>1958.823486</ele>
        <time>2014-09-04T08:07:09Z</time>
      </trkpt>
      <trkpt lat="42.85267" lon="-0.42375">
        <ele>1961.226807</ele>
        <time>2014-09-04T08:07:16Z</time>
      </trkpt>
      <trkpt lat="42.85253" lon="-0.42382">
        <ele>1963.149414</ele>
        <time>2014-09-04T08:07:33Z</time>
      </trkpt>
      <trkpt lat="42.8524" lon="-0.42383">
        <ele>1965.552979</ele>
        <time>2014-09-04T08:07:49Z</time>
      </trkpt>
      <trkpt lat="42.85226" lon="-0.42383">
        <ele>1967.956055</ele>
        <time>2014-09-04T08:08:05Z</time>
      </trkpt>
      <trkpt lat="42.85215" lon="-0.42382">
        <ele>1971.80127</ele>
        <time>2014-09-04T08:08:19Z</time>
      </trkpt>
      <trkpt lat="42.85201" lon="-0.42382">
        <ele>1973.723877</ele>
        <time>2014-09-04T08:08:36Z</time>
      </trkpt>
      <trkpt lat="42.85188" lon="-0.42381">
        <ele>1975.646484</ele>
        <time>2014-09-04T08:08:51Z</time>
      </trkpt>
      <trkpt lat="42.85173" lon="-0.42378">
        <ele>1978.530518</ele>
        <time>2014-09-04T08:09:10Z</time>
      </trkpt>
      <trkpt lat="42.85157" lon="-0.42375">
        <ele>1980.453369</ele>
        <time>2014-09-04T08:09:31Z</time>
      </trkpt>
      <trkpt lat="42.85146" lon="-0.42374">
        <ele>1983.337158</ele>
        <time>2014-09-04T08:09:46Z</time>
      </trkpt>
      <trkpt lat="42.85138" lon="-0.42374">
        <ele>1985.740479</ele>
        <time>2014-09-04T08:09:56Z</time>
      </trkpt>
      <trkpt lat="42.85122" lon="-0.42373">
        <ele>1987.663086</ele>
        <time>2014-09-04T08:10:16Z</time>
      </trkpt>
      <trkpt lat="42.85109" lon="-0.42372">
        <ele>1990.546875</ele>
        <time>2014-09-04T08:10:33Z</time>
      </trkpt>
      <trkpt lat="42.85099" lon="-0.42369">
        <ele>1992.469727</ele>
        <time>2014-09-04T08:10:46Z</time>
      </trkpt>
      <trkpt lat="42.85097" lon="-0.42367">
        <ele>1993.430908</ele>
        <time>2014-09-04T08:10:49Z</time>
      </trkpt>
      <trkpt lat="42.851" lon="-0.42358">
        <ele>1994.39209</ele>
        <time>2014-09-04T08:10:57Z</time>
      </trkpt>
      <trkpt lat="42.85108" lon="-0.4234">
        <ele>1997.276367</ele>
        <time>2014-09-04T08:11:14Z</time>
      </trkpt>
      <trkpt lat="42.85108" lon="-0.42339">
        <ele>1998.237549</ele>
        <time>2014-09-04T08:11:16Z</time>
      </trkpt>
      <trkpt lat="42.85113" lon="-0.42325">
        <ele>1999.679688</ele>
        <time>2014-09-04T08:11:31Z</time>
      </trkpt>
      <trkpt lat="42.85111" lon="-0.42316">
        <ele>2002.082764</ele>
        <time>2014-09-04T08:11:47Z</time>
      </trkpt>
      <trkpt lat="42.85108" lon="-0.42315">
        <ele>2003.524902</ele>
        <time>2014-09-04T08:11:52Z</time>
      </trkpt>
      <trkpt lat="42.85104" lon="-0.42315">
        <ele>2004.966797</ele>
        <time>2014-09-04T08:11:56Z</time>
      </trkpt>
      <trkpt lat="42.85096" lon="-0.42316">
        <ele>2006.408691</ele>
        <time>2014-09-04T08:12:07Z</time>
      </trkpt>
      <trkpt lat="42.85081" lon="-0.42321">
        <ele>2008.812012</ele>
        <time>2014-09-04T08:12:25Z</time>
      </trkpt>
      <trkpt lat="42.85078" lon="-0.42323">
        <ele>2008.812012</ele>
        <time>2014-09-04T08:12:29Z</time>
      </trkpt>
      <trkpt lat="42.85066" lon="-0.42321">
        <ele>2012.176758</ele>
        <time>2014-09-04T08:12:44Z</time>
      </trkpt>
      <trkpt lat="42.85065" lon="-0.42321">
        <ele>2012.176758</ele>
        <time>2014-09-04T08:12:45Z</time>
      </trkpt>
      <trkpt lat="42.85063" lon="-0.42318">
        <ele>2013.138184</ele>
        <time>2014-09-04T08:13:01Z</time>
      </trkpt>
      <trkpt lat="42.85068" lon="-0.42312">
        <ele>2015.060791</ele>
        <time>2014-09-04T08:13:10Z</time>
      </trkpt>
      <trkpt lat="42.85077" lon="-0.423">
        <ele>2017.463867</ele>
        <time>2014-09-04T08:13:26Z</time>
      </trkpt>
      <trkpt lat="42.85078" lon="-0.42292">
        <ele>2018.906006</ele>
        <time>2014-09-04T08:13:32Z</time>
      </trkpt>
      <trkpt lat="42.85074" lon="-0.42287">
        <ele>2018.906006</ele>
        <time>2014-09-04T08:13:45Z</time>
      </trkpt>
      <trkpt lat="42.85065" lon="-0.42293">
        <ele>2021.789795</ele>
        <time>2014-09-04T08:13:58Z</time>
      </trkpt>
      <trkpt lat="42.85064" lon="-0.42292">
        <ele>2021.789795</ele>
        <time>2014-09-04T08:13:59Z</time>
      </trkpt>
      <trkpt lat="42.8506" lon="-0.42283">
        <ele>2024.193115</ele>
        <time>2014-09-04T08:14:16Z</time>
      </trkpt>
      <trkpt lat="42.85061" lon="-0.4228">
        <ele>2024.673828</ele>
        <time>2014-09-04T08:14:19Z</time>
      </trkpt>
      <trkpt lat="42.85067" lon="-0.42264">
        <ele>2027.557617</ele>
        <time>2014-09-04T08:14:35Z</time>
      </trkpt>
      <trkpt lat="42.85065" lon="-0.42254">
        <ele>2030.441895</ele>
        <time>2014-09-04T08:14:50Z</time>
      </trkpt>
      <trkpt lat="42.85055" lon="-0.42247">
        <ele>2033.325684</ele>
        <time>2014-09-04T08:15:06Z</time>
      </trkpt>
      <trkpt lat="42.85053" lon="-0.4224">
        <ele>2033.325684</ele>
        <time>2014-09-04T08:15:20Z</time>
      </trkpt>
      <trkpt lat="42.8506" lon="-0.42232">
        <ele>2036.209717</ele>
        <time>2014-09-04T08:15:33Z</time>
      </trkpt>
      <trkpt lat="42.85068" lon="-0.42224">
        <ele>2037.651611</ele>
        <time>2014-09-04T08:15:48Z</time>
      </trkpt>
      <trkpt lat="42.85069" lon="-0.42217">
        <ele>2040.054932</ele>
        <time>2014-09-04T08:16:04Z</time>
      </trkpt>
      <trkpt lat="42.85066" lon="-0.42212">
        <ele>2041.496826</ele>
        <time>2014-09-04T08:16:09Z</time>
      </trkpt>
      <trkpt lat="42.8506" lon="-0.42207">
        <ele>2042.938721</ele>
        <time>2014-09-04T08:16:20Z</time>
      </trkpt>
      <trkpt lat="42.85044" lon="-0.42209">
        <ele>2045.822998</ele>
        <time>2014-09-04T08:16:39Z</time>
      </trkpt>
      <trkpt lat="42.85026" lon="-0.42204">
        <ele>2049.1875</ele>
        <time>2014-09-04T08:17:00Z</time>
      </trkpt>
      <trkpt lat="42.85017" lon="-0.42193">
        <ele>2051.110107</ele>
        <time>2014-09-04T08:17:16Z</time>
      </trkpt>
      <trkpt lat="42.85011" lon="-0.42184">
        <ele>2053.994141</ele>
        <time>2014-09-04T08:17:25Z</time>
      </trkpt>
      <trkpt lat="42.85005" lon="-0.42171">
        <ele>2055.436035</ele>
        <time>2014-09-04T08:17:37Z</time>
      </trkpt>
      <trkpt lat="42.84996" lon="-0.4216">
        <ele>2057.839355</ele>
        <time>2014-09-04T08:17:54Z</time>
      </trkpt>
      <trkpt lat="42.84984" lon="-0.42152">
        <ele>2061.204102</ele>
        <time>2014-09-04T08:18:08Z</time>
      </trkpt>
      <trkpt lat="42.84979" lon="-0.42151">
        <ele>2061.204102</ele>
        <time>2014-09-04T08:18:14Z</time>
      </trkpt>
      <trkpt lat="42.84972" lon="-0.42158">
        <ele>2063.126709</ele>
        <time>2014-09-04T08:18:24Z</time>
      </trkpt>
      <trkpt lat="42.84963" lon="-0.4216">
        <ele>2064.568604</ele>
        <time>2014-09-04T08:18:34Z</time>
      </trkpt>
      <trkpt lat="42.8496" lon="-0.42162">
        <ele>2065.530029</ele>
        <time>2014-09-04T08:18:38Z</time>
      </trkpt>
      <trkpt lat="42.8495" lon="-0.42172">
        <ele>2068.894531</ele>
        <time>2014-09-04T08:18:52Z</time>
      </trkpt>
      <trkpt lat="42.84941" lon="-0.42189">
        <ele>2070.817139</ele>
        <time>2014-09-04T08:19:10Z</time>
      </trkpt>
      <trkpt lat="42.84939" lon="-0.4219">
        <ele>2071.77832</ele>
        <time>2014-09-04T08:19:13Z</time>
      </trkpt>
      <trkpt lat="42.84924" lon="-0.42189">
        <ele>2074.181641</ele>
        <time>2014-09-04T08:19:30Z</time>
      </trkpt>
      <trkpt lat="42.84916" lon="-0.4219">
        <ele>2075.142822</ele>
        <time>2014-09-04T08:19:52Z</time>
      </trkpt>
      <trkpt lat="42.84912" lon="-0.42189">
        <ele>2077.065918</ele>
        <time>2014-09-04T08:19:57Z</time>
      </trkpt>
      <trkpt lat="42.84901" lon="-0.42192">
        <ele>2078.988281</ele>
        <time>2014-09-04T08:20:11Z</time>
      </trkpt>
      <trkpt lat="42.84889" lon="-0.422">
        <ele>2080.911133</ele>
        <time>2014-09-04T08:20:27Z</time>
      </trkpt>
      <trkpt lat="42.84877" lon="-0.42203">
        <ele>2082.833496</ele>
        <time>2014-09-04T08:20:42Z</time>
      </trkpt>
      <trkpt lat="42.84874" lon="-0.42199">
        <ele>2084.275635</ele>
        <time>2014-09-04T08:20:48Z</time>
      </trkpt>
      <trkpt lat="42.84864" lon="-0.42195">
        <ele>2085.717529</ele>
        <time>2014-09-04T08:20:59Z</time>
      </trkpt>
      <trkpt lat="42.84862" lon="-0.42195">
        <ele>2086.678711</ele>
        <time>2014-09-04T08:21:01Z</time>
      </trkpt>
      <trkpt lat="42.84847" lon="-0.42199">
        <ele>2087.640137</ele>
        <time>2014-09-04T08:21:16Z</time>
      </trkpt>
      <trkpt lat="42.84826" lon="-0.42192">
        <ele>2088.12085</ele>
        <time>2014-09-04T08:21:35Z</time>
      </trkpt>
      <trkpt lat="42.84821" lon="-0.42193">
        <ele>2088.12085</ele>
        <time>2014-09-04T08:21:40Z</time>
      </trkpt>
      <trkpt lat="42.84802" lon="-0.42211">
        <ele>2090.523926</ele>
        <time>2014-09-04T08:22:01Z</time>
      </trkpt>
      <trkpt lat="42.84798" lon="-0.42215">
        <ele>2091.485352</ele>
        <time>2014-09-04T08:22:06Z</time>
      </trkpt>
      <trkpt lat="42.84792" lon="-0.42221">
        <ele>2093.888916</ele>
        <time>2014-09-04T08:22:15Z</time>
      </trkpt>
      <trkpt lat="42.84788" lon="-0.42222">
        <ele>2094.369385</ele>
        <time>2014-09-04T08:22:20Z</time>
      </trkpt>
      <trkpt lat="42.84783" lon="-0.42226">
        <ele>2095.330811</ele>
        <time>2014-09-04T08:22:26Z</time>
      </trkpt>
      <trkpt lat="42.84775" lon="-0.4223">
        <ele>2098.2146</ele>
        <time>2014-09-04T08:22:38Z</time>
      </trkpt>
      <trkpt lat="42.84772" lon="-0.42236">
        <ele>2099.176025</ele>
        <time>2014-09-04T08:22:44Z</time>
      </trkpt>
      <trkpt lat="42.84759" lon="-0.42252">
        <ele>2103.02124</ele>
        <time>2014-09-04T08:23:02Z</time>
      </trkpt>
      <trkpt lat="42.84757" lon="-0.42256">
        <ele>2103.501953</ele>
        <time>2014-09-04T08:23:06Z</time>
      </trkpt>
      <trkpt lat="42.84752" lon="-0.42263">
        <ele>2105.424561</ele>
        <time>2014-09-04T08:23:14Z</time>
      </trkpt>
      <trkpt lat="42.84746" lon="-0.42273">
        <ele>2108.789307</ele>
        <time>2014-09-04T08:23:25Z</time>
      </trkpt>
      <trkpt lat="42.84733" lon="-0.4229">
        <ele>2111.67334</ele>
        <time>2014-09-04T08:23:44Z</time>
      </trkpt>
      <trkpt lat="42.84722" lon="-0.42305">
        <ele>2114.076416</ele>
        <time>2014-09-04T08:24:04Z</time>
      </trkpt>
      <trkpt lat="42.84722" lon="-0.42305">
        <ele>2115.037842</ele>
        <time>2014-09-04T08:24:23Z</time>
      </trkpt>
      <trkpt lat="42.8472" lon="-0.42309">
        <ele>2115.999023</ele>
        <time>2014-09-04T08:25:17Z</time>
      </trkpt>
      <trkpt lat="42.84708" lon="-0.42327">
        <ele>2118.883057</ele>
        <time>2014-09-04T08:25:33Z</time>
      </trkpt>
      <trkpt lat="42.84701" lon="-0.42342">
        <ele>2121.766846</ele>
        <time>2014-09-04T08:25:45Z</time>
      </trkpt>
      <trkpt lat="42.84698" lon="-0.4234">
        <ele>2121.286133</ele>
        <time>2014-09-04T08:25:57Z</time>
      </trkpt>
      <trkpt lat="42.84698" lon="-0.4234">
        <ele>2121.766846</ele>
        <time>2014-09-04T08:26:28Z</time>
      </trkpt>
      <trkpt lat="42.84697" lon="-0.42345">
        <ele>2123.208984</ele>
        <time>2014-09-04T08:27:37Z</time>
      </trkpt>
      <trkpt lat="42.84696" lon="-0.42345">
        <ele>2123.689453</ele>
        <time>2014-09-04T08:28:13Z</time>
      </trkpt>
      <trkpt lat="42.84693" lon="-0.42349">
        <ele>2122.247559</ele>
        <time>2014-09-04T08:28:41Z</time>
      </trkpt>
      <trkpt lat="42.84679" lon="-0.42362">
        <ele>2118.402344</ele>
        <time>2014-09-04T08:28:58Z</time>
      </trkpt>
      <trkpt lat="42.84662" lon="-0.42379">
        <ele>2116.479736</ele>
        <time>2014-09-04T08:29:22Z</time>
      </trkpt>
      <trkpt lat="42.84648" lon="-0.42394">
        <ele>2113.595703</ele>
        <time>2014-09-04T08:29:42Z</time>
      </trkpt>
      <trkpt lat="42.84637" lon="-0.42405">
        <ele>2111.67334</ele>
        <time>2014-09-04T08:29:58Z</time>
      </trkpt>
      <trkpt lat="42.84625" lon="-0.42416">
        <ele>2108.308594</ele>
        <time>2014-09-04T08:30:13Z</time>
      </trkpt>
      <trkpt lat="42.84603" lon="-0.42435">
        <ele>2105.424561</ele>
        <time>2014-09-04T08:30:39Z</time>
      </trkpt>
      <trkpt lat="42.84586" lon="-0.42449">
        <ele>2102.540527</ele>
        <time>2014-09-04T08:30:59Z</time>
      </trkpt>
      <trkpt lat="42.84582" lon="-0.42454">
        <ele>2100.137451</ele>
        <time>2014-09-04T08:31:15Z</time>
      </trkpt>
      <trkpt lat="42.84581" lon="-0.42457">
        <ele>2100.61792</ele>
        <time>2014-09-04T08:31:39Z</time>
      </trkpt>
      <trkpt lat="42.84571" lon="-0.42465">
        <ele>2099.176025</ele>
        <time>2014-09-04T08:31:55Z</time>
      </trkpt>
      <trkpt lat="42.84561" lon="-0.4247">
        <ele>2098.2146</ele>
        <time>2014-09-04T08:32:06Z</time>
      </trkpt>
      <trkpt lat="42.8456" lon="-0.42476">
        <ele>2096.772705</ele>
        <time>2014-09-04T08:32:10Z</time>
      </trkpt>
      <trkpt lat="42.84541" lon="-0.42474">
        <ele>2096.292236</ele>
        <time>2014-09-04T08:32:29Z</time>
      </trkpt>
      <trkpt lat="42.84534" lon="-0.42473">
        <ele>2095.811523</ele>
        <time>2014-09-04T08:32:37Z</time>
      </trkpt>
      <trkpt lat="42.84532" lon="-0.42476">
        <ele>2094.369385</ele>
        <time>2014-09-04T08:32:40Z</time>
      </trkpt>
      <trkpt lat="42.84527" lon="-0.42475">
        <ele>2092.447021</ele>
        <time>2014-09-04T08:32:45Z</time>
      </trkpt>
      <trkpt lat="42.84512" lon="-0.42472">
        <ele>2091.004639</ele>
        <time>2014-09-04T08:33:01Z</time>
      </trkpt>
      <trkpt lat="42.84508" lon="-0.42474">
        <ele>2090.043457</ele>
        <time>2014-09-04T08:33:06Z</time>
      </trkpt>
      <trkpt lat="42.84503" lon="-0.42473">
        <ele>2088.12085</ele>
        <time>2014-09-04T08:33:11Z</time>
      </trkpt>
      <trkpt lat="42.84493" lon="-0.42474">
        <ele>2086.678711</ele>
        <time>2014-09-04T08:33:21Z</time>
      </trkpt>
      <trkpt lat="42.84489" lon="-0.42474">
        <ele>2086.678711</ele>
        <time>2014-09-04T08:33:25Z</time>
      </trkpt>
      <trkpt lat="42.84469" lon="-0.42479">
        <ele>2082.833496</ele>
        <time>2014-09-04T08:33:44Z</time>
      </trkpt>
      <trkpt lat="42.8446" lon="-0.42492">
        <ele>2079.468994</ele>
        <time>2014-09-04T08:33:58Z</time>
      </trkpt>
      <trkpt lat="42.84454" lon="-0.42503">
        <ele>2077.546387</ele>
        <time>2014-09-04T08:34:09Z</time>
      </trkpt>
      <trkpt lat="42.84443" lon="-0.42515">
        <ele>2073.700928</ele>
        <time>2014-09-04T08:34:22Z</time>
      </trkpt>
      <trkpt lat="42.8443" lon="-0.42531">
        <ele>2070.817139</ele>
        <time>2014-09-04T08:34:39Z</time>
      </trkpt>
      <trkpt lat="42.84429" lon="-0.42532">
        <ele>2070.336426</ele>
        <time>2014-09-04T08:34:40Z</time>
      </trkpt>
      <trkpt lat="42.84424" lon="-0.42542">
        <ele>2068.894531</ele>
        <time>2014-09-04T08:34:49Z</time>
      </trkpt>
      <trkpt lat="42.84413" lon="-0.42556">
        <ele>2068.413818</ele>
        <time>2014-09-04T08:35:05Z</time>
      </trkpt>
      <trkpt lat="42.84404" lon="-0.42562">
        <ele>2065.049316</ele>
        <time>2014-09-04T08:35:14Z</time>
      </trkpt>
      <trkpt lat="42.84403" lon="-0.42563">
        <ele>2065.049316</ele>
        <time>2014-09-04T08:35:15Z</time>
      </trkpt>
      <trkpt lat="42.84399" lon="-0.42568">
        <ele>2065.049316</ele>
        <time>2014-09-04T08:35:21Z</time>
      </trkpt>
      <trkpt lat="42.84399" lon="-0.42571">
        <ele>2063.607178</ele>
        <time>2014-09-04T08:35:23Z</time>
      </trkpt>
      <trkpt lat="42.84399" lon="-0.4258">
        <ele>2061.204102</ele>
        <time>2014-09-04T08:35:29Z</time>
      </trkpt>
      <trkpt lat="42.84384" lon="-0.42593">
        <ele>2058.319824</ele>
        <time>2014-09-04T08:35:46Z</time>
      </trkpt>
      <trkpt lat="42.84363" lon="-0.42606">
        <ele>2056.397217</ele>
        <time>2014-09-04T08:36:05Z</time>
      </trkpt>
      <trkpt lat="42.84353" lon="-0.42616">
        <ele>2053.032715</ele>
        <time>2014-09-04T08:36:15Z</time>
      </trkpt>
      <trkpt lat="42.84341" lon="-0.42634">
        <ele>2049.1875</ele>
        <time>2014-09-04T08:36:30Z</time>
      </trkpt>
      <trkpt lat="42.84325" lon="-0.42652">
        <ele>2046.303711</ele>
        <time>2014-09-04T08:36:47Z</time>
      </trkpt>
      <trkpt lat="42.84316" lon="-0.42662">
        <ele>2044.861572</ele>
        <time>2014-09-04T08:36:56Z</time>
      </trkpt>
      <trkpt lat="42.843" lon="-0.42678">
        <ele>2041.016113</ele>
        <time>2014-09-04T08:37:13Z</time>
      </trkpt>
      <trkpt lat="42.84284" lon="-0.42701">
        <ele>2040.054932</ele>
        <time>2014-09-04T08:37:33Z</time>
      </trkpt>
      <trkpt lat="42.84268" lon="-0.42731">
        <ele>2039.574219</ele>
        <time>2014-09-04T08:37:54Z</time>
      </trkpt>
      <trkpt lat="42.84262" lon="-0.42766">
        <ele>2038.132324</ele>
        <time>2014-09-04T08:38:14Z</time>
      </trkpt>
      <trkpt lat="42.84253" lon="-0.42796">
        <ele>2037.651611</ele>
        <time>2014-09-04T08:38:32Z</time>
      </trkpt>
      <trkpt lat="42.84245" lon="-0.42823">
        <ele>2038.613037</ele>
        <time>2014-09-04T08:38:51Z</time>
      </trkpt>
      <trkpt lat="42.84233" lon="-0.42837">
        <ele>2038.613037</ele>
        <time>2014-09-04T08:39:09Z</time>
      </trkpt>
      <trkpt lat="42.8422" lon="-0.42851">
        <ele>2039.093506</ele>
        <time>2014-09-04T08:39:26Z</time>
      </trkpt>
      <trkpt lat="42.84211" lon="-0.42857">
        <ele>2038.132324</ele>
        <time>2014-09-04T08:39:39Z</time>
      </trkpt>
      <trkpt lat="42.84204" lon="-0.42867">
        <ele>2038.132324</ele>
        <time>2014-09-04T08:39:52Z</time>
      </trkpt>
      <trkpt lat="42.84196" lon="-0.4288">
        <ele>2038.613037</ele>
        <time>2014-09-04T08:40:07Z</time>
      </trkpt>
      <trkpt lat="42.84191" lon="-0.42889">
        <ele>2037.651611</ele>
        <time>2014-09-04T08:40:21Z</time>
      </trkpt>
      <trkpt lat="42.84185" lon="-0.42899">
        <ele>2037.170898</ele>
        <time>2014-09-04T08:40:34Z</time>
      </trkpt>
      <trkpt lat="42.84181" lon="-0.42906">
        <ele>2036.209717</ele>
        <time>2014-09-04T08:40:45Z</time>
      </trkpt>
      <trkpt lat="42.8418" lon="-0.42908">
        <ele>2035.729004</ele>
        <time>2014-09-04T08:40:48Z</time>
      </trkpt>
      <trkpt lat="42.84176" lon="-0.42916">
        <ele>2034.767822</ele>
        <time>2014-09-04T08:41:00Z</time>
      </trkpt>
      <trkpt lat="42.8417" lon="-0.4293">
        <ele>2034.767822</ele>
        <time>2014-09-04T08:41:15Z</time>
      </trkpt>
      <trkpt lat="42.84166" lon="-0.42939">
        <ele>2034.287109</ele>
        <time>2014-09-04T08:41:26Z</time>
      </trkpt>
      <trkpt lat="42.8416" lon="-0.42945">
        <ele>2033.325684</ele>
        <time>2014-09-04T08:41:37Z</time>
      </trkpt>
      <trkpt lat="42.84155" lon="-0.42953">
        <ele>2031.883789</ele>
        <time>2014-09-04T08:41:48Z</time>
      </trkpt>
      <trkpt lat="42.84153" lon="-0.42958">
        <ele>2031.403076</ele>
        <time>2014-09-04T08:42:03Z</time>
      </trkpt>
      <trkpt lat="42.84149" lon="-0.42959">
        <ele>2030.922607</ele>
        <time>2014-09-04T08:42:18Z</time>
      </trkpt>
      <trkpt lat="42.84129" lon="-0.42973">
        <ele>2029.480469</ele>
        <time>2014-09-04T08:42:37Z</time>
      </trkpt>
      <trkpt lat="42.84115" lon="-0.42994">
        <ele>2026.115723</ele>
        <time>2014-09-04T08:42:55Z</time>
      </trkpt>
      <trkpt lat="42.84114" lon="-0.42995">
        <ele>2025.63501</ele>
        <time>2014-09-04T08:42:56Z</time>
      </trkpt>
      <trkpt lat="42.841" lon="-0.43009">
        <ele>2024.673828</ele>
        <time>2014-09-04T08:43:12Z</time>
      </trkpt>
      <trkpt lat="42.84089" lon="-0.4302">
        <ele>2023.712402</ele>
        <time>2014-09-04T08:43:27Z</time>
      </trkpt>
      <trkpt lat="42.84082" lon="-0.43028">
        <ele>2023.712402</ele>
        <time>2014-09-04T08:43:41Z</time>
      </trkpt>
      <trkpt lat="42.84072" lon="-0.43034">
        <ele>2021.789795</ele>
        <time>2014-09-04T08:43:55Z</time>
      </trkpt>
      <trkpt lat="42.84066" lon="-0.4304">
        <ele>2019.386719</ele>
        <time>2014-09-04T08:44:08Z</time>
      </trkpt>
      <trkpt lat="42.84054" lon="-0.43054">
        <ele>2019.386719</ele>
        <time>2014-09-04T08:44:27Z</time>
      </trkpt>
      <trkpt lat="42.84047" lon="-0.43063">
        <ele>2019.386719</ele>
        <time>2014-09-04T08:44:36Z</time>
      </trkpt>
      <trkpt lat="42.84033" lon="-0.43064">
        <ele>2016.983398</ele>
        <time>2014-09-04T08:44:46Z</time>
      </trkpt>
      <trkpt lat="42.8403" lon="-0.43067">
        <ele>2016.502686</ele>
        <time>2014-09-04T08:44:50Z</time>
      </trkpt>
      <trkpt lat="42.84028" lon="-0.43069">
        <ele>2016.983398</ele>
        <time>2014-09-04T08:44:52Z</time>
      </trkpt>
      <trkpt lat="42.84011" lon="-0.43073">
        <ele>2016.502686</ele>
        <time>2014-09-04T08:45:08Z</time>
      </trkpt>
      <trkpt lat="42.84008" lon="-0.43075">
        <ele>2016.983398</ele>
        <time>2014-09-04T08:45:11Z</time>
      </trkpt>
      <trkpt lat="42.84003" lon="-0.43083">
        <ele>2017.463867</ele>
        <time>2014-09-04T08:45:19Z</time>
      </trkpt>
      <trkpt lat="42.8399" lon="-0.43086">
        <ele>2019.386719</ele>
        <time>2014-09-04T08:45:34Z</time>
      </trkpt>
      <trkpt lat="42.8398" lon="-0.43086">
        <ele>2018.906006</ele>
        <time>2014-09-04T08:45:47Z</time>
      </trkpt>
      <trkpt lat="42.83969" lon="-0.43079">
        <ele>2018.906006</ele>
        <time>2014-09-04T08:46:00Z</time>
      </trkpt>
      <trkpt lat="42.83962" lon="-0.4308">
        <ele>2017.463867</ele>
        <time>2014-09-04T08:46:06Z</time>
      </trkpt>
      <trkpt lat="42.83959" lon="-0.43078">
        <ele>2017.463867</ele>
        <time>2014-09-04T08:46:09Z</time>
      </trkpt>
      <trkpt lat="42.83956" lon="-0.43079">
        <ele>2016.983398</ele>
        <time>2014-09-04T08:46:12Z</time>
      </trkpt>
      <trkpt lat="42.83938" lon="-0.43072">
        <ele>2016.502686</ele>
        <time>2014-09-04T08:46:30Z</time>
      </trkpt>
      <trkpt lat="42.83927" lon="-0.43069">
        <ele>2015.541504</ele>
        <time>2014-09-04T08:46:44Z</time>
      </trkpt>
      <trkpt lat="42.83919" lon="-0.43063">
        <ele>2013.618652</ele>
        <time>2014-09-04T08:46:56Z</time>
      </trkpt>
      <trkpt lat="42.83904" lon="-0.43055">
        <ele>2011.215332</ele>
        <time>2014-09-04T08:47:13Z</time>
      </trkpt>
      <trkpt lat="42.83894" lon="-0.43049">
        <ele>2010.734619</ele>
        <time>2014-09-04T08:47:24Z</time>
      </trkpt>
      <trkpt lat="42.83884" lon="-0.43041">
        <ele>2010.734619</ele>
        <time>2014-09-04T08:47:38Z</time>
      </trkpt>
      <trkpt lat="42.83875" lon="-0.4304">
        <ele>2012.176758</ele>
        <time>2014-09-04T08:47:49Z</time>
      </trkpt>
      <trkpt lat="42.8387" lon="-0.43038">
        <ele>2012.176758</ele>
        <time>2014-09-04T08:48:03Z</time>
      </trkpt>
      <trkpt lat="42.83867" lon="-0.43031">
        <ele>2015.060791</ele>
        <time>2014-09-04T08:48:14Z</time>
      </trkpt>
      <trkpt lat="42.83864" lon="-0.43025">
        <ele>2015.060791</ele>
        <time>2014-09-04T08:48:23Z</time>
      </trkpt>
      <trkpt lat="42.83855" lon="-0.43023">
        <ele>2015.541504</ele>
        <time>2014-09-04T08:48:33Z</time>
      </trkpt>
      <trkpt lat="42.83851" lon="-0.43017">
        <ele>2013.618652</ele>
        <time>2014-09-04T08:48:47Z</time>
      </trkpt>
      <trkpt lat="42.83852" lon="-0.43011">
        <ele>2012.176758</ele>
        <time>2014-09-04T08:49:00Z</time>
      </trkpt>
      <trkpt lat="42.83853" lon="-0.43004">
        <ele>2011.215332</ele>
        <time>2014-09-04T08:49:12Z</time>
      </trkpt>
      <trkpt lat="42.83848" lon="-0.42994">
        <ele>2013.138184</ele>
        <time>2014-09-04T08:49:27Z</time>
      </trkpt>
      <trkpt lat="42.83843" lon="-0.42985">
        <ele>2015.060791</ele>
        <time>2014-09-04T08:49:38Z</time>
      </trkpt>
      <trkpt lat="42.83843" lon="-0.42982">
        <ele>2016.502686</ele>
        <time>2014-09-04T08:49:42Z</time>
      </trkpt>
      <trkpt lat="42.83841" lon="-0.42973">
        <ele>2018.906006</ele>
        <time>2014-09-04T08:49:52Z</time>
      </trkpt>
      <trkpt lat="42.83841" lon="-0.42972">
        <ele>2018.906006</ele>
        <time>2014-09-04T08:49:53Z</time>
      </trkpt>
      <trkpt lat="42.83837" lon="-0.42958">
        <ele>2018.906006</ele>
        <time>2014-09-04T08:50:07Z</time>
      </trkpt>
      <trkpt lat="42.83834" lon="-0.42949">
        <ele>2019.386719</ele>
        <time>2014-09-04T08:50:16Z</time>
      </trkpt>
      <trkpt lat="42.83831" lon="-0.42943">
        <ele>2021.309082</ele>
        <time>2014-09-04T08:50:27Z</time>
      </trkpt>
      <trkpt lat="42.83826" lon="-0.42931">
        <ele>2022.751221</ele>
        <time>2014-09-04T08:50:43Z</time>
      </trkpt>
      <trkpt lat="42.83822" lon="-0.42922">
        <ele>2022.751221</ele>
        <time>2014-09-04T08:50:51Z</time>
      </trkpt>
      <trkpt lat="42.83822" lon="-0.42917">
        <ele>2022.751221</ele>
        <time>2014-09-04T08:50:55Z</time>
      </trkpt>
      <trkpt lat="42.83817" lon="-0.42904">
        <ele>2024.673828</ele>
        <time>2014-09-04T08:51:07Z</time>
      </trkpt>
      <trkpt lat="42.83811" lon="-0.42897">
        <ele>2024.193115</ele>
        <time>2014-09-04T08:51:22Z</time>
      </trkpt>
      <trkpt lat="42.83804" lon="-0.42902">
        <ele>2025.154297</ele>
        <time>2014-09-04T08:51:31Z</time>
      </trkpt>
      <trkpt lat="42.83793" lon="-0.42909">
        <ele>2024.193115</ele>
        <time>2014-09-04T08:51:47Z</time>
      </trkpt>
      <trkpt lat="42.83785" lon="-0.42913">
        <ele>2023.712402</ele>
        <time>2014-09-04T08:51:59Z</time>
      </trkpt>
      <trkpt lat="42.83772" lon="-0.42913">
        <ele>2023.712402</ele>
        <time>2014-09-04T08:52:14Z</time>
      </trkpt>
      <trkpt lat="42.83761" lon="-0.42911">
        <ele>2022.270508</ele>
        <time>2014-09-04T08:52:30Z</time>
      </trkpt>
      <trkpt lat="42.83749" lon="-0.42912">
        <ele>2021.789795</ele>
        <time>2014-09-04T08:52:44Z</time>
      </trkpt>
      <trkpt lat="42.83744" lon="-0.42914">
        <ele>2021.789795</ele>
        <time>2014-09-04T08:52:51Z</time>
      </trkpt>
      <trkpt lat="42.83736" lon="-0.42917">
        <ele>2021.789795</ele>
        <time>2014-09-04T08:53:02Z</time>
      </trkpt>
      <trkpt lat="42.8373" lon="-0.42919">
        <ele>2020.828613</ele>
        <time>2014-09-04T08:53:11Z</time>
      </trkpt>
      <trkpt lat="42.83729" lon="-0.42923">
        <ele>2020.828613</ele>
        <time>2014-09-04T08:53:14Z</time>
      </trkpt>
      <trkpt lat="42.83722" lon="-0.42926">
        <ele>2020.3479</ele>
        <time>2014-09-04T08:53:24Z</time>
      </trkpt>
      <trkpt lat="42.83713" lon="-0.42915">
        <ele>2021.309082</ele>
        <time>2014-09-04T08:53:38Z</time>
      </trkpt>
      <trkpt lat="42.83709" lon="-0.42912">
        <ele>2022.751221</ele>
        <time>2014-09-04T08:53:44Z</time>
      </trkpt>
      <trkpt lat="42.83709" lon="-0.42901">
        <ele>2023.712402</ele>
        <time>2014-09-04T08:53:55Z</time>
      </trkpt>
      <trkpt lat="42.8371" lon="-0.42892">
        <ele>2026.115723</ele>
        <time>2014-09-04T08:54:04Z</time>
      </trkpt>
      <trkpt lat="42.83709" lon="-0.4288">
        <ele>2027.557617</ele>
        <time>2014-09-04T08:54:17Z</time>
      </trkpt>
      <trkpt lat="42.83711" lon="-0.42868">
        <ele>2026.596436</ele>
        <time>2014-09-04T08:54:31Z</time>
      </trkpt>
      <trkpt lat="42.83711" lon="-0.42866">
        <ele>2025.154297</ele>
        <time>2014-09-04T08:54:34Z</time>
      </trkpt>
      <trkpt lat="42.83706" lon="-0.42853">
        <ele>2025.63501</ele>
        <time>2014-09-04T08:54:50Z</time>
      </trkpt>
      <trkpt lat="42.83697" lon="-0.42841">
        <ele>2025.154297</ele>
        <time>2014-09-04T08:55:07Z</time>
      </trkpt>
      <trkpt lat="42.83692" lon="-0.42837">
        <ele>2025.154297</ele>
        <time>2014-09-04T08:55:15Z</time>
      </trkpt>
      <trkpt lat="42.83684" lon="-0.42824">
        <ele>2028.038574</ele>
        <time>2014-09-04T08:55:32Z</time>
      </trkpt>
      <trkpt lat="42.83677" lon="-0.42811">
        <ele>2028.519287</ele>
        <time>2014-09-04T08:55:48Z</time>
      </trkpt>
      <trkpt lat="42.83675" lon="-0.42801">
        <ele>2030.922607</ele>
        <time>2014-09-04T08:56:00Z</time>
      </trkpt>
      <trkpt lat="42.8367" lon="-0.42788">
        <ele>2030.922607</ele>
        <time>2014-09-04T08:56:15Z</time>
      </trkpt>
      <trkpt lat="42.83664" lon="-0.4278">
        <ele>2029.961182</ele>
        <time>2014-09-04T08:56:29Z</time>
      </trkpt>
      <trkpt lat="42.83663" lon="-0.4278">
        <ele>2028.999756</ele>
        <time>2014-09-04T08:56:45Z</time>
      </trkpt>
      <trkpt lat="42.83661" lon="-0.42783">
        <ele>2030.441895</ele>
        <time>2014-09-04T08:57:14Z</time>
      </trkpt>
      <trkpt lat="42.8366" lon="-0.42783">
        <ele>2030.441895</ele>
        <time>2014-09-04T08:57:44Z</time>
      </trkpt>
      <trkpt lat="42.83654" lon="-0.42788">
        <ele>2027.077148</ele>
        <time>2014-09-04T08:58:04Z</time>
      </trkpt>
      <trkpt lat="42.8365" lon="-0.42789">
        <ele>2025.154297</ele>
        <time>2014-09-04T08:58:10Z</time>
      </trkpt>
      <trkpt lat="42.8364" lon="-0.42791">
        <ele>2025.154297</ele>
        <time>2014-09-04T08:58:19Z</time>
      </trkpt>
      <trkpt lat="42.83636" lon="-0.42782">
        <ele>2025.63501</ele>
        <time>2014-09-04T08:58:26Z</time>
      </trkpt>
      <trkpt lat="42.83619" lon="-0.42761">
        <ele>2024.673828</ele>
        <time>2014-09-04T08:58:44Z</time>
      </trkpt>
      <trkpt lat="42.83601" lon="-0.42742">
        <ele>2025.63501</ele>
        <time>2014-09-04T08:59:02Z</time>
      </trkpt>
      <trkpt lat="42.83572" lon="-0.42741">
        <ele>2025.63501</ele>
        <time>2014-09-04T08:59:22Z</time>
      </trkpt>
      <trkpt lat="42.83553" lon="-0.42731">
        <ele>2026.115723</ele>
        <time>2014-09-04T08:59:38Z</time>
      </trkpt>
      <trkpt lat="42.83545" lon="-0.42726">
        <ele>2028.519287</ele>
        <time>2014-09-04T08:59:50Z</time>
      </trkpt>
      <trkpt lat="42.83538" lon="-0.42723">
        <ele>2030.441895</ele>
        <time>2014-09-04T09:00:05Z</time>
      </trkpt>
      <trkpt lat="42.83536" lon="-0.42714">
        <ele>2030.441895</ele>
        <time>2014-09-04T09:00:17Z</time>
      </trkpt>
      <trkpt lat="42.83535" lon="-0.42706">
        <ele>2032.364502</ele>
        <time>2014-09-04T09:00:26Z</time>
      </trkpt>
      <trkpt lat="42.83535" lon="-0.42705">
        <ele>2031.883789</ele>
        <time>2014-09-04T09:00:45Z</time>
      </trkpt>
      <trkpt lat="42.83538" lon="-0.42704">
        <ele>2030.922607</ele>
        <time>2014-09-04T09:01:34Z</time>
      </trkpt>
      <trkpt lat="42.83536" lon="-0.42707">
        <ele>2031.883789</ele>
        <time>2014-09-04T09:02:09Z</time>
      </trkpt>
      <trkpt lat="42.83532" lon="-0.42701">
        <ele>2031.883789</ele>
        <time>2014-09-04T09:02:21Z</time>
      </trkpt>
      <trkpt lat="42.83527" lon="-0.427">
        <ele>2032.844971</ele>
        <time>2014-09-04T09:02:36Z</time>
      </trkpt>
      <trkpt lat="42.83527" lon="-0.42701">
        <ele>2032.844971</ele>
        <time>2014-09-04T09:02:52Z</time>
      </trkpt>
      <trkpt lat="42.83527" lon="-0.42701">
        <ele>2032.844971</ele>
        <time>2014-09-04T09:03:10Z</time>
      </trkpt>
      <trkpt lat="42.83536" lon="-0.42707">
        <ele>2032.364502</ele>
        <time>2014-09-04T09:03:26Z</time>
      </trkpt>
      <trkpt lat="42.83535" lon="-0.42715">
        <ele>2030.441895</ele>
        <time>2014-09-04T09:03:45Z</time>
      </trkpt>
      <trkpt lat="42.83535" lon="-0.42717">
        <ele>2031.403076</ele>
        <time>2014-09-04T09:04:03Z</time>
      </trkpt>
      <trkpt lat="42.83533" lon="-0.42721">
        <ele>2031.883789</ele>
        <time>2014-09-04T09:04:31Z</time>
      </trkpt>
      <trkpt lat="42.83527" lon="-0.42734">
        <ele>2031.883789</ele>
        <time>2014-09-04T09:04:49Z</time>
      </trkpt>
      <trkpt lat="42.83527" lon="-0.42739">
        <ele>2031.403076</ele>
        <time>2014-09-04T09:05:26Z</time>
      </trkpt>
      <trkpt lat="42.83527" lon="-0.42739">
        <ele>2032.844971</ele>
        <time>2014-09-04T09:05:30Z</time>
      </trkpt>
      <trkpt lat="42.83526" lon="-0.4274">
        <ele>2032.844971</ele>
        <time>2014-09-04T09:06:12Z</time>
      </trkpt>
      <trkpt lat="42.83527" lon="-0.42741">
        <ele>2031.403076</ele>
        <time>2014-09-04T09:06:56Z</time>
      </trkpt>
      <trkpt lat="42.83525" lon="-0.42753">
        <ele>2031.403076</ele>
        <time>2014-09-04T09:07:18Z</time>
      </trkpt>
      <trkpt lat="42.83517" lon="-0.42772">
        <ele>2028.519287</ele>
        <time>2014-09-04T09:07:34Z</time>
      </trkpt>
      <trkpt lat="42.83517" lon="-0.42775">
        <ele>2029.480469</ele>
        <time>2014-09-04T09:07:36Z</time>
      </trkpt>
      <trkpt lat="42.83519" lon="-0.42785">
        <ele>2029.480469</ele>
        <time>2014-09-04T09:07:46Z</time>
      </trkpt>
      <trkpt lat="42.83525" lon="-0.42807">
        <ele>2029.961182</ele>
        <time>2014-09-04T09:08:02Z</time>
      </trkpt>
      <trkpt lat="42.83535" lon="-0.42835">
        <ele>2029.961182</ele>
        <time>2014-09-04T09:08:22Z</time>
      </trkpt>
      <trkpt lat="42.8354" lon="-0.42853">
        <ele>2030.922607</ele>
        <time>2014-09-04T09:08:36Z</time>
      </trkpt>
      <trkpt lat="42.83541" lon="-0.42856">
        <ele>2030.922607</ele>
        <time>2014-09-04T09:08:40Z</time>
      </trkpt>
      <trkpt lat="42.83547" lon="-0.42866">
        <ele>2030.922607</ele>
        <time>2014-09-04T09:08:53Z</time>
      </trkpt>
      <trkpt lat="42.83548" lon="-0.42866">
        <ele>2030.441895</ele>
        <time>2014-09-04T09:08:54Z</time>
      </trkpt>
      <trkpt lat="42.83556" lon="-0.42881">
        <ele>2032.364502</ele>
        <time>2014-09-04T09:09:12Z</time>
      </trkpt>
      <trkpt lat="42.83561" lon="-0.42887">
        <ele>2034.767822</ele>
        <time>2014-09-04T09:09:25Z</time>
      </trkpt>
      <trkpt lat="42.83571" lon="-0.42899">
        <ele>2036.209717</ele>
        <time>2014-09-04T09:09:42Z</time>
      </trkpt>
      <trkpt lat="42.83575" lon="-0.42908">
        <ele>2038.613037</ele>
        <time>2014-09-04T09:09:53Z</time>
      </trkpt>
      <trkpt lat="42.83579" lon="-0.4292">
        <ele>2040.054932</ele>
        <time>2014-09-04T09:10:05Z</time>
      </trkpt>
      <trkpt lat="42.83585" lon="-0.42929">
        <ele>2041.016113</ele>
        <time>2014-09-04T09:10:16Z</time>
      </trkpt>
      <trkpt lat="42.8359" lon="-0.4294">
        <ele>2044.380859</ele>
        <time>2014-09-04T09:10:29Z</time>
      </trkpt>
      <trkpt lat="42.83591" lon="-0.42946">
        <ele>2045.342285</ele>
        <time>2014-09-04T09:10:35Z</time>
      </trkpt>
      <trkpt lat="42.8359" lon="-0.42968">
        <ele>2046.78418</ele>
        <time>2014-09-04T09:10:51Z</time>
      </trkpt>
      <trkpt lat="42.83591" lon="-0.42974">
        <ele>2046.303711</ele>
        <time>2014-09-04T09:10:55Z</time>
      </trkpt>
      <trkpt lat="42.83596" lon="-0.42999">
        <ele>2047.745605</ele>
        <time>2014-09-04T09:11:13Z</time>
      </trkpt>
      <trkpt lat="42.83602" lon="-0.43015">
        <ele>2051.110107</ele>
        <time>2014-09-04T09:11:28Z</time>
      </trkpt>
      <trkpt lat="42.8361" lon="-0.43031">
        <ele>2053.994141</ele>
        <time>2014-09-04T09:11:44Z</time>
      </trkpt>
      <trkpt lat="42.83617" lon="-0.4304">
        <ele>2055.916504</ele>
        <time>2014-09-04T09:11:56Z</time>
      </trkpt>
      <trkpt lat="42.83622" lon="-0.43046">
        <ele>2058.800537</ele>
        <time>2014-09-04T09:12:07Z</time>
      </trkpt>
      <trkpt lat="42.83624" lon="-0.43059">
        <ele>2060.723389</ele>
        <time>2014-09-04T09:12:20Z</time>
      </trkpt>
      <trkpt lat="42.83629" lon="-0.43072">
        <ele>2064.568604</ele>
        <time>2014-09-04T09:12:35Z</time>
      </trkpt>
      <trkpt lat="42.83633" lon="-0.43083">
        <ele>2066.971924</ele>
        <time>2014-09-04T09:12:52Z</time>
      </trkpt>
      <trkpt lat="42.83636" lon="-0.43086">
        <ele>2067.933105</ele>
        <time>2014-09-04T09:12:56Z</time>
      </trkpt>
      <trkpt lat="42.83642" lon="-0.43092">
        <ele>2070.817139</ele>
        <time>2014-09-04T09:13:04Z</time>
      </trkpt>
      <trkpt lat="42.83643" lon="-0.43098">
        <ele>2073.220459</ele>
        <time>2014-09-04T09:13:12Z</time>
      </trkpt>
      <trkpt lat="42.8364" lon="-0.43105">
        <ele>2075.142822</ele>
        <time>2014-09-04T09:13:33Z</time>
      </trkpt>
      <trkpt lat="42.83638" lon="-0.43111">
        <ele>2075.623535</ele>
        <time>2014-09-04T09:13:53Z</time>
      </trkpt>
      <trkpt lat="42.83633" lon="-0.43126">
        <ele>2078.0271</ele>
        <time>2014-09-04T09:14:17Z</time>
      </trkpt>
      <trkpt lat="42.83633" lon="-0.4313">
        <ele>2079.949707</ele>
        <time>2014-09-04T09:14:22Z</time>
      </trkpt>
      <trkpt lat="42.83631" lon="-0.43133">
        <ele>2078.0271</ele>
        <time>2014-09-04T09:14:26Z</time>
      </trkpt>
      <trkpt lat="42.83629" lon="-0.43134">
        <ele>2078.988281</ele>
        <time>2014-09-04T09:14:28Z</time>
      </trkpt>
      <trkpt lat="42.83618" lon="-0.4315">
        <ele>2080.911133</ele>
        <time>2014-09-04T09:14:45Z</time>
      </trkpt>
      <trkpt lat="42.8361" lon="-0.43155">
        <ele>2078.507813</ele>
        <time>2014-09-04T09:14:58Z</time>
      </trkpt>
      <trkpt lat="42.83606" lon="-0.43164">
        <ele>2077.546387</ele>
        <time>2014-09-04T09:15:04Z</time>
      </trkpt>
      <trkpt lat="42.83592" lon="-0.4319">
        <ele>2078.988281</ele>
        <time>2014-09-04T09:15:24Z</time>
      </trkpt>
      <trkpt lat="42.83575" lon="-0.43202">
        <ele>2081.872314</ele>
        <time>2014-09-04T09:15:43Z</time>
      </trkpt>
      <trkpt lat="42.83569" lon="-0.43204">
        <ele>2081.872314</ele>
        <time>2014-09-04T09:16:00Z</time>
      </trkpt>
      <trkpt lat="42.83564" lon="-0.43211">
        <ele>2083.314209</ele>
        <time>2014-09-04T09:16:07Z</time>
      </trkpt>
      <trkpt lat="42.83558" lon="-0.43232">
        <ele>2085.717529</ele>
        <time>2014-09-04T09:16:24Z</time>
      </trkpt>
      <trkpt lat="42.83555" lon="-0.43243">
        <ele>2088.601563</ele>
        <time>2014-09-04T09:16:37Z</time>
      </trkpt>
      <trkpt lat="42.83551" lon="-0.43258">
        <ele>2091.485352</ele>
        <time>2014-09-04T09:16:53Z</time>
      </trkpt>
      <trkpt lat="42.83547" lon="-0.43269">
        <ele>2092.92749</ele>
        <time>2014-09-04T09:17:05Z</time>
      </trkpt>
      <trkpt lat="42.83545" lon="-0.43278">
        <ele>2094.369385</ele>
        <time>2014-09-04T09:17:15Z</time>
      </trkpt>
      <trkpt lat="42.83539" lon="-0.43288">
        <ele>2097.253418</ele>
        <time>2014-09-04T09:17:28Z</time>
      </trkpt>
      <trkpt lat="42.83533" lon="-0.43301">
        <ele>2100.137451</ele>
        <time>2014-09-04T09:17:43Z</time>
      </trkpt>
      <trkpt lat="42.83529" lon="-0.4331">
        <ele>2102.059814</ele>
        <time>2014-09-04T09:17:56Z</time>
      </trkpt>
      <trkpt lat="42.83521" lon="-0.43319">
        <ele>2104.943848</ele>
        <time>2014-09-04T09:18:12Z</time>
      </trkpt>
      <trkpt lat="42.8351" lon="-0.43326">
        <ele>2107.347168</ele>
        <time>2014-09-04T09:18:28Z</time>
      </trkpt>
      <trkpt lat="42.83502" lon="-0.43328">
        <ele>2108.789307</ele>
        <time>2014-09-04T09:18:39Z</time>
      </trkpt>
      <trkpt lat="42.83494" lon="-0.43334">
        <ele>2109.750488</ele>
        <time>2014-09-04T09:18:47Z</time>
      </trkpt>
      <trkpt lat="42.83489" lon="-0.43336">
        <ele>2110.711914</ele>
        <time>2014-09-04T09:18:58Z</time>
      </trkpt>
      <trkpt lat="42.83486" lon="-0.43337">
        <ele>2111.67334</ele>
        <time>2014-09-04T09:19:01Z</time>
      </trkpt>
      <trkpt lat="42.83482" lon="-0.43337">
        <ele>2111.67334</ele>
        <time>2014-09-04T09:19:03Z</time>
      </trkpt>
      <trkpt lat="42.83471" lon="-0.43336">
        <ele>2114.557129</ele>
        <time>2014-09-04T09:19:16Z</time>
      </trkpt>
      <trkpt lat="42.83473" lon="-0.43337">
        <ele>2117.921631</ele>
        <time>2014-09-04T09:19:31Z</time>
      </trkpt>
      <trkpt lat="42.83461" lon="-0.4334">
        <ele>2121.286133</ele>
        <time>2014-09-04T09:19:51Z</time>
      </trkpt>
      <trkpt lat="42.83452" lon="-0.43336">
        <ele>2122.728271</ele>
        <time>2014-09-04T09:20:01Z</time>
      </trkpt>
      <trkpt lat="42.83443" lon="-0.43327">
        <ele>2124.651123</ele>
        <time>2014-09-04T09:20:19Z</time>
      </trkpt>
      <trkpt lat="42.83443" lon="-0.43326">
        <ele>2124.651123</ele>
        <time>2014-09-04T09:20:20Z</time>
      </trkpt>
      <trkpt lat="42.83438" lon="-0.43322">
        <ele>2127.054443</ele>
        <time>2014-09-04T09:20:36Z</time>
      </trkpt>
      <trkpt lat="42.83434" lon="-0.43328">
        <ele>2128.496338</ele>
        <time>2014-09-04T09:20:43Z</time>
      </trkpt>
      <trkpt lat="42.83427" lon="-0.4333">
        <ele>2130.418945</ele>
        <time>2014-09-04T09:20:55Z</time>
      </trkpt>
      <trkpt lat="42.8342" lon="-0.43328">
        <ele>2133.783447</ele>
        <time>2014-09-04T09:21:10Z</time>
      </trkpt>
      <trkpt lat="42.83423" lon="-0.43327">
        <ele>2133.783447</ele>
        <time>2014-09-04T09:21:31Z</time>
      </trkpt>
      <trkpt lat="42.83419" lon="-0.43334">
        <ele>2135.225342</ele>
        <time>2014-09-04T09:21:53Z</time>
      </trkpt>
      <trkpt lat="42.83412" lon="-0.43333">
        <ele>2136.667236</ele>
        <time>2014-09-04T09:22:04Z</time>
      </trkpt>
      <trkpt lat="42.8341" lon="-0.43342">
        <ele>2138.109375</ele>
        <time>2014-09-04T09:22:15Z</time>
      </trkpt>
      <trkpt lat="42.83398" lon="-0.43342">
        <ele>2140.993408</ele>
        <time>2014-09-04T09:22:33Z</time>
      </trkpt>
      <trkpt lat="42.83389" lon="-0.43343">
        <ele>2144.35791</ele>
        <time>2014-09-04T09:22:47Z</time>
      </trkpt>
      <trkpt lat="42.83385" lon="-0.43345">
        <ele>2146.76123</ele>
        <time>2014-09-04T09:23:01Z</time>
      </trkpt>
      <trkpt lat="42.83382" lon="-0.43342">
        <ele>2147.722656</ele>
        <time>2014-09-04T09:23:15Z</time>
      </trkpt>
      <trkpt lat="42.83379" lon="-0.43335">
        <ele>2151.087158</ele>
        <time>2014-09-04T09:23:29Z</time>
      </trkpt>
      <trkpt lat="42.83375" lon="-0.4334">
        <ele>2154.45166</ele>
        <time>2014-09-04T09:23:46Z</time>
      </trkpt>
      <trkpt lat="42.83371" lon="-0.43341">
        <ele>2154.932373</ele>
        <time>2014-09-04T09:23:51Z</time>
      </trkpt>
      <trkpt lat="42.83367" lon="-0.43343">
        <ele>2156.374512</ele>
        <time>2014-09-04T09:24:03Z</time>
      </trkpt>
      <trkpt lat="42.83363" lon="-0.43347">
        <ele>2160.219727</ele>
        <time>2014-09-04T09:24:17Z</time>
      </trkpt>
      <trkpt lat="42.83361" lon="-0.43349">
        <ele>2163.584229</ele>
        <time>2014-09-04T09:24:32Z</time>
      </trkpt>
      <trkpt lat="42.8336" lon="-0.43353">
        <ele>2166.468262</ele>
        <time>2014-09-04T09:25:33Z</time>
      </trkpt>
      <trkpt lat="42.83355" lon="-0.43372">
        <ele>2167.910156</ele>
        <time>2014-09-04T09:26:06Z</time>
      </trkpt>
      <trkpt lat="42.83358" lon="-0.43377">
        <ele>2166.468262</ele>
        <time>2014-09-04T09:26:18Z</time>
      </trkpt>
      <trkpt lat="42.83361" lon="-0.43385">
        <ele>2165.987549</ele>
        <time>2014-09-04T09:26:28Z</time>
      </trkpt>
      <trkpt lat="42.83364" lon="-0.4339">
        <ele>2165.987549</ele>
        <time>2014-09-04T09:26:37Z</time>
      </trkpt>
      <trkpt lat="42.83365" lon="-0.43397">
        <ele>2165.50708</ele>
        <time>2014-09-04T09:26:46Z</time>
      </trkpt>
      <trkpt lat="42.83363" lon="-0.434">
        <ele>2167.910156</ele>
        <time>2014-09-04T09:26:52Z</time>
      </trkpt>
      <trkpt lat="42.83363" lon="-0.43408">
        <ele>2169.832764</ele>
        <time>2014-09-04T09:27:04Z</time>
      </trkpt>
      <trkpt lat="42.83366" lon="-0.43414">
        <ele>2171.274658</ele>
        <time>2014-09-04T09:27:17Z</time>
      </trkpt>
      <trkpt lat="42.83365" lon="-0.43415">
        <ele>2173.197754</ele>
        <time>2014-09-04T09:27:20Z</time>
      </trkpt>
      <trkpt lat="42.83367" lon="-0.43417">
        <ele>2173.197754</ele>
        <time>2014-09-04T09:28:17Z</time>
      </trkpt>
      <trkpt lat="42.83366" lon="-0.43417">
        <ele>2173.197754</ele>
        <time>2014-09-04T09:29:16Z</time>
      </trkpt>
      <trkpt lat="42.83365" lon="-0.43417">
        <ele>2174.158936</ele>
        <time>2014-09-04T09:29:50Z</time>
      </trkpt>
      <trkpt lat="42.83361" lon="-0.43425">
        <ele>2176.562256</ele>
        <time>2014-09-04T09:30:38Z</time>
      </trkpt>
      <trkpt lat="42.83363" lon="-0.43433">
        <ele>2178.484863</ele>
        <time>2014-09-04T09:30:52Z</time>
      </trkpt>
      <trkpt lat="42.83362" lon="-0.43433">
        <ele>2179.926758</ele>
        <time>2014-09-04T09:30:54Z</time>
      </trkpt>
      <trkpt lat="42.83359" lon="-0.43439">
        <ele>2183.29126</ele>
        <time>2014-09-04T09:31:06Z</time>
      </trkpt>
      <trkpt lat="42.83358" lon="-0.4345">
        <ele>2185.69458</ele>
        <time>2014-09-04T09:31:24Z</time>
      </trkpt>
      <trkpt lat="42.8336" lon="-0.43456">
        <ele>2189.059326</ele>
        <time>2014-09-04T09:31:34Z</time>
      </trkpt>
      <trkpt lat="42.83361" lon="-0.43456">
        <ele>2190.020752</ele>
        <time>2014-09-04T09:31:36Z</time>
      </trkpt>
      <trkpt lat="42.83361" lon="-0.43456">
        <ele>2190.020752</ele>
        <time>2014-09-04T09:31:37Z</time>
      </trkpt>
      <trkpt lat="42.83373" lon="-0.43467">
        <ele>2190.981934</ele>
        <time>2014-09-04T09:31:53Z</time>
      </trkpt>
      <trkpt lat="42.83375" lon="-0.43483">
        <ele>2193.385254</ele>
        <time>2014-09-04T09:32:08Z</time>
      </trkpt>
      <trkpt lat="42.8338" lon="-0.43495">
        <ele>2196.269287</ele>
        <time>2014-09-04T09:32:25Z</time>
      </trkpt>
      <trkpt lat="42.83379" lon="-0.43504">
        <ele>2199.633789</ele>
        <time>2014-09-04T09:32:37Z</time>
      </trkpt>
      <trkpt lat="42.83378" lon="-0.43508">
        <ele>2200.594971</ele>
        <time>2014-09-04T09:32:43Z</time>
      </trkpt>
      <trkpt lat="42.8338" lon="-0.43517">
        <ele>2202.517578</ele>
        <time>2014-09-04T09:32:56Z</time>
      </trkpt>
      <trkpt lat="42.83383" lon="-0.43519">
        <ele>2203.479004</ele>
        <time>2014-09-04T09:33:10Z</time>
      </trkpt>
      <trkpt lat="42.83391" lon="-0.43525">
        <ele>2205.401855</ele>
        <time>2014-09-04T09:33:22Z</time>
      </trkpt>
      <trkpt lat="42.83393" lon="-0.4353">
        <ele>2205.401855</ele>
        <time>2014-09-04T09:33:26Z</time>
      </trkpt>
      <trkpt lat="42.83395" lon="-0.43539">
        <ele>2208.285645</ele>
        <time>2014-09-04T09:33:40Z</time>
      </trkpt>
      <trkpt lat="42.83396" lon="-0.4354">
        <ele>2208.285645</ele>
        <time>2014-09-04T09:33:41Z</time>
      </trkpt>
      <trkpt lat="42.83402" lon="-0.43562">
        <ele>2208.285645</ele>
        <time>2014-09-04T09:34:00Z</time>
      </trkpt>
      <trkpt lat="42.83399" lon="-0.43573">
        <ele>2204.921143</ele>
        <time>2014-09-04T09:34:14Z</time>
      </trkpt>
      <trkpt lat="42.83399" lon="-0.436">
        <ele>2204.44043</ele>
        <time>2014-09-04T09:34:32Z</time>
      </trkpt>
      <trkpt lat="42.8339" lon="-0.43614">
        <ele>2204.921143</ele>
        <time>2014-09-04T09:34:44Z</time>
      </trkpt>
      <trkpt lat="42.83388" lon="-0.43636">
        <ele>2208.285645</ele>
        <time>2014-09-04T09:35:02Z</time>
      </trkpt>
      <trkpt lat="42.83389" lon="-0.43645">
        <ele>2210.688965</ele>
        <time>2014-09-04T09:35:13Z</time>
      </trkpt>
      <trkpt lat="42.83395" lon="-0.43653">
        <ele>2213.572754</ele>
        <time>2014-09-04T09:35:25Z</time>
      </trkpt>
      <trkpt lat="42.834" lon="-0.43665">
        <ele>2215.495605</ele>
        <time>2014-09-04T09:35:38Z</time>
      </trkpt>
      <trkpt lat="42.83403" lon="-0.43672">
        <ele>2216.456787</ele>
        <time>2014-09-04T09:35:44Z</time>
      </trkpt>
      <trkpt lat="42.83408" lon="-0.43682">
        <ele>2218.860107</ele>
        <time>2014-09-04T09:35:54Z</time>
      </trkpt>
      <trkpt lat="42.83413" lon="-0.43695">
        <ele>2222.224854</ele>
        <time>2014-09-04T09:36:08Z</time>
      </trkpt>
      <trkpt lat="42.83416" lon="-0.43698">
        <ele>2223.666748</ele>
        <time>2014-09-04T09:36:12Z</time>
      </trkpt>
      <trkpt lat="42.83426" lon="-0.43707">
        <ele>2225.108643</ele>
        <time>2014-09-04T09:36:24Z</time>
      </trkpt>
      <trkpt lat="42.83402" lon="-0.43717">
        <ele>2228.473389</ele>
        <time>2014-09-04T09:36:36Z</time>
      </trkpt>
      <trkpt lat="42.83411" lon="-0.43723">
        <ele>2231.357178</ele>
        <time>2014-09-04T09:36:47Z</time>
      </trkpt>
      <trkpt lat="42.83396" lon="-0.43733">
        <ele>2233.760498</ele>
        <time>2014-09-04T09:37:06Z</time>
      </trkpt>
      <trkpt lat="42.83393" lon="-0.43741">
        <ele>2234.721924</ele>
        <time>2014-09-04T09:37:17Z</time>
      </trkpt>
      <trkpt lat="42.83391" lon="-0.43746">
        <ele>2236.644531</ele>
        <time>2014-09-04T09:37:23Z</time>
      </trkpt>
      <trkpt lat="42.83396" lon="-0.43754">
        <ele>2238.567383</ele>
        <time>2014-09-04T09:37:36Z</time>
      </trkpt>
      <trkpt lat="42.83391" lon="-0.43764">
        <ele>2241.451172</ele>
        <time>2014-09-04T09:37:48Z</time>
      </trkpt>
      <trkpt lat="42.83387" lon="-0.43772">
        <ele>2244.815674</ele>
        <time>2014-09-04T09:37:59Z</time>
      </trkpt>
      <trkpt lat="42.83385" lon="-0.43778">
        <ele>2246.738281</ele>
        <time>2014-09-04T09:38:15Z</time>
      </trkpt>
      <trkpt lat="42.83388" lon="-0.43786">
        <ele>2248.180176</ele>
        <time>2014-09-04T09:38:34Z</time>
      </trkpt>
      <trkpt lat="42.83393" lon="-0.43792">
        <ele>2250.103027</ele>
        <time>2014-09-04T09:38:48Z</time>
      </trkpt>
      <trkpt lat="42.83398" lon="-0.438">
        <ele>2253.467773</ele>
        <time>2014-09-04T09:39:02Z</time>
      </trkpt>
      <trkpt lat="42.83398" lon="-0.438">
        <ele>2253.467773</ele>
        <time>2014-09-04T09:39:03Z</time>
      </trkpt>
      <trkpt lat="42.83403" lon="-0.43798">
        <ele>2256.832275</ele>
        <time>2014-09-04T09:39:15Z</time>
      </trkpt>
      <trkpt lat="42.83405" lon="-0.43804">
        <ele>2257.793701</ele>
        <time>2014-09-04T09:39:25Z</time>
      </trkpt>
      <trkpt lat="42.83405" lon="-0.43811">
        <ele>2259.235596</ele>
        <time>2014-09-04T09:39:38Z</time>
      </trkpt>
      <trkpt lat="42.83405" lon="-0.43815">
        <ele>2262.600098</ele>
        <time>2014-09-04T09:39:51Z</time>
      </trkpt>
      <trkpt lat="42.83407" lon="-0.43821">
        <ele>2265.484131</ele>
        <time>2014-09-04T09:40:07Z</time>
      </trkpt>
      <trkpt lat="42.83408" lon="-0.43826">
        <ele>2267.406494</ele>
        <time>2014-09-04T09:40:17Z</time>
      </trkpt>
      <trkpt lat="42.83406" lon="-0.43833">
        <ele>2270.290771</ele>
        <time>2014-09-04T09:40:34Z</time>
      </trkpt>
      <trkpt lat="42.83409" lon="-0.4384">
        <ele>2272.694092</ele>
        <time>2014-09-04T09:40:46Z</time>
      </trkpt>
      <trkpt lat="42.83415" lon="-0.43841">
        <ele>2276.058594</ele>
        <time>2014-09-04T09:40:59Z</time>
      </trkpt>
      <trkpt lat="42.8342" lon="-0.43841">
        <ele>2278.942383</ele>
        <time>2014-09-04T09:41:10Z</time>
      </trkpt>
      <trkpt lat="42.83421" lon="-0.43849">
        <ele>2280.384521</ele>
        <time>2014-09-04T09:41:24Z</time>
      </trkpt>
      <trkpt lat="42.83425" lon="-0.43854">
        <ele>2282.787598</ele>
        <time>2014-09-04T09:41:40Z</time>
      </trkpt>
      <trkpt lat="42.83426" lon="-0.43861">
        <ele>2285.191162</ele>
        <time>2014-09-04T09:41:52Z</time>
      </trkpt>
      <trkpt lat="42.83422" lon="-0.4387">
        <ele>2289.036377</ele>
        <time>2014-09-04T09:42:07Z</time>
      </trkpt>
      <trkpt lat="42.83421" lon="-0.43876">
        <ele>2290.958984</ele>
        <time>2014-09-04T09:42:20Z</time>
      </trkpt>
      <trkpt lat="42.8342" lon="-0.43883">
        <ele>2291.439697</ele>
        <time>2014-09-04T09:42:46Z</time>
      </trkpt>
      <trkpt lat="42.83422" lon="-0.43892">
        <ele>2294.323486</ele>
        <time>2014-09-04T09:42:59Z</time>
      </trkpt>
      <trkpt lat="42.83426" lon="-0.43904">
        <ele>2297.20752</ele>
        <time>2014-09-04T09:43:14Z</time>
      </trkpt>
      <trkpt lat="42.83426" lon="-0.4391">
        <ele>2299.61084</ele>
        <time>2014-09-04T09:43:22Z</time>
      </trkpt>
      <trkpt lat="42.83426" lon="-0.43915">
        <ele>2301.533691</ele>
        <time>2014-09-04T09:43:28Z</time>
      </trkpt>
      <trkpt lat="42.83423" lon="-0.43923">
        <ele>2303.456299</ele>
        <time>2014-09-04T09:43:42Z</time>
      </trkpt>
      <trkpt lat="42.83422" lon="-0.43927">
        <ele>2305.378906</ele>
        <time>2014-09-04T09:43:49Z</time>
      </trkpt>
      <trkpt lat="42.83417" lon="-0.43929">
        <ele>2307.782227</ele>
        <time>2014-09-04T09:44:01Z</time>
      </trkpt>
      <trkpt lat="42.83417" lon="-0.43929">
        <ele>2307.782227</ele>
        <time>2014-09-04T09:44:02Z</time>
      </trkpt>
      <trkpt lat="42.83418" lon="-0.43939">
        <ele>2310.185303</ele>
        <time>2014-09-04T09:44:22Z</time>
      </trkpt>
      <trkpt lat="42.83421" lon="-0.43942">
        <ele>2310.666016</ele>
        <time>2014-09-04T09:44:38Z</time>
      </trkpt>
      <trkpt lat="42.83418" lon="-0.43947">
        <ele>2310.666016</ele>
        <time>2014-09-04T09:44:55Z</time>
      </trkpt>
      <trkpt lat="42.83416" lon="-0.43947">
        <ele>2312.10791</ele>
        <time>2014-09-04T09:45:13Z</time>
      </trkpt>
      <trkpt lat="42.83424" lon="-0.43949">
        <ele>2311.146729</ele>
        <time>2014-09-04T09:46:11Z</time>
      </trkpt>
      <trkpt lat="42.83418" lon="-0.43949">
        <ele>2311.627441</ele>
        <time>2014-09-04T09:47:03Z</time>
      </trkpt>
      <trkpt lat="42.83417" lon="-0.43948">
        <ele>2311.627441</ele>
        <time>2014-09-04T09:47:31Z</time>
      </trkpt>
      <trkpt lat="42.8342" lon="-0.43947">
        <ele>2311.627441</ele>
        <time>2014-09-04T09:48:23Z</time>
      </trkpt>
      <trkpt lat="42.83421" lon="-0.43955">
        <ele>2309.224121</ele>
        <time>2014-09-04T09:48:40Z</time>
      </trkpt>
      <trkpt lat="42.83417" lon="-0.43956">
        <ele>2309.224121</ele>
        <time>2014-09-04T09:49:15Z</time>
      </trkpt>
      <trkpt lat="42.83418" lon="-0.43967">
        <ele>2305.859375</ele>
        <time>2014-09-04T09:49:31Z</time>
      </trkpt>
      <trkpt lat="42.83417" lon="-0.43978">
        <ele>2303.456299</ele>
        <time>2014-09-04T09:49:47Z</time>
      </trkpt>
      <trkpt lat="42.83424" lon="-0.43978">
        <ele>2301.052979</ele>
        <time>2014-09-04T09:50:11Z</time>
      </trkpt>
      <trkpt lat="42.83428" lon="-0.43982">
        <ele>2300.572266</ele>
        <time>2014-09-04T09:50:19Z</time>
      </trkpt>
      <trkpt lat="42.8343" lon="-0.43999">
        <ele>2296.726807</ele>
        <time>2014-09-04T09:50:37Z</time>
      </trkpt>
      <trkpt lat="42.83433" lon="-0.44014">
        <ele>2293.362305</ele>
        <time>2014-09-04T09:50:53Z</time>
      </trkpt>
      <trkpt lat="42.83434" lon="-0.4402">
        <ele>2291.92041</ele>
        <time>2014-09-04T09:51:11Z</time>
      </trkpt>
      <trkpt lat="42.83434" lon="-0.44022">
        <ele>2289.997803</ele>
        <time>2014-09-04T09:51:32Z</time>
      </trkpt>
      <trkpt lat="42.83433" lon="-0.44035">
        <ele>2288.555908</ele>
        <time>2014-09-04T09:51:51Z</time>
      </trkpt>
      <trkpt lat="42.83436" lon="-0.4404">
        <ele>2285.191162</ele>
        <time>2014-09-04T09:52:02Z</time>
      </trkpt>
      <trkpt lat="42.83438" lon="-0.44044">
        <ele>2283.268311</ele>
        <time>2014-09-04T09:52:13Z</time>
      </trkpt>
      <trkpt lat="42.8344" lon="-0.44046">
        <ele>2280.865234</ele>
        <time>2014-09-04T09:52:23Z</time>
      </trkpt>
      <trkpt lat="42.83448" lon="-0.44052">
        <ele>2278.461914</ele>
        <time>2014-09-04T09:52:49Z</time>
      </trkpt>
      <trkpt lat="42.83448" lon="-0.44058">
        <ele>2276.539307</ele>
        <time>2014-09-04T09:53:00Z</time>
      </trkpt>
      <trkpt lat="42.83453" lon="-0.44067">
        <ele>2274.135986</ele>
        <time>2014-09-04T09:53:27Z</time>
      </trkpt>
      <trkpt lat="42.83454" lon="-0.44069">
        <ele>2273.174805</ele>
        <time>2014-09-04T09:53:30Z</time>
      </trkpt>
      <trkpt lat="42.83458" lon="-0.44075">
        <ele>2269.810059</ele>
        <time>2014-09-04T09:53:39Z</time>
      </trkpt>
      <trkpt lat="42.83454" lon="-0.44079">
        <ele>2269.810059</ele>
        <time>2014-09-04T09:53:43Z</time>
      </trkpt>
      <trkpt lat="42.83438" lon="-0.44098">
        <ele>2268.848877</ele>
        <time>2014-09-04T09:54:03Z</time>
      </trkpt>
      <trkpt lat="42.83436" lon="-0.4411">
        <ele>2265.484131</ele>
        <time>2014-09-04T09:54:23Z</time>
      </trkpt>
      <trkpt lat="42.8344" lon="-0.44121">
        <ele>2262.119385</ele>
        <time>2014-09-04T09:54:40Z</time>
      </trkpt>
      <trkpt lat="42.83435" lon="-0.44128">
        <ele>2259.716064</ele>
        <time>2014-09-04T09:54:58Z</time>
      </trkpt>
      <trkpt lat="42.83431" lon="-0.44132">
        <ele>2256.832275</ele>
        <time>2014-09-04T09:55:19Z</time>
      </trkpt>
      <trkpt lat="42.83431" lon="-0.44136">
        <ele>2253.467773</ele>
        <time>2014-09-04T09:55:33Z</time>
      </trkpt>
      <trkpt lat="42.8342" lon="-0.4414">
        <ele>2250.103027</ele>
        <time>2014-09-04T09:56:03Z</time>
      </trkpt>
      <trkpt lat="42.83419" lon="-0.44145">
        <ele>2247.218994</ele>
        <time>2014-09-04T09:56:19Z</time>
      </trkpt>
      <trkpt lat="42.83417" lon="-0.44151">
        <ele>2243.854492</ele>
        <time>2014-09-04T09:56:38Z</time>
      </trkpt>
      <trkpt lat="42.83423" lon="-0.44163">
        <ele>2240.970459</ele>
        <time>2014-09-04T09:57:03Z</time>
      </trkpt>
      <trkpt lat="42.83417" lon="-0.44167">
        <ele>2237.605957</ele>
        <time>2014-09-04T09:57:23Z</time>
      </trkpt>
      <trkpt lat="42.83418" lon="-0.44174">
        <ele>2234.721924</ele>
        <time>2014-09-04T09:57:43Z</time>
      </trkpt>
      <trkpt lat="42.83417" lon="-0.44177">
        <ele>2232.799072</ele>
        <time>2014-09-04T09:57:53Z</time>
      </trkpt>
      <trkpt lat="42.83416" lon="-0.44189">
        <ele>2229.43457</ele>
        <time>2014-09-04T09:58:31Z</time>
      </trkpt>
      <trkpt lat="42.83414" lon="-0.44192">
        <ele>2227.511963</ele>
        <time>2014-09-04T09:58:40Z</time>
      </trkpt>
      <trkpt lat="42.83409" lon="-0.44195">
        <ele>2224.147461</ele>
        <time>2014-09-04T09:58:57Z</time>
      </trkpt>
      <trkpt lat="42.8341" lon="-0.44203">
        <ele>2221.263428</ele>
        <time>2014-09-04T09:59:09Z</time>
      </trkpt>
      <trkpt lat="42.8341" lon="-0.44215">
        <ele>2217.898682</ele>
        <time>2014-09-04T09:59:54Z</time>
      </trkpt>
      <trkpt lat="42.83413" lon="-0.44227">
        <ele>2215.014893</ele>
        <time>2014-09-04T10:00:25Z</time>
      </trkpt>
      <trkpt lat="42.83415" lon="-0.44238">
        <ele>2211.650391</ele>
        <time>2014-09-04T10:00:47Z</time>
      </trkpt>
      <trkpt lat="42.83418" lon="-0.4425">
        <ele>2208.766357</ele>
        <time>2014-09-04T10:01:25Z</time>
      </trkpt>
      <trkpt lat="42.83414" lon="-0.44261">
        <ele>2206.84375</ele>
        <time>2014-09-04T10:02:15Z</time>
      </trkpt>
      <trkpt lat="42.83416" lon="-0.44267">
        <ele>2203.959717</ele>
        <time>2014-09-04T10:02:42Z</time>
      </trkpt>
      <trkpt lat="42.83412" lon="-0.44274">
        <ele>2201.556396</ele>
        <time>2014-09-04T10:03:03Z</time>
      </trkpt>
      <trkpt lat="42.83409" lon="-0.44295">
        <ele>2198.672363</ele>
        <time>2014-09-04T10:03:58Z</time>
      </trkpt>
      <trkpt lat="42.8341" lon="-0.44304">
        <ele>2195.307861</ele>
        <time>2014-09-04T10:04:23Z</time>
      </trkpt>
      <trkpt lat="42.83415" lon="-0.44311">
        <ele>2193.865967</ele>
        <time>2014-09-04T10:04:32Z</time>
      </trkpt>
      <trkpt lat="42.83417" lon="-0.44327">
        <ele>2192.424072</ele>
        <time>2014-09-04T10:04:58Z</time>
      </trkpt>
      <trkpt lat="42.83424" lon="-0.4434">
        <ele>2191.462646</ele>
        <time>2014-09-04T10:05:09Z</time>
      </trkpt>
      <trkpt lat="42.83426" lon="-0.44348">
        <ele>2191.462646</ele>
        <time>2014-09-04T10:05:17Z</time>
      </trkpt>
      <trkpt lat="42.83422" lon="-0.44351">
        <ele>2189.059326</ele>
        <time>2014-09-04T10:05:31Z</time>
      </trkpt>
      <trkpt lat="42.83417" lon="-0.44359">
        <ele>2185.69458</ele>
        <time>2014-09-04T10:05:52Z</time>
      </trkpt>
      <trkpt lat="42.834" lon="-0.44345">
        <ele>2183.771973</ele>
        <time>2014-09-04T10:06:20Z</time>
      </trkpt>
      <trkpt lat="42.83396" lon="-0.44346">
        <ele>2183.29126</ele>
        <time>2014-09-04T10:06:28Z</time>
      </trkpt>
      <trkpt lat="42.83403" lon="-0.44365">
        <ele>2179.926758</ele>
        <time>2014-09-04T10:06:51Z</time>
      </trkpt>
      <trkpt lat="42.83403" lon="-0.44369">
        <ele>2180.407471</ele>
        <time>2014-09-04T10:06:59Z</time>
      </trkpt>
      <trkpt lat="42.83405" lon="-0.44373">
        <ele>2179.926758</ele>
        <time>2014-09-04T10:07:16Z</time>
      </trkpt>
      <trkpt lat="42.83392" lon="-0.4437">
        <ele>2176.562256</ele>
        <time>2014-09-04T10:07:47Z</time>
      </trkpt>
      <trkpt lat="42.83388" lon="-0.44366">
        <ele>2173.197754</ele>
        <time>2014-09-04T10:08:09Z</time>
      </trkpt>
    </trkseg>
  </trk>
  <trk>
    <name><![CDATA[ACTIVE LOG 004]]></name>
    <trkseg>
      <trkpt lat="42.8338" lon="-0.44351">
        <ele>2171.755371</ele>
        <time>2014-09-04T10:08:32Z</time>
      </trkpt>
    </trkseg>
  </trk>
  <trk>
    <name><![CDATA[ACTIVE LOG 005]]></name>
    <trkseg>
      <trkpt lat="42.83383" lon="-0.44384">
        <ele>2172.236328</ele>
        <time>2014-09-04T10:08:34Z</time>
      </trkpt>
      <trkpt lat="42.83379" lon="-0.44397">
        <ele>2171.274658</ele>
        <time>2014-09-04T10:09:03Z</time>
      </trkpt>
      <trkpt lat="42.83369" lon="-0.44409">
        <ele>2169.832764</ele>
        <time>2014-09-04T10:09:24Z</time>
      </trkpt>
      <trkpt lat="42.83369" lon="-0.44421">
        <ele>2171.274658</ele>
        <time>2014-09-04T10:09:38Z</time>
      </trkpt>
      <trkpt lat="42.83369" lon="-0.44424">
        <ele>2172.717041</ele>
        <time>2014-09-04T10:09:41Z</time>
      </trkpt>
      <trkpt lat="42.8337" lon="-0.44436">
        <ele>2174.639648</ele>
        <time>2014-09-04T10:09:54Z</time>
      </trkpt>
      <trkpt lat="42.83373" lon="-0.44447">
        <ele>2175.60083</ele>
        <time>2014-09-04T10:10:05Z</time>
      </trkpt>
      <trkpt lat="42.83366" lon="-0.44464">
        <ele>2176.562256</ele>
        <time>2014-09-04T10:10:22Z</time>
      </trkpt>
      <trkpt lat="42.83365" lon="-0.44464">
        <ele>2176.081543</ele>
        <time>2014-09-04T10:10:33Z</time>
      </trkpt>
      <trkpt lat="42.8337" lon="-0.44483">
        <ele>2173.678223</ele>
        <time>2014-09-04T10:10:51Z</time>
      </trkpt>
      <trkpt lat="42.83377" lon="-0.44501">
        <ele>2170.794189</ele>
        <time>2014-09-04T10:11:08Z</time>
      </trkpt>
      <trkpt lat="42.83377" lon="-0.44511">
        <ele>2170.313477</ele>
        <time>2014-09-04T10:11:15Z</time>
      </trkpt>
      <trkpt lat="42.83382" lon="-0.44519">
        <ele>2169.832764</ele>
        <time>2014-09-04T10:11:22Z</time>
      </trkpt>
      <trkpt lat="42.83388" lon="-0.44525">
        <ele>2169.832764</ele>
        <time>2014-09-04T10:11:29Z</time>
      </trkpt>
      <trkpt lat="42.8341" lon="-0.44531">
        <ele>2168.871582</ele>
        <time>2014-09-04T10:11:48Z</time>
      </trkpt>
      <trkpt lat="42.83411" lon="-0.44531">
        <ele>2169.352295</ele>
        <time>2014-09-04T10:11:49Z</time>
      </trkpt>
      <trkpt lat="42.83425" lon="-0.44533">
        <ele>2170.313477</ele>
        <time>2014-09-04T10:12:01Z</time>
      </trkpt>
      <trkpt lat="42.83429" lon="-0.44549">
        <ele>2171.274658</ele>
        <time>2014-09-04T10:12:14Z</time>
      </trkpt>
      <trkpt lat="42.8343" lon="-0.44554">
        <ele>2172.236328</ele>
        <time>2014-09-04T10:12:29Z</time>
      </trkpt>
      <trkpt lat="42.83431" lon="-0.44554">
        <ele>2171.274658</ele>
        <time>2014-09-04T10:13:06Z</time>
      </trkpt>
      <trkpt lat="42.83431" lon="-0.44554">
        <ele>2170.794189</ele>
        <time>2014-09-04T10:13:47Z</time>
      </trkpt>
      <trkpt lat="42.83431" lon="-0.44559">
        <ele>2169.832764</ele>
        <time>2014-09-04T10:14:08Z</time>
      </trkpt>
      <trkpt lat="42.83436" lon="-0.44565">
        <ele>2167.429443</ele>
        <time>2014-09-04T10:14:24Z</time>
      </trkpt>
      <trkpt lat="42.83438" lon="-0.44566">
        <ele>2165.987549</ele>
        <time>2014-09-04T10:14:29Z</time>
      </trkpt>
      <trkpt lat="42.83444" lon="-0.44568">
        <ele>2163.10376</ele>
        <time>2014-09-04T10:14:46Z</time>
      </trkpt>
      <trkpt lat="42.8345" lon="-0.44573">
        <ele>2161.181152</ele>
        <time>2014-09-04T10:15:03Z</time>
      </trkpt>
      <trkpt lat="42.83454" lon="-0.44578">
        <ele>2157.81665</ele>
        <time>2014-09-04T10:15:17Z</time>
      </trkpt>
      <trkpt lat="42.83459" lon="-0.44581">
        <ele>2156.374512</ele>
        <time>2014-09-04T10:15:25Z</time>
      </trkpt>
      <trkpt lat="42.83472" lon="-0.44592">
        <ele>2153.971191</ele>
        <time>2014-09-04T10:15:43Z</time>
      </trkpt>
      <trkpt lat="42.83478" lon="-0.44594">
        <ele>2150.606445</ele>
        <time>2014-09-04T10:15:51Z</time>
      </trkpt>
      <trkpt lat="42.83478" lon="-0.44594">
        <ele>2150.606445</ele>
        <time>2014-09-04T10:15:52Z</time>
      </trkpt>
      <trkpt lat="42.83487" lon="-0.44598">
        <ele>2147.722656</ele>
        <time>2014-09-04T10:16:05Z</time>
      </trkpt>
      <trkpt lat="42.83499" lon="-0.44596">
        <ele>2144.35791</ele>
        <time>2014-09-04T10:16:25Z</time>
      </trkpt>
      <trkpt lat="42.83501" lon="-0.44602">
        <ele>2142.916016</ele>
        <time>2014-09-04T10:16:39Z</time>
      </trkpt>
      <trkpt lat="42.83495" lon="-0.44615">
        <ele>2141.474121</ele>
        <time>2014-09-04T10:16:56Z</time>
      </trkpt>
      <trkpt lat="42.83487" lon="-0.44628">
        <ele>2137.628662</ele>
        <time>2014-09-04T10:17:11Z</time>
      </trkpt>
      <trkpt lat="42.83485" lon="-0.44631">
        <ele>2137.147949</ele>
        <time>2014-09-04T10:17:15Z</time>
      </trkpt>
      <trkpt lat="42.83464" lon="-0.44646">
        <ele>2135.706055</ele>
        <time>2014-09-04T10:17:38Z</time>
      </trkpt>
      <trkpt lat="42.83452" lon="-0.44653">
        <ele>2132.822021</ele>
        <time>2014-09-04T10:17:54Z</time>
      </trkpt>
      <trkpt lat="42.83445" lon="-0.4466">
        <ele>2130.899658</ele>
        <time>2014-09-04T10:18:08Z</time>
      </trkpt>
      <trkpt lat="42.83443" lon="-0.44662">
        <ele>2130.418945</ele>
        <time>2014-09-04T10:18:22Z</time>
      </trkpt>
      <trkpt lat="42.83437" lon="-0.44668">
        <ele>2128.496338</ele>
        <time>2014-09-04T10:18:36Z</time>
      </trkpt>
      <trkpt lat="42.83435" lon="-0.44671">
        <ele>2127.054443</ele>
        <time>2014-09-04T10:18:42Z</time>
      </trkpt>
      <trkpt lat="42.83426" lon="-0.44683">
        <ele>2124.651123</ele>
        <time>2014-09-04T10:19:01Z</time>
      </trkpt>
      <trkpt lat="42.83415" lon="-0.44694">
        <ele>2123.689453</ele>
        <time>2014-09-04T10:19:18Z</time>
      </trkpt>
      <trkpt lat="42.83403" lon="-0.44698">
        <ele>2123.689453</ele>
        <time>2014-09-04T10:19:32Z</time>
      </trkpt>
      <trkpt lat="42.83394" lon="-0.44713">
        <ele>2122.728271</ele>
        <time>2014-09-04T10:19:51Z</time>
      </trkpt>
      <trkpt lat="42.83392" lon="-0.44715">
        <ele>2121.286133</ele>
        <time>2014-09-04T10:19:54Z</time>
      </trkpt>
      <trkpt lat="42.83387" lon="-0.4472">
        <ele>2119.844238</ele>
        <time>2014-09-04T10:20:05Z</time>
      </trkpt>
      <trkpt lat="42.83379" lon="-0.44727">
        <ele>2118.402344</ele>
        <time>2014-09-04T10:20:22Z</time>
      </trkpt>
      <trkpt lat="42.8337" lon="-0.44729">
        <ele>2116.960449</ele>
        <time>2014-09-04T10:20:35Z</time>
      </trkpt>
      <trkpt lat="42.83363" lon="-0.44738">
        <ele>2114.557129</ele>
        <time>2014-09-04T10:20:51Z</time>
      </trkpt>
      <trkpt lat="42.83353" lon="-0.4474">
        <ele>2115.037842</ele>
        <time>2014-09-04T10:21:05Z</time>
      </trkpt>
      <trkpt lat="42.83348" lon="-0.44746">
        <ele>2113.115234</ele>
        <time>2014-09-04T10:21:21Z</time>
      </trkpt>
      <trkpt lat="42.83344" lon="-0.44752">
        <ele>2112.634521</ele>
        <time>2014-09-04T10:21:34Z</time>
      </trkpt>
      <trkpt lat="42.83342" lon="-0.44764">
        <ele>2110.231201</ele>
        <time>2014-09-04T10:21:48Z</time>
      </trkpt>
      <trkpt lat="42.83342" lon="-0.44769">
        <ele>2109.27002</ele>
        <time>2014-09-04T10:21:53Z</time>
      </trkpt>
      <trkpt lat="42.8334" lon="-0.44779">
        <ele>2105.905029</ele>
        <time>2014-09-04T10:22:08Z</time>
      </trkpt>
      <trkpt lat="42.83334" lon="-0.44787">
        <ele>2105.424561</ele>
        <time>2014-09-04T10:22:24Z</time>
      </trkpt>
      <trkpt lat="42.83332" lon="-0.44792">
        <ele>2103.982666</ele>
        <time>2014-09-04T10:22:40Z</time>
      </trkpt>
      <trkpt lat="42.8333" lon="-0.44801">
        <ele>2103.02124</ele>
        <time>2014-09-04T10:22:53Z</time>
      </trkpt>
      <trkpt lat="42.83331" lon="-0.44811">
        <ele>2101.098633</ele>
        <time>2014-09-04T10:23:07Z</time>
      </trkpt>
      <trkpt lat="42.83331" lon="-0.44815">
        <ele>2101.579346</ele>
        <time>2014-09-04T10:23:12Z</time>
      </trkpt>
      <trkpt lat="42.83333" lon="-0.44825">
        <ele>2100.137451</ele>
        <time>2014-09-04T10:23:26Z</time>
      </trkpt>
      <trkpt lat="42.83335" lon="-0.44831">
        <ele>2098.695313</ele>
        <time>2014-09-04T10:23:42Z</time>
      </trkpt>
      <trkpt lat="42.83337" lon="-0.44834">
        <ele>2098.2146</ele>
        <time>2014-09-04T10:23:53Z</time>
      </trkpt>
      <trkpt lat="42.83346" lon="-0.44852">
        <ele>2098.2146</ele>
        <time>2014-09-04T10:24:12Z</time>
      </trkpt>
      <trkpt lat="42.83357" lon="-0.4487">
        <ele>2096.772705</ele>
        <time>2014-09-04T10:24:31Z</time>
      </trkpt>
      <trkpt lat="42.83359" lon="-0.44874">
        <ele>2096.772705</ele>
        <time>2014-09-04T10:24:36Z</time>
      </trkpt>
      <trkpt lat="42.83361" lon="-0.44883">
        <ele>2096.772705</ele>
        <time>2014-09-04T10:24:43Z</time>
      </trkpt>
      <trkpt lat="42.83363" lon="-0.44904">
        <ele>2093.888916</ele>
        <time>2014-09-04T10:25:02Z</time>
      </trkpt>
      <trkpt lat="42.8337" lon="-0.44917">
        <ele>2092.92749</ele>
        <time>2014-09-04T10:25:18Z</time>
      </trkpt>
      <trkpt lat="42.83376" lon="-0.44925">
        <ele>2091.485352</ele>
        <time>2014-09-04T10:25:32Z</time>
      </trkpt>
      <trkpt lat="42.83388" lon="-0.44931">
        <ele>2088.601563</ele>
        <time>2014-09-04T10:25:49Z</time>
      </trkpt>
      <trkpt lat="42.83396" lon="-0.44943">
        <ele>2088.601563</ele>
        <time>2014-09-04T10:26:06Z</time>
      </trkpt>
      <trkpt lat="42.83398" lon="-0.44947">
        <ele>2088.12085</ele>
        <time>2014-09-04T10:26:10Z</time>
      </trkpt>
      <trkpt lat="42.83415" lon="-0.44966">
        <ele>2087.640137</ele>
        <time>2014-09-04T10:26:31Z</time>
      </trkpt>
      <trkpt lat="42.83419" lon="-0.44972">
        <ele>2087.159424</ele>
        <time>2014-09-04T10:26:36Z</time>
      </trkpt>
      <trkpt lat="42.83425" lon="-0.44976">
        <ele>2087.159424</ele>
        <time>2014-09-04T10:26:55Z</time>
      </trkpt>
      <trkpt lat="42.83426" lon="-0.44977">
        <ele>2086.678711</ele>
        <time>2014-09-04T10:27:19Z</time>
      </trkpt>
      <trkpt lat="42.83431" lon="-0.44982">
        <ele>2086.198242</ele>
        <time>2014-09-04T10:27:40Z</time>
      </trkpt>
      <trkpt lat="42.83433" lon="-0.4498">
        <ele>2085.717529</ele>
        <time>2014-09-04T10:27:59Z</time>
      </trkpt>
      <trkpt lat="42.83441" lon="-0.44988">
        <ele>2085.236816</ele>
        <time>2014-09-04T10:28:13Z</time>
      </trkpt>
      <trkpt lat="42.83444" lon="-0.44989">
        <ele>2085.236816</ele>
        <time>2014-09-04T10:28:16Z</time>
      </trkpt>
      <trkpt lat="42.83447" lon="-0.4499">
        <ele>2084.756348</ele>
        <time>2014-09-04T10:28:20Z</time>
      </trkpt>
      <trkpt lat="42.83454" lon="-0.44997">
        <ele>2084.756348</ele>
        <time>2014-09-04T10:28:32Z</time>
      </trkpt>
      <trkpt lat="42.83458" lon="-0.45001">
        <ele>2084.756348</ele>
        <time>2014-09-04T10:28:39Z</time>
      </trkpt>
      <trkpt lat="42.83474" lon="-0.45019">
        <ele>2084.275635</ele>
        <time>2014-09-04T10:28:59Z</time>
      </trkpt>
      <trkpt lat="42.83493" lon="-0.45047">
        <ele>2083.794922</ele>
        <time>2014-09-04T10:29:23Z</time>
      </trkpt>
      <trkpt lat="42.8351" lon="-0.4506">
        <ele>2083.794922</ele>
        <time>2014-09-04T10:29:41Z</time>
      </trkpt>
      <trkpt lat="42.8352" lon="-0.45073">
        <ele>2082.353027</ele>
        <time>2014-09-04T10:29:59Z</time>
      </trkpt>
      <trkpt lat="42.83525" lon="-0.4509">
        <ele>2080.43042</ele>
        <time>2014-09-04T10:30:16Z</time>
      </trkpt>
      <trkpt lat="42.83531" lon="-0.45102">
        <ele>2078.988281</ele>
        <time>2014-09-04T10:30:31Z</time>
      </trkpt>
      <trkpt lat="42.83535" lon="-0.45114">
        <ele>2077.546387</ele>
        <time>2014-09-04T10:30:47Z</time>
      </trkpt>
      <trkpt lat="42.8354" lon="-0.45122">
        <ele>2074.662354</ele>
        <time>2014-09-04T10:31:02Z</time>
      </trkpt>
      <trkpt lat="42.83546" lon="-0.45132">
        <ele>2072.739746</ele>
        <time>2014-09-04T10:31:18Z</time>
      </trkpt>
      <trkpt lat="42.83546" lon="-0.45133">
        <ele>2072.259033</ele>
        <time>2014-09-04T10:31:19Z</time>
      </trkpt>
      <trkpt lat="42.83549" lon="-0.4514">
        <ele>2071.77832</ele>
        <time>2014-09-04T10:31:24Z</time>
      </trkpt>
      <trkpt lat="42.83553" lon="-0.45154">
        <ele>2069.375244</ele>
        <time>2014-09-04T10:31:35Z</time>
      </trkpt>
      <trkpt lat="42.83557" lon="-0.45163">
        <ele>2069.375244</ele>
        <time>2014-09-04T10:31:42Z</time>
      </trkpt>
      <trkpt lat="42.8357" lon="-0.45178">
        <ele>2069.375244</ele>
        <time>2014-09-04T10:31:59Z</time>
      </trkpt>
      <trkpt lat="42.83583" lon="-0.45188">
        <ele>2072.259033</ele>
        <time>2014-09-04T10:32:17Z</time>
      </trkpt>
      <trkpt lat="42.83595" lon="-0.45191">
        <ele>2074.662354</ele>
        <time>2014-09-04T10:32:33Z</time>
      </trkpt>
      <trkpt lat="42.83601" lon="-0.45196">
        <ele>2074.181641</ele>
        <time>2014-09-04T10:32:50Z</time>
      </trkpt>
      <trkpt lat="42.8361" lon="-0.45197">
        <ele>2071.77832</ele>
        <time>2014-09-04T10:33:06Z</time>
      </trkpt>
      <trkpt lat="42.83616" lon="-0.452">
        <ele>2070.336426</ele>
        <time>2014-09-04T10:33:20Z</time>
      </trkpt>
      <trkpt lat="42.83626" lon="-0.45208">
        <ele>2068.413818</ele>
        <time>2014-09-04T10:33:45Z</time>
      </trkpt>
      <trkpt lat="42.83646" lon="-0.4521">
        <ele>2066.971924</ele>
        <time>2014-09-04T10:34:04Z</time>
      </trkpt>
      <trkpt lat="42.83664" lon="-0.45209">
        <ele>2065.530029</ele>
        <time>2014-09-04T10:34:21Z</time>
      </trkpt>
      <trkpt lat="42.83681" lon="-0.45217">
        <ele>2064.568604</ele>
        <time>2014-09-04T10:34:38Z</time>
      </trkpt>
      <trkpt lat="42.83696" lon="-0.45224">
        <ele>2063.126709</ele>
        <time>2014-09-04T10:34:53Z</time>
      </trkpt>
      <trkpt lat="42.83707" lon="-0.45227">
        <ele>2063.607178</ele>
        <time>2014-09-04T10:35:05Z</time>
      </trkpt>
      <trkpt lat="42.83708" lon="-0.45229">
        <ele>2063.126709</ele>
        <time>2014-09-04T10:35:07Z</time>
      </trkpt>
      <trkpt lat="42.83727" lon="-0.45245">
        <ele>2063.126709</ele>
        <time>2014-09-04T10:35:28Z</time>
      </trkpt>
      <trkpt lat="42.83735" lon="-0.45253">
        <ele>2062.165283</ele>
        <time>2014-09-04T10:35:37Z</time>
      </trkpt>
      <trkpt lat="42.83745" lon="-0.45272">
        <ele>2059.761719</ele>
        <time>2014-09-04T10:35:54Z</time>
      </trkpt>
      <trkpt lat="42.83754" lon="-0.45286">
        <ele>2057.358643</ele>
        <time>2014-09-04T10:36:11Z</time>
      </trkpt>
      <trkpt lat="42.83763" lon="-0.45304">
        <ele>2054.474609</ele>
        <time>2014-09-04T10:36:29Z</time>
      </trkpt>
      <trkpt lat="42.83769" lon="-0.45319">
        <ele>2052.552002</ele>
        <time>2014-09-04T10:36:44Z</time>
      </trkpt>
      <trkpt lat="42.83777" lon="-0.4534">
        <ele>2050.148926</ele>
        <time>2014-09-04T10:37:03Z</time>
      </trkpt>
      <trkpt lat="42.8378" lon="-0.45354">
        <ele>2046.78418</ele>
        <time>2014-09-04T10:37:15Z</time>
      </trkpt>
      <trkpt lat="42.83787" lon="-0.45376">
        <ele>2044.861572</ele>
        <time>2014-09-04T10:37:33Z</time>
      </trkpt>
      <trkpt lat="42.83793" lon="-0.45399">
        <ele>2043.419434</ele>
        <time>2014-09-04T10:37:51Z</time>
      </trkpt>
      <trkpt lat="42.83796" lon="-0.45413">
        <ele>2040.054932</ele>
        <time>2014-09-04T10:38:06Z</time>
      </trkpt>
      <trkpt lat="42.83799" lon="-0.45427">
        <ele>2037.651611</ele>
        <time>2014-09-04T10:38:23Z</time>
      </trkpt>
      <trkpt lat="42.83801" lon="-0.45434">
        <ele>2035.729004</ele>
        <time>2014-09-04T10:38:36Z</time>
      </trkpt>
      <trkpt lat="42.83805" lon="-0.45448">
        <ele>2032.844971</ele>
        <time>2014-09-04T10:38:50Z</time>
      </trkpt>
      <trkpt lat="42.8381" lon="-0.4547">
        <ele>2030.441895</ele>
        <time>2014-09-04T10:39:11Z</time>
      </trkpt>
      <trkpt lat="42.83813" lon="-0.45483">
        <ele>2028.519287</ele>
        <time>2014-09-04T10:39:28Z</time>
      </trkpt>
      <trkpt lat="42.83815" lon="-0.45488">
        <ele>2025.63501</ele>
        <time>2014-09-04T10:39:41Z</time>
      </trkpt>
      <trkpt lat="42.83818" lon="-0.45501">
        <ele>2023.712402</ele>
        <time>2014-09-04T10:39:58Z</time>
      </trkpt>
      <trkpt lat="42.83824" lon="-0.45516">
        <ele>2020.828613</ele>
        <time>2014-09-04T10:40:17Z</time>
      </trkpt>
      <trkpt lat="42.83828" lon="-0.45524">
        <ele>2017.463867</ele>
        <time>2014-09-04T10:40:29Z</time>
      </trkpt>
      <trkpt lat="42.83834" lon="-0.45535">
        <ele>2016.021973</ele>
        <time>2014-09-04T10:40:44Z</time>
      </trkpt>
      <trkpt lat="42.83842" lon="-0.45541">
        <ele>2012.657471</ele>
        <time>2014-09-04T10:40:58Z</time>
      </trkpt>
      <trkpt lat="42.83843" lon="-0.45544">
        <ele>2012.657471</ele>
        <time>2014-09-04T10:41:01Z</time>
      </trkpt>
      <trkpt lat="42.83847" lon="-0.45561">
        <ele>2012.176758</ele>
        <time>2014-09-04T10:41:18Z</time>
      </trkpt>
      <trkpt lat="42.83849" lon="-0.45564">
        <ele>2010.734619</ele>
        <time>2014-09-04T10:41:22Z</time>
      </trkpt>
      <trkpt lat="42.83859" lon="-0.45569">
        <ele>2008.812012</ele>
        <time>2014-09-04T10:41:36Z</time>
      </trkpt>
      <trkpt lat="42.83867" lon="-0.45581">
        <ele>2007.370117</ele>
        <time>2014-09-04T10:41:51Z</time>
      </trkpt>
      <trkpt lat="42.83871" lon="-0.45592">
        <ele>2004.486084</ele>
        <time>2014-09-04T10:42:06Z</time>
      </trkpt>
      <trkpt lat="42.8388" lon="-0.45607">
        <ele>2003.044189</ele>
        <time>2014-09-04T10:42:22Z</time>
      </trkpt>
      <trkpt lat="42.83885" lon="-0.45619">
        <ele>2001.121582</ele>
        <time>2014-09-04T10:42:34Z</time>
      </trkpt>
      <trkpt lat="42.83892" lon="-0.45629">
        <ele>1999.679688</ele>
        <time>2014-09-04T10:42:50Z</time>
      </trkpt>
      <trkpt lat="42.83894" lon="-0.45633">
        <ele>1998.237549</ele>
        <time>2014-09-04T10:43:14Z</time>
      </trkpt>
      <trkpt lat="42.83897" lon="-0.45638">
        <ele>1997.276367</ele>
        <time>2014-09-04T10:43:42Z</time>
      </trkpt>
      <trkpt lat="42.83908" lon="-0.45658">
        <ele>1993.911621</ele>
        <time>2014-09-04T10:43:59Z</time>
      </trkpt>
      <trkpt lat="42.83916" lon="-0.45673">
        <ele>1991.027588</ele>
        <time>2014-09-04T10:44:11Z</time>
      </trkpt>
      <trkpt lat="42.83932" lon="-0.45699">
        <ele>1987.663086</ele>
        <time>2014-09-04T10:44:32Z</time>
      </trkpt>
      <trkpt lat="42.83944" lon="-0.4572">
        <ele>1984.779297</ele>
        <time>2014-09-04T10:44:48Z</time>
      </trkpt>
      <trkpt lat="42.83956" lon="-0.45737">
        <ele>1980.934082</ele>
        <time>2014-09-04T10:45:02Z</time>
      </trkpt>
      <trkpt lat="42.83956" lon="-0.45738">
        <ele>1981.414551</ele>
        <time>2014-09-04T10:45:03Z</time>
      </trkpt>
      <trkpt lat="42.83959" lon="-0.45741">
        <ele>1979.972412</ele>
        <time>2014-09-04T10:45:06Z</time>
      </trkpt>
      <trkpt lat="42.83972" lon="-0.45761">
        <ele>1976.60791</ele>
        <time>2014-09-04T10:45:24Z</time>
      </trkpt>
      <trkpt lat="42.83982" lon="-0.45766">
        <ele>1976.60791</ele>
        <time>2014-09-04T10:45:34Z</time>
      </trkpt>
      <trkpt lat="42.83984" lon="-0.4577">
        <ele>1974.685303</ele>
        <time>2014-09-04T10:45:40Z</time>
      </trkpt>
      <trkpt lat="42.83985" lon="-0.45774">
        <ele>1973.243408</ele>
        <time>2014-09-04T10:45:44Z</time>
      </trkpt>
      <trkpt lat="42.83993" lon="-0.45784">
        <ele>1971.80127</ele>
        <time>2014-09-04T10:45:55Z</time>
      </trkpt>
      <trkpt lat="42.83997" lon="-0.45785">
        <ele>1970.359375</ele>
        <time>2014-09-04T10:45:59Z</time>
      </trkpt>
      <trkpt lat="42.84011" lon="-0.45799">
        <ele>1966.994873</ele>
        <time>2014-09-04T10:46:18Z</time>
      </trkpt>
      <trkpt lat="42.84015" lon="-0.45801">
        <ele>1966.51416</ele>
        <time>2014-09-04T10:46:23Z</time>
      </trkpt>
      <trkpt lat="42.84014" lon="-0.45807">
        <ele>1966.033447</ele>
        <time>2014-09-04T10:46:37Z</time>
      </trkpt>
      <trkpt lat="42.84001" lon="-0.45811">
        <ele>1962.187988</ele>
        <time>2014-09-04T10:46:52Z</time>
      </trkpt>
      <trkpt lat="42.83998" lon="-0.45819">
        <ele>1959.304199</ele>
        <time>2014-09-04T10:47:02Z</time>
      </trkpt>
      <trkpt lat="42.83995" lon="-0.45832">
        <ele>1956.420166</ele>
        <time>2014-09-04T10:47:20Z</time>
      </trkpt>
      <trkpt lat="42.83998" lon="-0.45837">
        <ele>1954.978271</ele>
        <time>2014-09-04T10:47:26Z</time>
      </trkpt>
      <trkpt lat="42.84011" lon="-0.45859">
        <ele>1952.574951</ele>
        <time>2014-09-04T10:47:46Z</time>
      </trkpt>
      <trkpt lat="42.84019" lon="-0.45874">
        <ele>1949.210449</ele>
        <time>2014-09-04T10:48:01Z</time>
      </trkpt>
      <trkpt lat="42.84021" lon="-0.45888">
        <ele>1946.326416</ele>
        <time>2014-09-04T10:48:14Z</time>
      </trkpt>
      <trkpt lat="42.84023" lon="-0.45898">
        <ele>1943.442383</ele>
        <time>2014-09-04T10:48:23Z</time>
      </trkpt>
      <trkpt lat="42.84029" lon="-0.45911">
        <ele>1940.077881</ele>
        <time>2014-09-04T10:48:40Z</time>
      </trkpt>
      <trkpt lat="42.84032" lon="-0.45919">
        <ele>1937.193848</ele>
        <time>2014-09-04T10:48:50Z</time>
      </trkpt>
      <trkpt lat="42.84043" lon="-0.45924">
        <ele>1933.829346</ele>
        <time>2014-09-04T10:49:05Z</time>
      </trkpt>
      <trkpt lat="42.84049" lon="-0.45922">
        <ele>1931.425781</ele>
        <time>2014-09-04T10:49:15Z</time>
      </trkpt>
      <trkpt lat="42.84059" lon="-0.45919">
        <ele>1929.983887</ele>
        <time>2014-09-04T10:49:28Z</time>
      </trkpt>
      <trkpt lat="42.84075" lon="-0.4591">
        <ele>1927.100098</ele>
        <time>2014-09-04T10:49:45Z</time>
      </trkpt>
      <trkpt lat="42.84095" lon="-0.45909">
        <ele>1924.696777</ele>
        <time>2014-09-04T10:50:06Z</time>
      </trkpt>
      <trkpt lat="42.84109" lon="-0.4591">
        <ele>1921.332031</ele>
        <time>2014-09-04T10:50:20Z</time>
      </trkpt>
      <trkpt lat="42.84128" lon="-0.45908">
        <ele>1918.448242</ele>
        <time>2014-09-04T10:50:37Z</time>
      </trkpt>
      <trkpt lat="42.84146" lon="-0.4591">
        <ele>1915.564209</ele>
        <time>2014-09-04T10:50:53Z</time>
      </trkpt>
      <trkpt lat="42.84164" lon="-0.45911">
        <ele>1912.199463</ele>
        <time>2014-09-04T10:51:10Z</time>
      </trkpt>
      <trkpt lat="42.84182" lon="-0.45911">
        <ele>1909.315674</ele>
        <time>2014-09-04T10:51:27Z</time>
      </trkpt>
      <trkpt lat="42.84208" lon="-0.45911">
        <ele>1905.950928</ele>
        <time>2014-09-04T10:51:50Z</time>
      </trkpt>
      <trkpt lat="42.84234" lon="-0.45909">
        <ele>1903.547852</ele>
        <time>2014-09-04T10:52:14Z</time>
      </trkpt>
      <trkpt lat="42.84249" lon="-0.45907">
        <ele>1900.18335</ele>
        <time>2014-09-04T10:52:28Z</time>
      </trkpt>
      <trkpt lat="42.84266" lon="-0.45908">
        <ele>1899.702393</ele>
        <time>2014-09-04T10:52:44Z</time>
      </trkpt>
      <trkpt lat="42.84271" lon="-0.45906">
        <ele>1899.22168</ele>
        <time>2014-09-04T10:52:49Z</time>
      </trkpt>
      <trkpt lat="42.84277" lon="-0.45906">
        <ele>1897.779785</ele>
        <time>2014-09-04T10:52:55Z</time>
      </trkpt>
      <trkpt lat="42.84294" lon="-0.4591">
        <ele>1895.857178</ele>
        <time>2014-09-04T10:53:11Z</time>
      </trkpt>
      <trkpt lat="42.84308" lon="-0.45912">
        <ele>1892.492676</ele>
        <time>2014-09-04T10:53:24Z</time>
      </trkpt>
      <trkpt lat="42.84328" lon="-0.4591">
        <ele>1890.569824</ele>
        <time>2014-09-04T10:53:42Z</time>
      </trkpt>
      <trkpt lat="42.84347" lon="-0.45907">
        <ele>1887.205322</ele>
        <time>2014-09-04T10:54:00Z</time>
      </trkpt>
      <trkpt lat="42.84355" lon="-0.45899">
        <ele>1884.802246</ele>
        <time>2014-09-04T10:54:14Z</time>
      </trkpt>
      <trkpt lat="42.84362" lon="-0.45889">
        <ele>1882.398682</ele>
        <time>2014-09-04T10:54:27Z</time>
      </trkpt>
      <trkpt lat="42.8437" lon="-0.45879">
        <ele>1879.995361</ele>
        <time>2014-09-04T10:54:39Z</time>
      </trkpt>
      <trkpt lat="42.84372" lon="-0.45877">
        <ele>1879.033936</ele>
        <time>2014-09-04T10:54:41Z</time>
      </trkpt>
      <trkpt lat="42.84387" lon="-0.45873">
        <ele>1877.111572</ele>
        <time>2014-09-04T10:54:57Z</time>
      </trkpt>
      <trkpt lat="42.84395" lon="-0.45873">
        <ele>1876.150146</ele>
        <time>2014-09-04T10:55:05Z</time>
      </trkpt>
      <trkpt lat="42.84406" lon="-0.45861">
        <ele>1873.266357</ele>
        <time>2014-09-04T10:55:22Z</time>
      </trkpt>
      <trkpt lat="42.84406" lon="-0.45861">
        <ele>1873.266357</ele>
        <time>2014-09-04T10:55:23Z</time>
      </trkpt>
      <trkpt lat="42.84414" lon="-0.45851">
        <ele>1869.901611</ele>
        <time>2014-09-04T10:55:36Z</time>
      </trkpt>
      <trkpt lat="42.84424" lon="-0.4584">
        <ele>1866.536865</ele>
        <time>2014-09-04T10:55:51Z</time>
      </trkpt>
      <trkpt lat="42.84424" lon="-0.45825">
        <ele>1866.536865</ele>
        <time>2014-09-04T10:56:03Z</time>
      </trkpt>
      <trkpt lat="42.84425" lon="-0.45812">
        <ele>1865.094971</ele>
        <time>2014-09-04T10:56:15Z</time>
      </trkpt>
      <trkpt lat="42.8443" lon="-0.45802">
        <ele>1862.69165</ele>
        <time>2014-09-04T10:56:25Z</time>
      </trkpt>
      <trkpt lat="42.84446" lon="-0.45804">
        <ele>1860.28833</ele>
        <time>2014-09-04T10:56:38Z</time>
      </trkpt>
      <trkpt lat="42.84447" lon="-0.45804">
        <ele>1859.327148</ele>
        <time>2014-09-04T10:56:39Z</time>
      </trkpt>
      <trkpt lat="42.84462" lon="-0.45806">
        <ele>1858.365723</ele>
        <time>2014-09-04T10:56:56Z</time>
      </trkpt>
      <trkpt lat="42.84471" lon="-0.45809">
        <ele>1856.443115</ele>
        <time>2014-09-04T10:57:11Z</time>
      </trkpt>
      <trkpt lat="42.84475" lon="-0.45809">
        <ele>1855.481934</ele>
        <time>2014-09-04T10:57:17Z</time>
      </trkpt>
      <trkpt lat="42.84479" lon="-0.45803">
        <ele>1854.040039</ele>
        <time>2014-09-04T10:57:27Z</time>
      </trkpt>
      <trkpt lat="42.84484" lon="-0.45801">
        <ele>1851.155762</ele>
        <time>2014-09-04T10:57:37Z</time>
      </trkpt>
      <trkpt lat="42.84495" lon="-0.45794">
        <ele>1848.271729</ele>
        <time>2014-09-04T10:57:56Z</time>
      </trkpt>
      <trkpt lat="42.84496" lon="-0.45793">
        <ele>1847.79126</ele>
        <time>2014-09-04T10:57:57Z</time>
      </trkpt>
      <trkpt lat="42.84503" lon="-0.45791">
        <ele>1845.868652</ele>
        <time>2014-09-04T10:58:11Z</time>
      </trkpt>
      <trkpt lat="42.84503" lon="-0.45794">
        <ele>1845.868652</ele>
        <time>2014-09-04T10:58:13Z</time>
      </trkpt>
      <trkpt lat="42.84502" lon="-0.45814">
        <ele>1843.465332</ele>
        <time>2014-09-04T10:58:32Z</time>
      </trkpt>
      <trkpt lat="42.845" lon="-0.45818">
        <ele>1841.542725</ele>
        <time>2014-09-04T10:58:39Z</time>
      </trkpt>
      <trkpt lat="42.8449" lon="-0.45826">
        <ele>1841.542725</ele>
        <time>2014-09-04T10:58:57Z</time>
      </trkpt>
      <trkpt lat="42.84487" lon="-0.45827">
        <ele>1840.581299</ele>
        <time>2014-09-04T10:59:39Z</time>
      </trkpt>
      <trkpt lat="42.84485" lon="-0.45838">
        <ele>1838.178223</ele>
        <time>2014-09-04T11:00:19Z</time>
      </trkpt>
      <trkpt lat="42.84483" lon="-0.45853">
        <ele>1835.774658</ele>
        <time>2014-09-04T11:00:34Z</time>
      </trkpt>
      <trkpt lat="42.8448" lon="-0.45861">
        <ele>1835.293945</ele>
        <time>2014-09-04T11:00:43Z</time>
      </trkpt>
      <trkpt lat="42.84482" lon="-0.45876">
        <ele>1832.890625</ele>
        <time>2014-09-04T11:01:00Z</time>
      </trkpt>
      <trkpt lat="42.84481" lon="-0.45893">
        <ele>1830.487549</ele>
        <time>2014-09-04T11:01:18Z</time>
      </trkpt>
      <trkpt lat="42.8448" lon="-0.45904">
        <ele>1827.123047</ele>
        <time>2014-09-04T11:01:28Z</time>
      </trkpt>
      <trkpt lat="42.8448" lon="-0.45924">
        <ele>1824.239014</ele>
        <time>2014-09-04T11:01:46Z</time>
      </trkpt>
      <trkpt lat="42.84479" lon="-0.45941">
        <ele>1821.835693</ele>
        <time>2014-09-04T11:01:59Z</time>
      </trkpt>
      <trkpt lat="42.84478" lon="-0.45951">
        <ele>1820.393799</ele>
        <time>2014-09-04T11:02:09Z</time>
      </trkpt>
      <trkpt lat="42.84473" lon="-0.45956">
        <ele>1818.95166</ele>
        <time>2014-09-04T11:02:17Z</time>
      </trkpt>
      <trkpt lat="42.84468" lon="-0.45959">
        <ele>1817.990234</ele>
        <time>2014-09-04T11:02:21Z</time>
      </trkpt>
      <trkpt lat="42.84453" lon="-0.45978">
        <ele>1817.029053</ele>
        <time>2014-09-04T11:02:37Z</time>
      </trkpt>
      <trkpt lat="42.84437" lon="-0.45986">
        <ele>1815.587158</ele>
        <time>2014-09-04T11:02:54Z</time>
      </trkpt>
      <trkpt lat="42.84439" lon="-0.4599">
        <ele>1812.222412</ele>
        <time>2014-09-04T11:03:05Z</time>
      </trkpt>
      <trkpt lat="42.84449" lon="-0.45984">
        <ele>1808.85791</ele>
        <time>2014-09-04T11:03:21Z</time>
      </trkpt>
      <trkpt lat="42.84447" lon="-0.45997">
        <ele>1806.45459</ele>
        <time>2014-09-04T11:03:39Z</time>
      </trkpt>
      <trkpt lat="42.84433" lon="-0.46017">
        <ele>1802.609131</ele>
        <time>2014-09-04T11:03:54Z</time>
      </trkpt>
      <trkpt lat="42.84425" lon="-0.46014">
        <ele>1799.244629</ele>
        <time>2014-09-04T11:04:09Z</time>
      </trkpt>
      <trkpt lat="42.84424" lon="-0.46016">
        <ele>1798.283203</ele>
        <time>2014-09-04T11:04:16Z</time>
      </trkpt>
      <trkpt lat="42.84416" lon="-0.46026">
        <ele>1794.918701</ele>
        <time>2014-09-04T11:04:33Z</time>
      </trkpt>
      <trkpt lat="42.84409" lon="-0.46034">
        <ele>1792.996094</ele>
        <time>2014-09-04T11:04:44Z</time>
      </trkpt>
      <trkpt lat="42.84404" lon="-0.46046">
        <ele>1792.034912</ele>
        <time>2014-09-04T11:04:56Z</time>
      </trkpt>
      <trkpt lat="42.84401" lon="-0.46059">
        <ele>1789.150879</ele>
        <time>2014-09-04T11:05:08Z</time>
      </trkpt>
      <trkpt lat="42.84396" lon="-0.46072">
        <ele>1787.70874</ele>
        <time>2014-09-04T11:05:20Z</time>
      </trkpt>
      <trkpt lat="42.84388" lon="-0.46089">
        <ele>1784.344238</ele>
        <time>2014-09-04T11:05:37Z</time>
      </trkpt>
      <trkpt lat="42.84387" lon="-0.46096">
        <ele>1781.460205</ele>
        <time>2014-09-04T11:05:45Z</time>
      </trkpt>
      <trkpt lat="42.84382" lon="-0.46115">
        <ele>1779.537598</ele>
        <time>2014-09-04T11:06:01Z</time>
      </trkpt>
      <trkpt lat="42.84381" lon="-0.46133">
        <ele>1778.095703</ele>
        <time>2014-09-04T11:06:16Z</time>
      </trkpt>
      <trkpt lat="42.8438" lon="-0.46145">
        <ele>1775.692383</ele>
        <time>2014-09-04T11:06:30Z</time>
      </trkpt>
      <trkpt lat="42.84386" lon="-0.4614">
        <ele>1773.289307</ele>
        <time>2014-09-04T11:06:40Z</time>
      </trkpt>
      <trkpt lat="42.84394" lon="-0.46128">
        <ele>1771.366211</ele>
        <time>2014-09-04T11:06:55Z</time>
      </trkpt>
      <trkpt lat="42.844" lon="-0.46121">
        <ele>1768.482422</ele>
        <time>2014-09-04T11:07:04Z</time>
      </trkpt>
      <trkpt lat="42.84408" lon="-0.46109">
        <ele>1765.11792</ele>
        <time>2014-09-04T11:07:19Z</time>
      </trkpt>
      <trkpt lat="42.84416" lon="-0.46095">
        <ele>1762.7146</ele>
        <time>2014-09-04T11:07:35Z</time>
      </trkpt>
      <trkpt lat="42.84425" lon="-0.46091">
        <ele>1760.311279</ele>
        <time>2014-09-04T11:07:46Z</time>
      </trkpt>
      <trkpt lat="42.84435" lon="-0.4609">
        <ele>1759.350098</ele>
        <time>2014-09-04T11:08:00Z</time>
      </trkpt>
      <trkpt lat="42.84444" lon="-0.46087">
        <ele>1755.985107</ele>
        <time>2014-09-04T11:08:11Z</time>
      </trkpt>
      <trkpt lat="42.84452" lon="-0.46086">
        <ele>1752.620605</ele>
        <time>2014-09-04T11:08:21Z</time>
      </trkpt>
      <trkpt lat="42.84467" lon="-0.46083">
        <ele>1749.256104</ele>
        <time>2014-09-04T11:08:38Z</time>
      </trkpt>
      <trkpt lat="42.84467" lon="-0.4609">
        <ele>1747.814209</ele>
        <time>2014-09-04T11:08:51Z</time>
      </trkpt>
      <trkpt lat="42.84466" lon="-0.46092">
        <ele>1747.333496</ele>
        <time>2014-09-04T11:08:53Z</time>
      </trkpt>
      <trkpt lat="42.84459" lon="-0.46103">
        <ele>1743.968994</ele>
        <time>2014-09-04T11:09:07Z</time>
      </trkpt>
      <trkpt lat="42.84463" lon="-0.46104">
        <ele>1742.5271</ele>
        <time>2014-09-04T11:09:13Z</time>
      </trkpt>
      <trkpt lat="42.84458" lon="-0.46117">
        <ele>1740.604248</ele>
        <time>2014-09-04T11:09:28Z</time>
      </trkpt>
      <trkpt lat="42.84457" lon="-0.46119">
        <ele>1738.681641</ele>
        <time>2014-09-04T11:09:31Z</time>
      </trkpt>
      <trkpt lat="42.84458" lon="-0.46126">
        <ele>1736.27832</ele>
        <time>2014-09-04T11:09:46Z</time>
      </trkpt>
      <trkpt lat="42.84456" lon="-0.46131">
        <ele>1734.355713</ele>
        <time>2014-09-04T11:10:01Z</time>
      </trkpt>
      <trkpt lat="42.84467" lon="-0.46127">
        <ele>1730.991211</ele>
        <time>2014-09-04T11:10:21Z</time>
      </trkpt>
      <trkpt lat="42.84479" lon="-0.46123">
        <ele>1728.587891</ele>
        <time>2014-09-04T11:10:38Z</time>
      </trkpt>
      <trkpt lat="42.84486" lon="-0.46121">
        <ele>1727.145996</ele>
        <time>2014-09-04T11:10:50Z</time>
      </trkpt>
      <trkpt lat="42.84496" lon="-0.46117">
        <ele>1723.781006</ele>
        <time>2014-09-04T11:11:03Z</time>
      </trkpt>
      <trkpt lat="42.84497" lon="-0.46116">
        <ele>1723.781006</ele>
        <time>2014-09-04T11:11:04Z</time>
      </trkpt>
      <trkpt lat="42.84502" lon="-0.46119">
        <ele>1721.858398</ele>
        <time>2014-09-04T11:11:21Z</time>
      </trkpt>
      <trkpt lat="42.84493" lon="-0.46136">
        <ele>1718.974609</ele>
        <time>2014-09-04T11:11:39Z</time>
      </trkpt>
      <trkpt lat="42.84489" lon="-0.46147">
        <ele>1716.090576</ele>
        <time>2014-09-04T11:11:53Z</time>
      </trkpt>
      <trkpt lat="42.84488" lon="-0.46152">
        <ele>1714.167969</ele>
        <time>2014-09-04T11:11:59Z</time>
      </trkpt>
      <trkpt lat="42.84484" lon="-0.46163">
        <ele>1711.28418</ele>
        <time>2014-09-04T11:12:11Z</time>
      </trkpt>
      <trkpt lat="42.8448" lon="-0.46179">
        <ele>1709.842041</ele>
        <time>2014-09-04T11:12:24Z</time>
      </trkpt>
      <trkpt lat="42.84477" lon="-0.46188">
        <ele>1708.400146</ele>
        <time>2014-09-04T11:12:30Z</time>
      </trkpt>
      <trkpt lat="42.84472" lon="-0.46202">
        <ele>1705.996582</ele>
        <time>2014-09-04T11:12:46Z</time>
      </trkpt>
      <trkpt lat="42.84466" lon="-0.46211">
        <ele>1704.074219</ele>
        <time>2014-09-04T11:12:59Z</time>
      </trkpt>
      <trkpt lat="42.84466" lon="-0.46227">
        <ele>1701.670898</ele>
        <time>2014-09-04T11:13:14Z</time>
      </trkpt>
      <trkpt lat="42.84464" lon="-0.46243">
        <ele>1698.306152</ele>
        <time>2014-09-04T11:13:28Z</time>
      </trkpt>
      <trkpt lat="42.84464" lon="-0.46255">
        <ele>1695.903076</ele>
        <time>2014-09-04T11:13:41Z</time>
      </trkpt>
      <trkpt lat="42.8447" lon="-0.46263">
        <ele>1693.499756</ele>
        <time>2014-09-04T11:13:53Z</time>
      </trkpt>
      <trkpt lat="42.84476" lon="-0.46256">
        <ele>1692.538574</ele>
        <time>2014-09-04T11:14:08Z</time>
      </trkpt>
      <trkpt lat="42.84485" lon="-0.46254">
        <ele>1689.654297</ele>
        <time>2014-09-04T11:14:18Z</time>
      </trkpt>
      <trkpt lat="42.84494" lon="-0.46245">
        <ele>1686.770264</ele>
        <time>2014-09-04T11:14:34Z</time>
      </trkpt>
      <trkpt lat="42.84507" lon="-0.46232">
        <ele>1684.367188</ele>
        <time>2014-09-04T11:14:53Z</time>
      </trkpt>
      <trkpt lat="42.84521" lon="-0.46223">
        <ele>1682.925049</ele>
        <time>2014-09-04T11:15:09Z</time>
      </trkpt>
      <trkpt lat="42.84523" lon="-0.46221">
        <ele>1681.483154</ele>
        <time>2014-09-04T11:15:15Z</time>
      </trkpt>
      <trkpt lat="42.84535" lon="-0.46214">
        <ele>1677.637939</ele>
        <time>2014-09-04T11:15:29Z</time>
      </trkpt>
      <trkpt lat="42.84549" lon="-0.46207">
        <ele>1675.715088</ele>
        <time>2014-09-04T11:15:47Z</time>
      </trkpt>
      <trkpt lat="42.84561" lon="-0.46207">
        <ele>1673.79248</ele>
        <time>2014-09-04T11:16:02Z</time>
      </trkpt>
      <trkpt lat="42.84565" lon="-0.46198">
        <ele>1670.908691</ele>
        <time>2014-09-04T11:16:15Z</time>
      </trkpt>
      <trkpt lat="42.84572" lon="-0.46186">
        <ele>1668.986084</ele>
        <time>2014-09-04T11:16:28Z</time>
      </trkpt>
      <trkpt lat="42.84586" lon="-0.46183">
        <ele>1666.102051</ele>
        <time>2014-09-04T11:16:38Z</time>
      </trkpt>
      <trkpt lat="42.84595" lon="-0.46169">
        <ele>1664.179443</ele>
        <time>2014-09-04T11:16:53Z</time>
      </trkpt>
      <trkpt lat="42.84594" lon="-0.46168">
        <ele>1662.737549</ele>
        <time>2014-09-04T11:19:07Z</time>
      </trkpt>
      <trkpt lat="42.84593" lon="-0.46171">
        <ele>1662.737549</ele>
        <time>2014-09-04T11:20:16Z</time>
      </trkpt>
      <trkpt lat="42.84599" lon="-0.46162">
        <ele>1663.69873</ele>
        <time>2014-09-04T11:20:55Z</time>
      </trkpt>
      <trkpt lat="42.84597" lon="-0.4617">
        <ele>1663.69873</ele>
        <time>2014-09-04T11:21:48Z</time>
      </trkpt>
      <trkpt lat="42.84595" lon="-0.4617">
        <ele>1663.218262</ele>
        <time>2014-09-04T11:22:33Z</time>
      </trkpt>
      <trkpt lat="42.84598" lon="-0.46168">
        <ele>1663.218262</ele>
        <time>2014-09-04T11:23:19Z</time>
      </trkpt>
      <trkpt lat="42.84601" lon="-0.46171">
        <ele>1664.179443</ele>
        <time>2014-09-04T11:24:36Z</time>
      </trkpt>
      <trkpt lat="42.84599" lon="-0.46169">
        <ele>1664.660156</ele>
        <time>2014-09-04T11:25:40Z</time>
      </trkpt>
      <trkpt lat="42.84601" lon="-0.46163">
        <ele>1665.140869</ele>
        <time>2014-09-04T11:26:12Z</time>
      </trkpt>
      <trkpt lat="42.84595" lon="-0.4617">
        <ele>1664.660156</ele>
        <time>2014-09-04T11:26:36Z</time>
      </trkpt>
      <trkpt lat="42.84592" lon="-0.46178">
        <ele>1664.660156</ele>
        <time>2014-09-04T11:27:00Z</time>
      </trkpt>
      <trkpt lat="42.84591" lon="-0.46194">
        <ele>1665.140869</ele>
        <time>2014-09-04T11:28:21Z</time>
      </trkpt>
      <trkpt lat="42.84596" lon="-0.46176">
        <ele>1666.582764</ele>
        <time>2014-09-04T11:29:08Z</time>
      </trkpt>
      <trkpt lat="42.8461" lon="-0.46158">
        <ele>1665.621582</ele>
        <time>2014-09-04T11:30:03Z</time>
      </trkpt>
      <trkpt lat="42.84604" lon="-0.46165">
        <ele>1665.140869</ele>
        <time>2014-09-04T11:30:08Z</time>
      </trkpt>
      <trkpt lat="42.84614" lon="-0.4616">
        <ele>1661.776367</ele>
        <time>2014-09-04T11:30:27Z</time>
      </trkpt>
      <trkpt lat="42.84623" lon="-0.46151">
        <ele>1659.372803</ele>
        <time>2014-09-04T11:30:42Z</time>
      </trkpt>
      <trkpt lat="42.84627" lon="-0.46146">
        <ele>1658.89209</ele>
        <time>2014-09-04T11:30:48Z</time>
      </trkpt>
      <trkpt lat="42.84641" lon="-0.46138">
        <ele>1655.046875</ele>
        <time>2014-09-04T11:31:05Z</time>
      </trkpt>
      <trkpt lat="42.84644" lon="-0.46144">
        <ele>1652.162842</ele>
        <time>2014-09-04T11:31:13Z</time>
      </trkpt>
      <trkpt lat="42.84643" lon="-0.46153">
        <ele>1649.759766</ele>
        <time>2014-09-04T11:31:27Z</time>
      </trkpt>
      <trkpt lat="42.84641" lon="-0.46171">
        <ele>1647.837158</ele>
        <time>2014-09-04T11:31:44Z</time>
      </trkpt>
      <trkpt lat="42.84641" lon="-0.46183">
        <ele>1645.433838</ele>
        <time>2014-09-04T11:31:53Z</time>
      </trkpt>
      <trkpt lat="42.84637" lon="-0.46194">
        <ele>1643.510986</ele>
        <time>2014-09-04T11:32:07Z</time>
      </trkpt>
      <trkpt lat="42.84633" lon="-0.46199">
        <ele>1643.030273</ele>
        <time>2014-09-04T11:32:13Z</time>
      </trkpt>
      <trkpt lat="42.84628" lon="-0.46207">
        <ele>1639.665771</ele>
        <time>2014-09-04T11:32:21Z</time>
      </trkpt>
      <trkpt lat="42.84622" lon="-0.46221">
        <ele>1636.781738</ele>
        <time>2014-09-04T11:32:37Z</time>
      </trkpt>
      <trkpt lat="42.84616" lon="-0.4623">
        <ele>1635.339844</ele>
        <time>2014-09-04T11:32:54Z</time>
      </trkpt>
      <trkpt lat="42.84621" lon="-0.46232">
        <ele>1633.417236</ele>
        <time>2014-09-04T11:33:03Z</time>
      </trkpt>
      <trkpt lat="42.84632" lon="-0.46235">
        <ele>1631.01416</ele>
        <time>2014-09-04T11:33:20Z</time>
      </trkpt>
      <trkpt lat="42.84633" lon="-0.46241">
        <ele>1628.61084</ele>
        <time>2014-09-04T11:33:38Z</time>
      </trkpt>
      <trkpt lat="42.84632" lon="-0.46244">
        <ele>1628.61084</ele>
        <time>2014-09-04T11:33:44Z</time>
      </trkpt>
      <trkpt lat="42.84628" lon="-0.4625">
        <ele>1626.207275</ele>
        <time>2014-09-04T11:33:48Z</time>
      </trkpt>
      <trkpt lat="42.84619" lon="-0.46258">
        <ele>1624.284668</ele>
        <time>2014-09-04T11:34:03Z</time>
      </trkpt>
      <trkpt lat="42.84617" lon="-0.46261">
        <ele>1623.803955</ele>
        <time>2014-09-04T11:34:06Z</time>
      </trkpt>
      <trkpt lat="42.8462" lon="-0.46283">
        <ele>1620.439453</ele>
        <time>2014-09-04T11:34:25Z</time>
      </trkpt>
      <trkpt lat="42.84621" lon="-0.46283">
        <ele>1619.95874</ele>
        <time>2014-09-04T11:34:27Z</time>
      </trkpt>
      <trkpt lat="42.84624" lon="-0.4629">
        <ele>1616.594238</ele>
        <time>2014-09-04T11:34:39Z</time>
      </trkpt>
      <trkpt lat="42.84625" lon="-0.46305">
        <ele>1614.190918</ele>
        <time>2014-09-04T11:34:54Z</time>
      </trkpt>
      <trkpt lat="42.84631" lon="-0.46311">
        <ele>1610.826172</ele>
        <time>2014-09-04T11:35:06Z</time>
      </trkpt>
      <trkpt lat="42.84632" lon="-0.46312">
        <ele>1610.345459</ele>
        <time>2014-09-04T11:35:08Z</time>
      </trkpt>
      <trkpt lat="42.84636" lon="-0.46323">
        <ele>1606.980957</ele>
        <time>2014-09-04T11:35:18Z</time>
      </trkpt>
      <trkpt lat="42.84634" lon="-0.46339">
        <ele>1605.539063</ele>
        <time>2014-09-04T11:35:30Z</time>
      </trkpt>
      <trkpt lat="42.8463" lon="-0.46352">
        <ele>1606.019531</ele>
        <time>2014-09-04T11:35:40Z</time>
      </trkpt>
      <trkpt lat="42.84624" lon="-0.46362">
        <ele>1607.46167</ele>
        <time>2014-09-04T11:35:50Z</time>
      </trkpt>
      <trkpt lat="42.84616" lon="-0.4638">
        <ele>1608.903564</ele>
        <time>2014-09-04T11:36:05Z</time>
      </trkpt>
      <trkpt lat="42.84615" lon="-0.46381">
        <ele>1609.864746</ele>
        <time>2014-09-04T11:36:06Z</time>
      </trkpt>
      <trkpt lat="42.84612" lon="-0.46392">
        <ele>1609.384277</ele>
        <time>2014-09-04T11:36:16Z</time>
      </trkpt>
      <trkpt lat="42.84615" lon="-0.46398">
        <ele>1607.46167</ele>
        <time>2014-09-04T11:36:22Z</time>
      </trkpt>
      <trkpt lat="42.84614" lon="-0.46401">
        <ele>1607.46167</ele>
        <time>2014-09-04T11:36:25Z</time>
      </trkpt>
      <trkpt lat="42.84611" lon="-0.46403">
        <ele>1608.422852</ele>
        <time>2014-09-04T11:36:28Z</time>
      </trkpt>
      <trkpt lat="42.84604" lon="-0.46416">
        <ele>1609.384277</ele>
        <time>2014-09-04T11:36:39Z</time>
      </trkpt>
      <trkpt lat="42.84597" lon="-0.46431">
        <ele>1610.826172</ele>
        <time>2014-09-04T11:36:51Z</time>
      </trkpt>
      <trkpt lat="42.84589" lon="-0.46464">
        <ele>1609.864746</ele>
        <time>2014-09-04T11:37:14Z</time>
      </trkpt>
      <trkpt lat="42.84583" lon="-0.4649">
        <ele>1607.46167</ele>
        <time>2014-09-04T11:37:33Z</time>
      </trkpt>
      <trkpt lat="42.8458" lon="-0.46496">
        <ele>1605.539063</ele>
        <time>2014-09-04T11:37:40Z</time>
      </trkpt>
      <trkpt lat="42.8458" lon="-0.46499">
        <ele>1603.616455</ele>
        <time>2014-09-04T11:37:44Z</time>
      </trkpt>
      <trkpt lat="42.84579" lon="-0.46507">
        <ele>1600.251953</ele>
        <time>2014-09-04T11:37:53Z</time>
      </trkpt>
      <trkpt lat="42.84577" lon="-0.46517">
        <ele>1599.290527</ele>
        <time>2014-09-04T11:38:10Z</time>
      </trkpt>
      <trkpt lat="42.84574" lon="-0.46538">
        <ele>1600.251953</ele>
        <time>2014-09-04T11:38:27Z</time>
      </trkpt>
      <trkpt lat="42.84573" lon="-0.46541">
        <ele>1600.251953</ele>
        <time>2014-09-04T11:38:29Z</time>
      </trkpt>
      <trkpt lat="42.84571" lon="-0.46547">
        <ele>1602.655029</ele>
        <time>2014-09-04T11:38:34Z</time>
      </trkpt>
      <trkpt lat="42.84562" lon="-0.4657">
        <ele>1603.616455</ele>
        <time>2014-09-04T11:38:52Z</time>
      </trkpt>
      <trkpt lat="42.84563" lon="-0.46588">
        <ele>1600.732422</ele>
        <time>2014-09-04T11:39:05Z</time>
      </trkpt>
      <trkpt lat="42.84564" lon="-0.46589">
        <ele>1600.732422</ele>
        <time>2014-09-04T11:39:06Z</time>
      </trkpt>
      <trkpt lat="42.84567" lon="-0.46598">
        <ele>1598.329102</ele>
        <time>2014-09-04T11:39:13Z</time>
      </trkpt>
      <trkpt lat="42.84572" lon="-0.46606">
        <ele>1597.36792</ele>
        <time>2014-09-04T11:39:22Z</time>
      </trkpt>
      <trkpt lat="42.84589" lon="-0.46614">
        <ele>1595.445068</ele>
        <time>2014-09-04T11:39:41Z</time>
      </trkpt>
      <trkpt lat="42.84603" lon="-0.46611">
        <ele>1591.599854</ele>
        <time>2014-09-04T11:39:56Z</time>
      </trkpt>
      <trkpt lat="42.84605" lon="-0.46621">
        <ele>1589.196533</ele>
        <time>2014-09-04T11:40:09Z</time>
      </trkpt>
      <trkpt lat="42.84604" lon="-0.4663">
        <ele>1588.716064</ele>
        <time>2014-09-04T11:40:21Z</time>
      </trkpt>
      <trkpt lat="42.846" lon="-0.46637">
        <ele>1589.196533</ele>
        <time>2014-09-04T11:40:36Z</time>
      </trkpt>
      <trkpt lat="42.84594" lon="-0.46644">
        <ele>1589.196533</ele>
        <time>2014-09-04T11:40:54Z</time>
      </trkpt>
      <trkpt lat="42.84591" lon="-0.46646">
        <ele>1589.677246</ele>
        <time>2014-09-04T11:41:14Z</time>
      </trkpt>
      <trkpt lat="42.84577" lon="-0.4666">
        <ele>1591.599854</ele>
        <time>2014-09-04T11:41:32Z</time>
      </trkpt>
      <trkpt lat="42.84561" lon="-0.46672">
        <ele>1594.964355</ele>
        <time>2014-09-04T11:41:50Z</time>
      </trkpt>
      <trkpt lat="42.84542" lon="-0.46688">
        <ele>1594.964355</ele>
        <time>2014-09-04T11:42:10Z</time>
      </trkpt>
      <trkpt lat="42.84529" lon="-0.46705">
        <ele>1594.483643</ele>
        <time>2014-09-04T11:42:27Z</time>
      </trkpt>
      <trkpt lat="42.84508" lon="-0.46718">
        <ele>1594.964355</ele>
        <time>2014-09-04T11:42:46Z</time>
      </trkpt>
      <trkpt lat="42.84492" lon="-0.46723">
        <ele>1594.483643</ele>
        <time>2014-09-04T11:43:00Z</time>
      </trkpt>
      <trkpt lat="42.84491" lon="-0.46728">
        <ele>1593.041748</ele>
        <time>2014-09-04T11:43:05Z</time>
      </trkpt>
      <trkpt lat="42.84488" lon="-0.4674">
        <ele>1594.964355</ele>
        <time>2014-09-04T11:43:15Z</time>
      </trkpt>
      <trkpt lat="42.84483" lon="-0.46761">
        <ele>1594.964355</ele>
        <time>2014-09-04T11:43:31Z</time>
      </trkpt>
      <trkpt lat="42.84475" lon="-0.46774">
        <ele>1597.848633</ele>
        <time>2014-09-04T11:43:43Z</time>
      </trkpt>
      <trkpt lat="42.84461" lon="-0.46789">
        <ele>1599.77124</ele>
        <time>2014-09-04T11:44:00Z</time>
      </trkpt>
      <trkpt lat="42.84446" lon="-0.46797">
        <ele>1600.732422</ele>
        <time>2014-09-04T11:44:18Z</time>
      </trkpt>
      <trkpt lat="42.84445" lon="-0.46798">
        <ele>1601.213135</ele>
        <time>2014-09-04T11:44:19Z</time>
      </trkpt>
      <trkpt lat="42.84434" lon="-0.46807">
        <ele>1601.213135</ele>
        <time>2014-09-04T11:44:32Z</time>
      </trkpt>
      <trkpt lat="42.84428" lon="-0.46811">
        <ele>1601.693848</ele>
        <time>2014-09-04T11:44:40Z</time>
      </trkpt>
      <trkpt lat="42.84425" lon="-0.46816">
        <ele>1602.174316</ele>
        <time>2014-09-04T11:44:44Z</time>
      </trkpt>
      <trkpt lat="42.84423" lon="-0.46827">
        <ele>1602.655029</ele>
        <time>2014-09-04T11:44:52Z</time>
      </trkpt>
      <trkpt lat="42.84423" lon="-0.4683">
        <ele>1603.135742</ele>
        <time>2014-09-04T11:44:54Z</time>
      </trkpt>
      <trkpt lat="42.84422" lon="-0.46849">
        <ele>1604.577637</ele>
        <time>2014-09-04T11:45:11Z</time>
      </trkpt>
      <trkpt lat="42.84419" lon="-0.46865">
        <ele>1606.019531</ele>
        <time>2014-09-04T11:45:26Z</time>
      </trkpt>
      <trkpt lat="42.84415" lon="-0.46883">
        <ele>1609.864746</ele>
        <time>2014-09-04T11:45:41Z</time>
      </trkpt>
      <trkpt lat="42.84416" lon="-0.46894">
        <ele>1612.749023</ele>
        <time>2014-09-04T11:45:51Z</time>
      </trkpt>
      <trkpt lat="42.84417" lon="-0.46912">
        <ele>1614.671631</ele>
        <time>2014-09-04T11:46:08Z</time>
      </trkpt>
      <trkpt lat="42.84413" lon="-0.4692">
        <ele>1618.036133</ele>
        <time>2014-09-04T11:46:16Z</time>
      </trkpt>
      <trkpt lat="42.84404" lon="-0.4691">
        <ele>1618.997559</ele>
        <time>2014-09-04T11:46:31Z</time>
      </trkpt>
      <trkpt lat="42.84398" lon="-0.469">
        <ele>1620.920166</ele>
        <time>2014-09-04T11:46:44Z</time>
      </trkpt>
      <trkpt lat="42.84387" lon="-0.46893">
        <ele>1623.803955</ele>
        <time>2014-09-04T11:47:00Z</time>
      </trkpt>
      <trkpt lat="42.8438" lon="-0.46888">
        <ele>1625.24585</ele>
        <time>2014-09-04T11:47:10Z</time>
      </trkpt>
      <trkpt lat="42.84377" lon="-0.46882">
        <ele>1625.24585</ele>
        <time>2014-09-04T11:47:16Z</time>
      </trkpt>
      <trkpt lat="42.84368" lon="-0.46883">
        <ele>1628.130127</ele>
        <time>2014-09-04T11:47:32Z</time>
      </trkpt>
      <trkpt lat="42.8436" lon="-0.46889">
        <ele>1630.533447</ele>
        <time>2014-09-04T11:47:44Z</time>
      </trkpt>
      <trkpt lat="42.84357" lon="-0.46896">
        <ele>1630.533447</ele>
        <time>2014-09-04T11:47:52Z</time>
      </trkpt>
      <trkpt lat="42.84343" lon="-0.46906">
        <ele>1630.533447</ele>
        <time>2014-09-04T11:48:06Z</time>
      </trkpt>
      <trkpt lat="42.84329" lon="-0.46921">
        <ele>1633.417236</ele>
        <time>2014-09-04T11:48:23Z</time>
      </trkpt>
      <trkpt lat="42.84317" lon="-0.46919">
        <ele>1635.820557</ele>
        <time>2014-09-04T11:48:38Z</time>
      </trkpt>
      <trkpt lat="42.84308" lon="-0.46918">
        <ele>1637.743164</ele>
        <time>2014-09-04T11:48:49Z</time>
      </trkpt>
      <trkpt lat="42.84294" lon="-0.46921">
        <ele>1639.665771</ele>
        <time>2014-09-04T11:49:03Z</time>
      </trkpt>
      <trkpt lat="42.84277" lon="-0.4693">
        <ele>1641.107666</ele>
        <time>2014-09-04T11:49:19Z</time>
      </trkpt>
      <trkpt lat="42.84265" lon="-0.46933">
        <ele>1644.472412</ele>
        <time>2014-09-04T11:49:32Z</time>
      </trkpt>
      <trkpt lat="42.84256" lon="-0.46936">
        <ele>1646.395264</ele>
        <time>2014-09-04T11:49:45Z</time>
      </trkpt>
      <trkpt lat="42.84248" lon="-0.4694">
        <ele>1648.317627</ele>
        <time>2014-09-04T11:49:56Z</time>
      </trkpt>
      <trkpt lat="42.84238" lon="-0.46937">
        <ele>1650.720947</ele>
        <time>2014-09-04T11:50:10Z</time>
      </trkpt>
      <trkpt lat="42.84235" lon="-0.46936">
        <ele>1650.240479</ele>
        <time>2014-09-04T11:50:13Z</time>
      </trkpt>
      <trkpt lat="42.84228" lon="-0.46933">
        <ele>1652.162842</ele>
        <time>2014-09-04T11:50:21Z</time>
      </trkpt>
      <trkpt lat="42.84215" lon="-0.46933">
        <ele>1653.60498</ele>
        <time>2014-09-04T11:50:36Z</time>
      </trkpt>
      <trkpt lat="42.84207" lon="-0.46929">
        <ele>1654.566162</ele>
        <time>2014-09-04T11:50:45Z</time>
      </trkpt>
      <trkpt lat="42.84188" lon="-0.46929">
        <ele>1654.566162</ele>
        <time>2014-09-04T11:51:05Z</time>
      </trkpt>
      <trkpt lat="42.84183" lon="-0.46928">
        <ele>1654.566162</ele>
        <time>2014-09-04T11:51:10Z</time>
      </trkpt>
      <trkpt lat="42.84172" lon="-0.4693">
        <ele>1656.008057</ele>
        <time>2014-09-04T11:51:23Z</time>
      </trkpt>
      <trkpt lat="42.84164" lon="-0.46937">
        <ele>1657.450195</ele>
        <time>2014-09-04T11:51:33Z</time>
      </trkpt>
      <trkpt lat="42.84149" lon="-0.46948">
        <ele>1656.969482</ele>
        <time>2014-09-04T11:51:51Z</time>
      </trkpt>
      <trkpt lat="42.84133" lon="-0.46953">
        <ele>1656.48877</ele>
        <time>2014-09-04T11:52:08Z</time>
      </trkpt>
      <trkpt lat="42.84132" lon="-0.46954">
        <ele>1656.008057</ele>
        <time>2014-09-04T11:52:09Z</time>
      </trkpt>
      <trkpt lat="42.84123" lon="-0.46961">
        <ele>1655.527588</ele>
        <time>2014-09-04T11:52:23Z</time>
      </trkpt>
      <trkpt lat="42.8411" lon="-0.46967">
        <ele>1656.48877</ele>
        <time>2014-09-04T11:52:38Z</time>
      </trkpt>
      <trkpt lat="42.84119" lon="-0.46955">
        <ele>1656.48877</ele>
        <time>2014-09-04T11:53:05Z</time>
      </trkpt>
      <trkpt lat="42.84106" lon="-0.46956">
        <ele>1654.085693</ele>
        <time>2014-09-04T11:53:23Z</time>
      </trkpt>
      <trkpt lat="42.84099" lon="-0.4696">
        <ele>1653.60498</ele>
        <time>2014-09-04T11:53:39Z</time>
      </trkpt>
      <trkpt lat="42.84092" lon="-0.46968">
        <ele>1655.527588</ele>
        <time>2014-09-04T11:53:52Z</time>
      </trkpt>
      <trkpt lat="42.84091" lon="-0.4697">
        <ele>1656.008057</ele>
        <time>2014-09-04T11:53:54Z</time>
      </trkpt>
      <trkpt lat="42.84084" lon="-0.46977">
        <ele>1655.527588</ele>
        <time>2014-09-04T11:54:03Z</time>
      </trkpt>
      <trkpt lat="42.84075" lon="-0.46993">
        <ele>1654.085693</ele>
        <time>2014-09-04T11:54:17Z</time>
      </trkpt>
      <trkpt lat="42.84073" lon="-0.46996">
        <ele>1653.60498</ele>
        <time>2014-09-04T11:54:20Z</time>
      </trkpt>
      <trkpt lat="42.84071" lon="-0.47001">
        <ele>1654.085693</ele>
        <time>2014-09-04T11:54:24Z</time>
      </trkpt>
      <trkpt lat="42.84059" lon="-0.47029">
        <ele>1651.20166</ele>
        <time>2014-09-04T11:54:45Z</time>
      </trkpt>
      <trkpt lat="42.84048" lon="-0.47054">
        <ele>1651.20166</ele>
        <time>2014-09-04T11:55:05Z</time>
      </trkpt>
      <trkpt lat="42.84045" lon="-0.47063">
        <ele>1651.20166</ele>
        <time>2014-09-04T11:55:11Z</time>
      </trkpt>
      <trkpt lat="42.84035" lon="-0.47081">
        <ele>1650.720947</ele>
        <time>2014-09-04T11:55:28Z</time>
      </trkpt>
      <trkpt lat="42.84033" lon="-0.47086">
        <ele>1651.682373</ele>
        <time>2014-09-04T11:55:32Z</time>
      </trkpt>
      <trkpt lat="42.84028" lon="-0.47096">
        <ele>1651.682373</ele>
        <time>2014-09-04T11:55:41Z</time>
      </trkpt>
      <trkpt lat="42.8403" lon="-0.47099">
        <ele>1651.682373</ele>
        <time>2014-09-04T11:55:44Z</time>
      </trkpt>
      <trkpt lat="42.84024" lon="-0.4712">
        <ele>1652.162842</ele>
        <time>2014-09-04T11:56:01Z</time>
      </trkpt>
      <trkpt lat="42.84026" lon="-0.47121">
        <ele>1652.162842</ele>
        <time>2014-09-04T11:56:02Z</time>
      </trkpt>
      <trkpt lat="42.84015" lon="-0.47142">
        <ele>1652.643555</ele>
        <time>2014-09-04T11:56:18Z</time>
      </trkpt>
      <trkpt lat="42.84008" lon="-0.4716">
        <ele>1652.162842</ele>
        <time>2014-09-04T11:56:34Z</time>
      </trkpt>
      <trkpt lat="42.84004" lon="-0.47167">
        <ele>1654.566162</ele>
        <time>2014-09-04T11:56:44Z</time>
      </trkpt>
      <trkpt lat="42.84003" lon="-0.4718">
        <ele>1653.124268</ele>
        <time>2014-09-04T11:56:59Z</time>
      </trkpt>
      <trkpt lat="42.83999" lon="-0.47193">
        <ele>1654.566162</ele>
        <time>2014-09-04T11:57:12Z</time>
      </trkpt>
      <trkpt lat="42.83993" lon="-0.4721">
        <ele>1653.124268</ele>
        <time>2014-09-04T11:57:31Z</time>
      </trkpt>
      <trkpt lat="42.83987" lon="-0.47228">
        <ele>1654.566162</ele>
        <time>2014-09-04T11:57:47Z</time>
      </trkpt>
      <trkpt lat="42.83978" lon="-0.47249">
        <ele>1654.566162</ele>
        <time>2014-09-04T11:58:05Z</time>
      </trkpt>
      <trkpt lat="42.83965" lon="-0.47274">
        <ele>1654.566162</ele>
        <time>2014-09-04T11:58:27Z</time>
      </trkpt>
      <trkpt lat="42.83956" lon="-0.47287">
        <ele>1655.046875</ele>
        <time>2014-09-04T11:58:42Z</time>
      </trkpt>
      <trkpt lat="42.83949" lon="-0.47298">
        <ele>1655.046875</ele>
        <time>2014-09-04T11:58:57Z</time>
      </trkpt>
      <trkpt lat="42.83936" lon="-0.47308">
        <ele>1656.008057</ele>
        <time>2014-09-04T11:59:13Z</time>
      </trkpt>
      <trkpt lat="42.83925" lon="-0.47315">
        <ele>1656.969482</ele>
        <time>2014-09-04T11:59:30Z</time>
      </trkpt>
      <trkpt lat="42.83926" lon="-0.4732">
        <ele>1657.930908</ele>
        <time>2014-09-04T11:59:45Z</time>
      </trkpt>
      <trkpt lat="42.83927" lon="-0.47322">
        <ele>1657.930908</ele>
        <time>2014-09-04T11:59:47Z</time>
      </trkpt>
      <trkpt lat="42.83928" lon="-0.47326">
        <ele>1656.969482</ele>
        <time>2014-09-04T11:59:50Z</time>
      </trkpt>
      <trkpt lat="42.83916" lon="-0.47348">
        <ele>1657.450195</ele>
        <time>2014-09-04T12:00:08Z</time>
      </trkpt>
      <trkpt lat="42.83906" lon="-0.47365">
        <ele>1659.372803</ele>
        <time>2014-09-04T12:00:27Z</time>
      </trkpt>
      <trkpt lat="42.83903" lon="-0.47377">
        <ele>1660.814941</ele>
        <time>2014-09-04T12:00:44Z</time>
      </trkpt>
      <trkpt lat="42.839" lon="-0.47385">
        <ele>1662.737549</ele>
        <time>2014-09-04T12:00:56Z</time>
      </trkpt>
      <trkpt lat="42.83897" lon="-0.474">
        <ele>1665.140869</ele>
        <time>2014-09-04T12:01:15Z</time>
      </trkpt>
      <trkpt lat="42.83895" lon="-0.47411">
        <ele>1667.543945</ele>
        <time>2014-09-04T12:01:29Z</time>
      </trkpt>
      <trkpt lat="42.83889" lon="-0.47417">
        <ele>1669.947266</ele>
        <time>2014-09-04T12:01:41Z</time>
      </trkpt>
      <trkpt lat="42.83881" lon="-0.47423">
        <ele>1671.869873</ele>
        <time>2014-09-04T12:01:59Z</time>
      </trkpt>
      <trkpt lat="42.83884" lon="-0.47424">
        <ele>1671.869873</ele>
        <time>2014-09-04T12:02:37Z</time>
      </trkpt>
      <trkpt lat="42.83879" lon="-0.47429">
        <ele>1673.312012</ele>
        <time>2014-09-04T12:04:29Z</time>
      </trkpt>
      <trkpt lat="42.8388" lon="-0.47436">
        <ele>1674.273193</ele>
        <time>2014-09-04T12:04:42Z</time>
      </trkpt>
      <trkpt lat="42.83874" lon="-0.47445">
        <ele>1676.676758</ele>
        <time>2014-09-04T12:04:59Z</time>
      </trkpt>
      <trkpt lat="42.83867" lon="-0.47449">
        <ele>1680.04126</ele>
        <time>2014-09-04T12:05:12Z</time>
      </trkpt>
      <trkpt lat="42.83861" lon="-0.47462">
        <ele>1681.002686</ele>
        <time>2014-09-04T12:05:28Z</time>
      </trkpt>
      <trkpt lat="42.83856" lon="-0.4747">
        <ele>1682.925049</ele>
        <time>2014-09-04T12:05:47Z</time>
      </trkpt>
      <trkpt lat="42.8385" lon="-0.47478">
        <ele>1685.328369</ele>
        <time>2014-09-04T12:06:11Z</time>
      </trkpt>
      <trkpt lat="42.83844" lon="-0.47488">
        <ele>1687.731689</ele>
        <time>2014-09-04T12:06:26Z</time>
      </trkpt>
      <trkpt lat="42.83843" lon="-0.47496">
        <ele>1689.654297</ele>
        <time>2014-09-04T12:06:40Z</time>
      </trkpt>
      <trkpt lat="42.83853" lon="-0.47502">
        <ele>1691.096191</ele>
        <time>2014-09-04T12:06:54Z</time>
      </trkpt>
      <trkpt lat="42.83864" lon="-0.47506">
        <ele>1694.460938</ele>
        <time>2014-09-04T12:07:08Z</time>
      </trkpt>
      <trkpt lat="42.83873" lon="-0.47513">
        <ele>1697.344971</ele>
        <time>2014-09-04T12:07:29Z</time>
      </trkpt>
      <trkpt lat="42.8387" lon="-0.47515">
        <ele>1698.786865</ele>
        <time>2014-09-04T12:07:33Z</time>
      </trkpt>
      <trkpt lat="42.83859" lon="-0.47522">
        <ele>1700.229004</ele>
        <time>2014-09-04T12:07:48Z</time>
      </trkpt>
      <trkpt lat="42.83853" lon="-0.47535">
        <ele>1701.670898</ele>
        <time>2014-09-04T12:08:03Z</time>
      </trkpt>
      <trkpt lat="42.83846" lon="-0.47548">
        <ele>1703.593506</ele>
        <time>2014-09-04T12:08:17Z</time>
      </trkpt>
      <trkpt lat="42.8384" lon="-0.47559">
        <ele>1706.958008</ele>
        <time>2014-09-04T12:08:29Z</time>
      </trkpt>
      <trkpt lat="42.83835" lon="-0.47566">
        <ele>1707.919434</ele>
        <time>2014-09-04T12:08:39Z</time>
      </trkpt>
      <trkpt lat="42.83829" lon="-0.47574">
        <ele>1710.322754</ele>
        <time>2014-09-04T12:08:51Z</time>
      </trkpt>
      <trkpt lat="42.83825" lon="-0.47584">
        <ele>1712.245361</ele>
        <time>2014-09-04T12:09:01Z</time>
      </trkpt>
      <trkpt lat="42.83818" lon="-0.47591">
        <ele>1713.687256</ele>
        <time>2014-09-04T12:09:10Z</time>
      </trkpt>
      <trkpt lat="42.83808" lon="-0.47602">
        <ele>1717.532471</ele>
        <time>2014-09-04T12:09:46Z</time>
      </trkpt>
      <trkpt lat="42.83813" lon="-0.47606">
        <ele>1718.974609</ele>
        <time>2014-09-04T12:09:55Z</time>
      </trkpt>
      <trkpt lat="42.83805" lon="-0.47613">
        <ele>1720.416504</ele>
        <time>2014-09-04T12:10:06Z</time>
      </trkpt>
      <trkpt lat="42.83803" lon="-0.47614">
        <ele>1720.897217</ele>
        <time>2014-09-04T12:10:08Z</time>
      </trkpt>
      <trkpt lat="42.83792" lon="-0.4762">
        <ele>1722.819824</ele>
        <time>2014-09-04T12:10:20Z</time>
      </trkpt>
      <trkpt lat="42.83787" lon="-0.47626">
        <ele>1725.223145</ele>
        <time>2014-09-04T12:10:48Z</time>
      </trkpt>
      <trkpt lat="42.8378" lon="-0.47637">
        <ele>1727.145996</ele>
        <time>2014-09-04T12:11:02Z</time>
      </trkpt>
      <trkpt lat="42.83774" lon="-0.47645">
        <ele>1729.549072</ele>
        <time>2014-09-04T12:11:12Z</time>
      </trkpt>
      <trkpt lat="42.83765" lon="-0.47656">
        <ele>1729.549072</ele>
        <time>2014-09-04T12:11:27Z</time>
      </trkpt>
      <trkpt lat="42.83768" lon="-0.47664">
        <ele>1731.47168</ele>
        <time>2014-09-04T12:11:36Z</time>
      </trkpt>
      <trkpt lat="42.83771" lon="-0.47666">
        <ele>1732.433105</ele>
        <time>2014-09-04T12:11:39Z</time>
      </trkpt>
      <trkpt lat="42.83776" lon="-0.47667">
        <ele>1734.836426</ele>
        <time>2014-09-04T12:11:46Z</time>
      </trkpt>
      <trkpt lat="42.83783" lon="-0.47666">
        <ele>1736.758789</ele>
        <time>2014-09-04T12:11:55Z</time>
      </trkpt>
      <trkpt lat="42.83791" lon="-0.47672">
        <ele>1739.162109</ele>
        <time>2014-09-04T12:12:12Z</time>
      </trkpt>
      <trkpt lat="42.83796" lon="-0.47674">
        <ele>1740.123779</ele>
        <time>2014-09-04T12:12:23Z</time>
      </trkpt>
      <trkpt lat="42.83805" lon="-0.47674">
        <ele>1743.488281</ele>
        <time>2014-09-04T12:12:35Z</time>
      </trkpt>
      <trkpt lat="42.83812" lon="-0.47679">
        <ele>1745.891602</ele>
        <time>2014-09-04T12:12:47Z</time>
      </trkpt>
      <trkpt lat="42.83815" lon="-0.47688">
        <ele>1746.852783</ele>
        <time>2014-09-04T12:13:00Z</time>
      </trkpt>
      <trkpt lat="42.83819" lon="-0.47695">
        <ele>1750.217529</ele>
        <time>2014-09-04T12:13:13Z</time>
      </trkpt>
      <trkpt lat="42.83824" lon="-0.47696">
        <ele>1750.697998</ele>
        <time>2014-09-04T12:13:24Z</time>
      </trkpt>
      <trkpt lat="42.83824" lon="-0.47696">
        <ele>1749.256104</ele>
        <time>2014-09-04T12:13:32Z</time>
      </trkpt>
      <trkpt lat="42.83827" lon="-0.47696">
        <ele>1748.775391</ele>
        <time>2014-09-04T12:13:53Z</time>
      </trkpt>
      <trkpt lat="42.83837" lon="-0.47698">
        <ele>1750.217529</ele>
        <time>2014-09-04T12:19:13Z</time>
      </trkpt>
      <trkpt lat="42.83846" lon="-0.47698">
        <ele>1751.178711</ele>
        <time>2014-09-04T12:25:14Z</time>
      </trkpt>
      <trkpt lat="42.83824" lon="-0.47701">
        <ele>1751.659424</ele>
        <time>2014-09-04T12:26:49Z</time>
      </trkpt>
      <trkpt lat="42.83824" lon="-0.47696">
        <ele>1754.543213</ele>
        <time>2014-09-04T12:47:39Z</time>
      </trkpt>
      <trkpt lat="42.83823" lon="-0.47696">
        <ele>1755.504639</ele>
        <time>2014-09-04T12:51:22Z</time>
      </trkpt>
      <trkpt lat="42.83822" lon="-0.47695">
        <ele>1755.504639</ele>
        <time>2014-09-04T12:51:50Z</time>
      </trkpt>
      <trkpt lat="42.83812" lon="-0.47697">
        <ele>1755.504639</ele>
        <time>2014-09-04T12:52:10Z</time>
      </trkpt>
      <trkpt lat="42.83798" lon="-0.47701">
        <ele>1755.023926</ele>
        <time>2014-09-04T12:52:28Z</time>
      </trkpt>
      <trkpt lat="42.8379" lon="-0.47709">
        <ele>1755.985107</ele>
        <time>2014-09-04T12:52:42Z</time>
      </trkpt>
      <trkpt lat="42.83785" lon="-0.4772">
        <ele>1756.466064</ele>
        <time>2014-09-04T12:53:01Z</time>
      </trkpt>
      <trkpt lat="42.83784" lon="-0.4773">
        <ele>1758.388672</ele>
        <time>2014-09-04T12:53:11Z</time>
      </trkpt>
      <trkpt lat="42.83785" lon="-0.47739">
        <ele>1759.350098</ele>
        <time>2014-09-04T12:53:21Z</time>
      </trkpt>
      <trkpt lat="42.83784" lon="-0.47753">
        <ele>1762.233887</ele>
        <time>2014-09-04T12:53:36Z</time>
      </trkpt>
      <trkpt lat="42.83781" lon="-0.47763">
        <ele>1763.675781</ele>
        <time>2014-09-04T12:53:47Z</time>
      </trkpt>
      <trkpt lat="42.83776" lon="-0.47774">
        <ele>1765.598633</ele>
        <time>2014-09-04T12:53:59Z</time>
      </trkpt>
      <trkpt lat="42.83773" lon="-0.47782">
        <ele>1767.520996</ele>
        <time>2014-09-04T12:54:12Z</time>
      </trkpt>
      <trkpt lat="42.83766" lon="-0.47803">
        <ele>1769.443848</ele>
        <time>2014-09-04T12:54:33Z</time>
      </trkpt>
      <trkpt lat="42.8377" lon="-0.47812">
        <ele>1770.405029</ele>
        <time>2014-09-04T12:54:42Z</time>
      </trkpt>
      <trkpt lat="42.8377" lon="-0.47832">
        <ele>1770.885742</ele>
        <time>2014-09-04T12:54:58Z</time>
      </trkpt>
      <trkpt lat="42.83772" lon="-0.47843">
        <ele>1770.885742</ele>
        <time>2014-09-04T12:55:08Z</time>
      </trkpt>
      <trkpt lat="42.83775" lon="-0.47854">
        <ele>1771.846924</ele>
        <time>2014-09-04T12:55:19Z</time>
      </trkpt>
      <trkpt lat="42.83778" lon="-0.47865">
        <ele>1772.808594</ele>
        <time>2014-09-04T12:55:32Z</time>
      </trkpt>
      <trkpt lat="42.83781" lon="-0.47872">
        <ele>1774.731201</ele>
        <time>2014-09-04T12:55:46Z</time>
      </trkpt>
      <trkpt lat="42.83786" lon="-0.47888">
        <ele>1777.134521</ele>
        <time>2014-09-04T12:56:05Z</time>
      </trkpt>
      <trkpt lat="42.8379" lon="-0.47897">
        <ele>1778.576416</ele>
        <time>2014-09-04T12:56:16Z</time>
      </trkpt>
      <trkpt lat="42.83794" lon="-0.47906">
        <ele>1781.460205</ele>
        <time>2014-09-04T12:56:30Z</time>
      </trkpt>
      <trkpt lat="42.83798" lon="-0.47914">
        <ele>1783.382813</ele>
        <time>2014-09-04T12:56:42Z</time>
      </trkpt>
      <trkpt lat="42.83802" lon="-0.47922">
        <ele>1785.30542</ele>
        <time>2014-09-04T12:56:56Z</time>
      </trkpt>
      <trkpt lat="42.83792" lon="-0.47924">
        <ele>1787.70874</ele>
        <time>2014-09-04T12:57:14Z</time>
      </trkpt>
      <trkpt lat="42.83784" lon="-0.47922">
        <ele>1788.67041</ele>
        <time>2014-09-04T12:57:27Z</time>
      </trkpt>
      <trkpt lat="42.83782" lon="-0.47925">
        <ele>1792.034912</ele>
        <time>2014-09-04T12:57:41Z</time>
      </trkpt>
      <trkpt lat="42.8379" lon="-0.47935">
        <ele>1794.918701</ele>
        <time>2014-09-04T12:57:59Z</time>
      </trkpt>
      <trkpt lat="42.83796" lon="-0.47944">
        <ele>1796.841309</ele>
        <time>2014-09-04T12:58:14Z</time>
      </trkpt>
      <trkpt lat="42.83802" lon="-0.47953">
        <ele>1799.244629</ele>
        <time>2014-09-04T12:58:30Z</time>
      </trkpt>
      <trkpt lat="42.83805" lon="-0.4796">
        <ele>1802.128418</ele>
        <time>2014-09-04T12:58:45Z</time>
      </trkpt>
      <trkpt lat="42.83799" lon="-0.47966">
        <ele>1804.531982</ele>
        <time>2014-09-04T12:59:01Z</time>
      </trkpt>
      <trkpt lat="42.83799" lon="-0.47975">
        <ele>1807.416016</ele>
        <time>2014-09-04T12:59:17Z</time>
      </trkpt>
      <trkpt lat="42.8379" lon="-0.47965">
        <ele>1809.819092</ele>
        <time>2014-09-04T12:59:33Z</time>
      </trkpt>
      <trkpt lat="42.83782" lon="-0.47962">
        <ele>1810.780518</ele>
        <time>2014-09-04T12:59:46Z</time>
      </trkpt>
      <trkpt lat="42.8377" lon="-0.47958">
        <ele>1813.664307</ele>
        <time>2014-09-04T13:00:07Z</time>
      </trkpt>
      <trkpt lat="42.83764" lon="-0.47954">
        <ele>1816.54834</ele>
        <time>2014-09-04T13:00:21Z</time>
      </trkpt>
      <trkpt lat="42.83763" lon="-0.47952">
        <ele>1817.029053</ele>
        <time>2014-09-04T13:00:23Z</time>
      </trkpt>
      <trkpt lat="42.83753" lon="-0.4794">
        <ele>1818.470947</ele>
        <time>2014-09-04T13:00:42Z</time>
      </trkpt>
      <trkpt lat="42.8375" lon="-0.47945">
        <ele>1821.835693</ele>
        <time>2014-09-04T13:00:55Z</time>
      </trkpt>
      <trkpt lat="42.8375" lon="-0.47958">
        <ele>1822.797119</ele>
        <time>2014-09-04T13:01:08Z</time>
      </trkpt>
      <trkpt lat="42.83749" lon="-0.47967">
        <ele>1823.758301</ele>
        <time>2014-09-04T13:01:18Z</time>
      </trkpt>
      <trkpt lat="42.83749" lon="-0.47977">
        <ele>1825.680908</ele>
        <time>2014-09-04T13:01:30Z</time>
      </trkpt>
      <trkpt lat="42.83746" lon="-0.47986">
        <ele>1827.123047</ele>
        <time>2014-09-04T13:01:44Z</time>
      </trkpt>
      <trkpt lat="42.83747" lon="-0.47995">
        <ele>1830.487549</ele>
        <time>2014-09-04T13:01:56Z</time>
      </trkpt>
      <trkpt lat="42.83744" lon="-0.48005">
        <ele>1833.371338</ele>
        <time>2014-09-04T13:02:16Z</time>
      </trkpt>
      <trkpt lat="42.83744" lon="-0.48014">
        <ele>1836.736084</ele>
        <time>2014-09-04T13:02:30Z</time>
      </trkpt>
      <trkpt lat="42.83742" lon="-0.48021">
        <ele>1837.69751</ele>
        <time>2014-09-04T13:02:39Z</time>
      </trkpt>
      <trkpt lat="42.83735" lon="-0.48028">
        <ele>1838.658936</ele>
        <time>2014-09-04T13:02:49Z</time>
      </trkpt>
      <trkpt lat="42.83729" lon="-0.48032">
        <ele>1840.10083</ele>
        <time>2014-09-04T13:02:58Z</time>
      </trkpt>
      <trkpt lat="42.83724" lon="-0.48032">
        <ele>1840.581299</ele>
        <time>2014-09-04T13:03:09Z</time>
      </trkpt>
      <trkpt lat="42.83711" lon="-0.48039">
        <ele>1843.465332</ele>
        <time>2014-09-04T13:03:33Z</time>
      </trkpt>
      <trkpt lat="42.83702" lon="-0.48047">
        <ele>1845.868652</ele>
        <time>2014-09-04T13:03:46Z</time>
      </trkpt>
      <trkpt lat="42.837" lon="-0.48059">
        <ele>1848.271729</ele>
        <time>2014-09-04T13:03:59Z</time>
      </trkpt>
      <trkpt lat="42.83697" lon="-0.4807">
        <ele>1849.713867</ele>
        <time>2014-09-04T13:04:08Z</time>
      </trkpt>
      <trkpt lat="42.83691" lon="-0.48079">
        <ele>1849.713867</ele>
        <time>2014-09-04T13:04:18Z</time>
      </trkpt>
      <trkpt lat="42.83681" lon="-0.48084">
        <ele>1851.636475</ele>
        <time>2014-09-04T13:04:30Z</time>
      </trkpt>
      <trkpt lat="42.83676" lon="-0.48084">
        <ele>1853.078613</ele>
        <time>2014-09-04T13:04:36Z</time>
      </trkpt>
      <trkpt lat="42.83668" lon="-0.48087">
        <ele>1855.962402</ele>
        <time>2014-09-04T13:04:47Z</time>
      </trkpt>
      <trkpt lat="42.83661" lon="-0.48087">
        <ele>1857.404541</ele>
        <time>2014-09-04T13:04:56Z</time>
      </trkpt>
      <trkpt lat="42.83656" lon="-0.4809">
        <ele>1859.327148</ele>
        <time>2014-09-04T13:05:05Z</time>
      </trkpt>
      <trkpt lat="42.83654" lon="-0.48101">
        <ele>1861.730469</ele>
        <time>2014-09-04T13:05:18Z</time>
      </trkpt>
      <trkpt lat="42.83655" lon="-0.48117">
        <ele>1864.614258</ele>
        <time>2014-09-04T13:05:39Z</time>
      </trkpt>
      <trkpt lat="42.83656" lon="-0.48125">
        <ele>1867.97876</ele>
        <time>2014-09-04T13:05:49Z</time>
      </trkpt>
      <trkpt lat="42.83658" lon="-0.48132">
        <ele>1869.421143</ele>
        <time>2014-09-04T13:05:58Z</time>
      </trkpt>
      <trkpt lat="42.83655" lon="-0.4814">
        <ele>1870.863037</ele>
        <time>2014-09-04T13:06:09Z</time>
      </trkpt>
      <trkpt lat="42.83646" lon="-0.48146">
        <ele>1872.304932</ele>
        <time>2014-09-04T13:06:21Z</time>
      </trkpt>
      <trkpt lat="42.83646" lon="-0.4815">
        <ele>1874.227539</ele>
        <time>2014-09-04T13:06:31Z</time>
      </trkpt>
      <trkpt lat="42.83646" lon="-0.48161">
        <ele>1877.592041</ele>
        <time>2014-09-04T13:06:50Z</time>
      </trkpt>
      <trkpt lat="42.83651" lon="-0.48166">
        <ele>1879.033936</ele>
        <time>2014-09-04T13:07:01Z</time>
      </trkpt>
      <trkpt lat="42.83658" lon="-0.48168">
        <ele>1881.437256</ele>
        <time>2014-09-04T13:07:12Z</time>
      </trkpt>
      <trkpt lat="42.83666" lon="-0.48169">
        <ele>1881.437256</ele>
        <time>2014-09-04T13:07:24Z</time>
      </trkpt>
      <trkpt lat="42.83668" lon="-0.48174">
        <ele>1884.802246</ele>
        <time>2014-09-04T13:07:34Z</time>
      </trkpt>
      <trkpt lat="42.83664" lon="-0.48183">
        <ele>1885.763428</ele>
        <time>2014-09-04T13:07:47Z</time>
      </trkpt>
      <trkpt lat="42.83663" lon="-0.48185">
        <ele>1884.802246</ele>
        <time>2014-09-04T13:07:49Z</time>
      </trkpt>
      <trkpt lat="42.83664" lon="-0.48187">
        <ele>1887.686035</ele>
        <time>2014-09-04T13:07:54Z</time>
      </trkpt>
      <trkpt lat="42.83663" lon="-0.48188">
        <ele>1888.166748</ele>
        <time>2014-09-04T13:07:55Z</time>
      </trkpt>
      <trkpt lat="42.83659" lon="-0.48201">
        <ele>1890.089355</ele>
        <time>2014-09-04T13:08:12Z</time>
      </trkpt>
      <trkpt lat="42.83668" lon="-0.48207">
        <ele>1892.011963</ele>
        <time>2014-09-04T13:08:28Z</time>
      </trkpt>
      <trkpt lat="42.83676" lon="-0.48205">
        <ele>1894.415039</ele>
        <time>2014-09-04T13:08:41Z</time>
      </trkpt>
      <trkpt lat="42.83678" lon="-0.48212">
        <ele>1896.337891</ele>
        <time>2014-09-04T13:08:56Z</time>
      </trkpt>
      <trkpt lat="42.83678" lon="-0.48222">
        <ele>1898.740967</ele>
        <time>2014-09-04T13:09:08Z</time>
      </trkpt>
      <trkpt lat="42.83681" lon="-0.48233">
        <ele>1902.105713</ele>
        <time>2014-09-04T13:09:23Z</time>
      </trkpt>
      <trkpt lat="42.83682" lon="-0.48234">
        <ele>1902.586426</ele>
        <time>2014-09-04T13:09:25Z</time>
      </trkpt>
      <trkpt lat="42.83677" lon="-0.48244">
        <ele>1904.989746</ele>
        <time>2014-09-04T13:09:38Z</time>
      </trkpt>
      <trkpt lat="42.8368" lon="-0.48251">
        <ele>1907.873779</ele>
        <time>2014-09-04T13:09:52Z</time>
      </trkpt>
      <trkpt lat="42.83689" lon="-0.48252">
        <ele>1910.757568</ele>
        <time>2014-09-04T13:10:08Z</time>
      </trkpt>
      <trkpt lat="42.83689" lon="-0.48261">
        <ele>1911.718994</ele>
        <time>2014-09-04T13:10:19Z</time>
      </trkpt>
      <trkpt lat="42.83689" lon="-0.4827">
        <ele>1915.564209</ele>
        <time>2014-09-04T13:10:32Z</time>
      </trkpt>
      <trkpt lat="42.83687" lon="-0.48279">
        <ele>1916.525635</ele>
        <time>2014-09-04T13:10:45Z</time>
      </trkpt>
      <trkpt lat="42.83678" lon="-0.48286">
        <ele>1918.448242</ele>
        <time>2014-09-04T13:10:59Z</time>
      </trkpt>
      <trkpt lat="42.83673" lon="-0.48294">
        <ele>1921.812744</ele>
        <time>2014-09-04T13:11:12Z</time>
      </trkpt>
      <trkpt lat="42.83663" lon="-0.48293">
        <ele>1923.735352</ele>
        <time>2014-09-04T13:12:02Z</time>
      </trkpt>
      <trkpt lat="42.83661" lon="-0.48291">
        <ele>1924.696777</ele>
        <time>2014-09-04T13:12:06Z</time>
      </trkpt>
      <trkpt lat="42.83653" lon="-0.48292">
        <ele>1926.138672</ele>
        <time>2014-09-04T13:12:21Z</time>
      </trkpt>
      <trkpt lat="42.83648" lon="-0.48287">
        <ele>1926.619385</ele>
        <time>2014-09-04T13:12:33Z</time>
      </trkpt>
      <trkpt lat="42.83641" lon="-0.4828">
        <ele>1927.100098</ele>
        <time>2014-09-04T13:12:45Z</time>
      </trkpt>
      <trkpt lat="42.83636" lon="-0.48278">
        <ele>1929.983887</ele>
        <time>2014-09-04T13:12:56Z</time>
      </trkpt>
      <trkpt lat="42.83634" lon="-0.48277">
        <ele>1931.425781</ele>
        <time>2014-09-04T13:13:00Z</time>
      </trkpt>
      <trkpt lat="42.83627" lon="-0.48275">
        <ele>1932.86792</ele>
        <time>2014-09-04T13:13:15Z</time>
      </trkpt>
      <trkpt lat="42.83623" lon="-0.48272">
        <ele>1934.790771</ele>
        <time>2014-09-04T13:13:22Z</time>
      </trkpt>
      <trkpt lat="42.83616" lon="-0.48267">
        <ele>1937.674561</ele>
        <time>2014-09-04T13:13:35Z</time>
      </trkpt>
      <trkpt lat="42.83608" lon="-0.48265">
        <ele>1938.635986</ele>
        <time>2014-09-04T13:13:48Z</time>
      </trkpt>
      <trkpt lat="42.83598" lon="-0.48264">
        <ele>1940.077881</ele>
        <time>2014-09-04T13:14:02Z</time>
      </trkpt>
      <trkpt lat="42.83591" lon="-0.48262">
        <ele>1942.481201</ele>
        <time>2014-09-04T13:14:17Z</time>
      </trkpt>
      <trkpt lat="42.83592" lon="-0.48264">
        <ele>1943.923096</ele>
        <time>2014-09-04T13:14:21Z</time>
      </trkpt>
      <trkpt lat="42.83595" lon="-0.48271">
        <ele>1944.884277</ele>
        <time>2014-09-04T13:14:35Z</time>
      </trkpt>
      <trkpt lat="42.836" lon="-0.48282">
        <ele>1947.287598</ele>
        <time>2014-09-04T13:14:48Z</time>
      </trkpt>
      <trkpt lat="42.83605" lon="-0.48295">
        <ele>1950.171875</ele>
        <time>2014-09-04T13:15:05Z</time>
      </trkpt>
      <trkpt lat="42.8361" lon="-0.48302">
        <ele>1952.094238</ele>
        <time>2014-09-04T13:15:20Z</time>
      </trkpt>
      <trkpt lat="42.83614" lon="-0.48313">
        <ele>1954.978271</ele>
        <time>2014-09-04T13:15:36Z</time>
      </trkpt>
      <trkpt lat="42.83608" lon="-0.48322">
        <ele>1955.939453</ele>
        <time>2014-09-04T13:15:48Z</time>
      </trkpt>
      <trkpt lat="42.836" lon="-0.48326">
        <ele>1956.900879</ele>
        <time>2014-09-04T13:15:59Z</time>
      </trkpt>
      <trkpt lat="42.83599" lon="-0.48327">
        <ele>1957.381592</ele>
        <time>2014-09-04T13:16:00Z</time>
      </trkpt>
      <trkpt lat="42.83589" lon="-0.48336">
        <ele>1958.342773</ele>
        <time>2014-09-04T13:16:12Z</time>
      </trkpt>
      <trkpt lat="42.83585" lon="-0.48342">
        <ele>1959.304199</ele>
        <time>2014-09-04T13:16:22Z</time>
      </trkpt>
      <trkpt lat="42.83581" lon="-0.48349">
        <ele>1962.668701</ele>
        <time>2014-09-04T13:16:28Z</time>
      </trkpt>
      <trkpt lat="42.83582" lon="-0.48349">
        <ele>1961.226807</ele>
        <time>2014-09-04T13:16:29Z</time>
      </trkpt>
      <trkpt lat="42.83574" lon="-0.48361">
        <ele>1960.746094</ele>
        <time>2014-09-04T13:16:43Z</time>
      </trkpt>
      <trkpt lat="42.83556" lon="-0.48378">
        <ele>1961.70752</ele>
        <time>2014-09-04T13:17:05Z</time>
      </trkpt>
      <trkpt lat="42.8354" lon="-0.48388">
        <ele>1958.823486</ele>
        <time>2014-09-04T13:17:23Z</time>
      </trkpt>
      <trkpt lat="42.83529" lon="-0.48395">
        <ele>1955.939453</ele>
        <time>2014-09-04T13:17:38Z</time>
      </trkpt>
      <trkpt lat="42.83521" lon="-0.48403">
        <ele>1955.939453</ele>
        <time>2014-09-04T13:17:50Z</time>
      </trkpt>
      <trkpt lat="42.83511" lon="-0.48419">
        <ele>1954.01709</ele>
        <time>2014-09-04T13:18:09Z</time>
      </trkpt>
      <trkpt lat="42.83503" lon="-0.48429">
        <ele>1950.652344</ele>
        <time>2014-09-04T13:18:22Z</time>
      </trkpt>
      <trkpt lat="42.8349" lon="-0.48444">
        <ele>1949.691162</ele>
        <time>2014-09-04T13:18:39Z</time>
      </trkpt>
      <trkpt lat="42.83475" lon="-0.48469">
        <ele>1949.691162</ele>
        <time>2014-09-04T13:19:01Z</time>
      </trkpt>
      <trkpt lat="42.83474" lon="-0.48471">
        <ele>1949.691162</ele>
        <time>2014-09-04T13:19:03Z</time>
      </trkpt>
      <trkpt lat="42.83472" lon="-0.48486">
        <ele>1948.249023</ele>
        <time>2014-09-04T13:19:15Z</time>
      </trkpt>
      <trkpt lat="42.83471" lon="-0.48488">
        <ele>1947.768311</ele>
        <time>2014-09-04T13:19:17Z</time>
      </trkpt>
      <trkpt lat="42.83464" lon="-0.48495">
        <ele>1945.845703</ele>
        <time>2014-09-04T13:19:26Z</time>
      </trkpt>
      <trkpt lat="42.83456" lon="-0.48505">
        <ele>1946.326416</ele>
        <time>2014-09-04T13:19:36Z</time>
      </trkpt>
      <trkpt lat="42.83456" lon="-0.48511">
        <ele>1946.326416</ele>
        <time>2014-09-04T13:19:41Z</time>
      </trkpt>
      <trkpt lat="42.83455" lon="-0.48517">
        <ele>1946.326416</ele>
        <time>2014-09-04T13:19:45Z</time>
      </trkpt>
      <trkpt lat="42.83456" lon="-0.48556">
        <ele>1947.768311</ele>
        <time>2014-09-04T13:20:11Z</time>
      </trkpt>
      <trkpt lat="42.83467" lon="-0.48591">
        <ele>1948.249023</ele>
        <time>2014-09-04T13:20:35Z</time>
      </trkpt>
      <trkpt lat="42.83478" lon="-0.48612">
        <ele>1949.691162</ele>
        <time>2014-09-04T13:20:53Z</time>
      </trkpt>
      <trkpt lat="42.83485" lon="-0.48629">
        <ele>1952.094238</ele>
        <time>2014-09-04T13:21:10Z</time>
      </trkpt>
      <trkpt lat="42.83486" lon="-0.48644">
        <ele>1953.536377</ele>
        <time>2014-09-04T13:21:26Z</time>
      </trkpt>
      <trkpt lat="42.83488" lon="-0.48648">
        <ele>1952.574951</ele>
        <time>2014-09-04T13:21:31Z</time>
      </trkpt>
      <trkpt lat="42.83484" lon="-0.48677">
        <ele>1954.01709</ele>
        <time>2014-09-04T13:21:52Z</time>
      </trkpt>
      <trkpt lat="42.83483" lon="-0.48694">
        <ele>1954.01709</ele>
        <time>2014-09-04T13:22:03Z</time>
      </trkpt>
      <trkpt lat="42.83482" lon="-0.48699">
        <ele>1954.497559</ele>
        <time>2014-09-04T13:22:07Z</time>
      </trkpt>
      <trkpt lat="42.83483" lon="-0.48714">
        <ele>1954.978271</ele>
        <time>2014-09-04T13:22:17Z</time>
      </trkpt>
      <trkpt lat="42.83482" lon="-0.4874">
        <ele>1955.458984</ele>
        <time>2014-09-04T13:22:35Z</time>
      </trkpt>
      <trkpt lat="42.83484" lon="-0.48753">
        <ele>1956.900879</ele>
        <time>2014-09-04T13:22:44Z</time>
      </trkpt>
      <trkpt lat="42.83486" lon="-0.48761">
        <ele>1956.420166</ele>
        <time>2014-09-04T13:22:49Z</time>
      </trkpt>
      <trkpt lat="42.83488" lon="-0.48767">
        <ele>1956.900879</ele>
        <time>2014-09-04T13:22:54Z</time>
      </trkpt>
      <trkpt lat="42.83489" lon="-0.48772">
        <ele>1957.862305</ele>
        <time>2014-09-04T13:22:58Z</time>
      </trkpt>
      <trkpt lat="42.83494" lon="-0.48799">
        <ele>1957.862305</ele>
        <time>2014-09-04T13:23:17Z</time>
      </trkpt>
      <trkpt lat="42.83488" lon="-0.48826">
        <ele>1960.746094</ele>
        <time>2014-09-04T13:23:38Z</time>
      </trkpt>
      <trkpt lat="42.83487" lon="-0.4883">
        <ele>1962.187988</ele>
        <time>2014-09-04T13:23:42Z</time>
      </trkpt>
      <trkpt lat="42.8349" lon="-0.48842">
        <ele>1965.072266</ele>
        <time>2014-09-04T13:23:57Z</time>
      </trkpt>
      <trkpt lat="42.83491" lon="-0.48861">
        <ele>1966.033447</ele>
        <time>2014-09-04T13:24:12Z</time>
      </trkpt>
      <trkpt lat="42.83491" lon="-0.48864">
        <ele>1966.033447</ele>
        <time>2014-09-04T13:24:14Z</time>
      </trkpt>
      <trkpt lat="42.83495" lon="-0.48879">
        <ele>1966.51416</ele>
        <time>2014-09-04T13:24:26Z</time>
      </trkpt>
      <trkpt lat="42.8349" lon="-0.48904">
        <ele>1968.91748</ele>
        <time>2014-09-04T13:24:44Z</time>
      </trkpt>
      <trkpt lat="42.83485" lon="-0.48935">
        <ele>1970.359375</ele>
        <time>2014-09-04T13:25:05Z</time>
      </trkpt>
      <trkpt lat="42.83481" lon="-0.48954">
        <ele>1972.762695</ele>
        <time>2014-09-04T13:25:23Z</time>
      </trkpt>
      <trkpt lat="42.83477" lon="-0.48957">
        <ele>1974.20459</ele>
        <time>2014-09-04T13:25:28Z</time>
      </trkpt>
      <trkpt lat="42.83465" lon="-0.48968">
        <ele>1976.127197</ele>
        <time>2014-09-04T13:25:42Z</time>
      </trkpt>
      <trkpt lat="42.83462" lon="-0.48985">
        <ele>1977.569092</ele>
        <time>2014-09-04T13:25:58Z</time>
      </trkpt>
      <trkpt lat="42.83461" lon="-0.48995">
        <ele>1979.010986</ele>
        <time>2014-09-04T13:26:08Z</time>
      </trkpt>
      <trkpt lat="42.83456" lon="-0.49018">
        <ele>1981.414551</ele>
        <time>2014-09-04T13:26:27Z</time>
      </trkpt>
      <trkpt lat="42.83448" lon="-0.49028">
        <ele>1984.298584</ele>
        <time>2014-09-04T13:26:41Z</time>
      </trkpt>
      <trkpt lat="42.83438" lon="-0.49038">
        <ele>1986.221191</ele>
        <time>2014-09-04T13:26:55Z</time>
      </trkpt>
      <trkpt lat="42.83432" lon="-0.49048">
        <ele>1988.143799</ele>
        <time>2014-09-04T13:27:06Z</time>
      </trkpt>
      <trkpt lat="42.83428" lon="-0.49053">
        <ele>1988.143799</ele>
        <time>2014-09-04T13:27:12Z</time>
      </trkpt>
      <trkpt lat="42.83419" lon="-0.49068">
        <ele>1991.508301</ele>
        <time>2014-09-04T13:27:29Z</time>
      </trkpt>
      <trkpt lat="42.83407" lon="-0.49082">
        <ele>1993.430908</ele>
        <time>2014-09-04T13:27:46Z</time>
      </trkpt>
      <trkpt lat="42.83397" lon="-0.49104">
        <ele>1994.872803</ele>
        <time>2014-09-04T13:28:05Z</time>
      </trkpt>
      <trkpt lat="42.83393" lon="-0.49124">
        <ele>1996.795654</ele>
        <time>2014-09-04T13:28:22Z</time>
      </trkpt>
      <trkpt lat="42.83392" lon="-0.49137">
        <ele>2000.1604</ele>
        <time>2014-09-04T13:28:33Z</time>
      </trkpt>
      <trkpt lat="42.83399" lon="-0.49148">
        <ele>2003.044189</ele>
        <time>2014-09-04T13:28:48Z</time>
      </trkpt>
      <trkpt lat="42.83407" lon="-0.49153">
        <ele>2004.966797</ele>
        <time>2014-09-04T13:29:01Z</time>
      </trkpt>
      <trkpt lat="42.83415" lon="-0.4916">
        <ele>2005.927979</ele>
        <time>2014-09-04T13:29:19Z</time>
      </trkpt>
      <trkpt lat="42.83417" lon="-0.49161">
        <ele>2004.966797</ele>
        <time>2014-09-04T13:29:51Z</time>
      </trkpt>
      <trkpt lat="42.83423" lon="-0.49161">
        <ele>2005.44751</ele>
        <time>2014-09-04T13:30:24Z</time>
      </trkpt>
      <trkpt lat="42.83421" lon="-0.49161">
        <ele>2006.889404</ele>
        <time>2014-09-04T13:30:30Z</time>
      </trkpt>
      <trkpt lat="42.83415" lon="-0.49165">
        <ele>2006.889404</ele>
        <time>2014-09-04T13:31:06Z</time>
      </trkpt>
      <trkpt lat="42.83417" lon="-0.49173">
        <ele>2008.812012</ele>
        <time>2014-09-04T13:31:15Z</time>
      </trkpt>
      <trkpt lat="42.83424" lon="-0.49175">
        <ele>2009.773193</ele>
        <time>2014-09-04T13:31:22Z</time>
      </trkpt>
      <trkpt lat="42.8344" lon="-0.49179">
        <ele>2012.176758</ele>
        <time>2014-09-04T13:31:37Z</time>
      </trkpt>
      <trkpt lat="42.8346" lon="-0.49188">
        <ele>2014.099365</ele>
        <time>2014-09-04T13:31:55Z</time>
      </trkpt>
      <trkpt lat="42.83465" lon="-0.4919">
        <ele>2015.541504</ele>
        <time>2014-09-04T13:32:00Z</time>
      </trkpt>
      <trkpt lat="42.83466" lon="-0.4919">
        <ele>2015.541504</ele>
        <time>2014-09-04T13:32:01Z</time>
      </trkpt>
      <trkpt lat="42.83476" lon="-0.49184">
        <ele>2015.060791</ele>
        <time>2014-09-04T13:32:09Z</time>
      </trkpt>
      <trkpt lat="42.83498" lon="-0.49173">
        <ele>2018.425293</ele>
        <time>2014-09-04T13:32:28Z</time>
      </trkpt>
      <trkpt lat="42.83512" lon="-0.49165">
        <ele>2021.789795</ele>
        <time>2014-09-04T13:32:41Z</time>
      </trkpt>
      <trkpt lat="42.83513" lon="-0.49164">
        <ele>2021.309082</ele>
        <time>2014-09-04T13:32:42Z</time>
      </trkpt>
      <trkpt lat="42.8353" lon="-0.49155">
        <ele>2024.673828</ele>
        <time>2014-09-04T13:32:58Z</time>
      </trkpt>
      <trkpt lat="42.83546" lon="-0.49149">
        <ele>2028.038574</ele>
        <time>2014-09-04T13:33:13Z</time>
      </trkpt>
      <trkpt lat="42.83564" lon="-0.49139">
        <ele>2031.403076</ele>
        <time>2014-09-04T13:33:30Z</time>
      </trkpt>
      <trkpt lat="42.83573" lon="-0.49128">
        <ele>2033.806396</ele>
        <time>2014-09-04T13:33:40Z</time>
      </trkpt>
      <trkpt lat="42.83585" lon="-0.49121">
        <ele>2036.209717</ele>
        <time>2014-09-04T13:33:55Z</time>
      </trkpt>
      <trkpt lat="42.83591" lon="-0.49115">
        <ele>2036.690186</ele>
        <time>2014-09-04T13:34:01Z</time>
      </trkpt>
      <trkpt lat="42.83594" lon="-0.49114">
        <ele>2037.170898</ele>
        <time>2014-09-04T13:34:04Z</time>
      </trkpt>
      <trkpt lat="42.83597" lon="-0.49108">
        <ele>2037.651611</ele>
        <time>2014-09-04T13:34:08Z</time>
      </trkpt>
      <trkpt lat="42.83599" lon="-0.49105">
        <ele>2038.132324</ele>
        <time>2014-09-04T13:34:10Z</time>
      </trkpt>
      <trkpt lat="42.83601" lon="-0.49103">
        <ele>2038.613037</ele>
        <time>2014-09-04T13:34:13Z</time>
      </trkpt>
      <trkpt lat="42.83606" lon="-0.49097">
        <ele>2040.054932</ele>
        <time>2014-09-04T13:34:21Z</time>
      </trkpt>
      <trkpt lat="42.83614" lon="-0.49093">
        <ele>2043.419434</ele>
        <time>2014-09-04T13:34:36Z</time>
      </trkpt>
      <trkpt lat="42.83622" lon="-0.491">
        <ele>2044.861572</ele>
        <time>2014-09-04T13:34:49Z</time>
      </trkpt>
      <trkpt lat="42.83625" lon="-0.49106">
        <ele>2048.226074</ele>
        <time>2014-09-04T13:34:57Z</time>
      </trkpt>
      <trkpt lat="42.83625" lon="-0.49106">
        <ele>2048.226074</ele>
        <time>2014-09-04T13:34:58Z</time>
      </trkpt>
      <trkpt lat="42.83628" lon="-0.49102">
        <ele>2049.668213</ele>
        <time>2014-09-04T13:35:02Z</time>
      </trkpt>
      <trkpt lat="42.83635" lon="-0.49096">
        <ele>2052.552002</ele>
        <time>2014-09-04T13:35:16Z</time>
      </trkpt>
      <trkpt lat="42.83639" lon="-0.49099">
        <ele>2055.436035</ele>
        <time>2014-09-04T13:35:30Z</time>
      </trkpt>
      <trkpt lat="42.83639" lon="-0.49104">
        <ele>2055.916504</ele>
        <time>2014-09-04T13:35:34Z</time>
      </trkpt>
      <trkpt lat="42.83641" lon="-0.49114">
        <ele>2058.319824</ele>
        <time>2014-09-04T13:35:49Z</time>
      </trkpt>
      <trkpt lat="42.83644" lon="-0.49112">
        <ele>2058.319824</ele>
        <time>2014-09-04T13:35:53Z</time>
      </trkpt>
      <trkpt lat="42.83652" lon="-0.491">
        <ele>2061.684814</ele>
        <time>2014-09-04T13:36:05Z</time>
      </trkpt>
      <trkpt lat="42.83658" lon="-0.4909">
        <ele>2064.568604</ele>
        <time>2014-09-04T13:36:17Z</time>
      </trkpt>
      <trkpt lat="42.83676" lon="-0.49085">
        <ele>2066.971924</ele>
        <time>2014-09-04T13:36:35Z</time>
      </trkpt>
      <trkpt lat="42.83687" lon="-0.49085">
        <ele>2069.375244</ele>
        <time>2014-09-04T13:36:46Z</time>
      </trkpt>
      <trkpt lat="42.83704" lon="-0.49073">
        <ele>2072.739746</ele>
        <time>2014-09-04T13:37:04Z</time>
      </trkpt>
      <trkpt lat="42.83704" lon="-0.49077">
        <ele>2073.220459</ele>
        <time>2014-09-04T13:37:08Z</time>
      </trkpt>
      <trkpt lat="42.83704" lon="-0.49078">
        <ele>2073.220459</ele>
        <time>2014-09-04T13:37:09Z</time>
      </trkpt>
      <trkpt lat="42.83702" lon="-0.49094">
        <ele>2076.585205</ele>
        <time>2014-09-04T13:37:21Z</time>
      </trkpt>
      <trkpt lat="42.83702" lon="-0.49095">
        <ele>2075.623535</ele>
        <time>2014-09-04T13:37:22Z</time>
      </trkpt>
      <trkpt lat="42.83701" lon="-0.49101">
        <ele>2077.065918</ele>
        <time>2014-09-04T13:37:27Z</time>
      </trkpt>
      <trkpt lat="42.83699" lon="-0.4911">
        <ele>2078.507813</ele>
        <time>2014-09-04T13:37:34Z</time>
      </trkpt>
      <trkpt lat="42.83696" lon="-0.49117">
        <ele>2079.468994</ele>
        <time>2014-09-04T13:37:40Z</time>
      </trkpt>
      <trkpt lat="42.8369" lon="-0.49131">
        <ele>2082.353027</ele>
        <time>2014-09-04T13:37:55Z</time>
      </trkpt>
      <trkpt lat="42.83684" lon="-0.49139">
        <ele>2085.717529</ele>
        <time>2014-09-04T13:38:07Z</time>
      </trkpt>
      <trkpt lat="42.83674" lon="-0.49146">
        <ele>2087.159424</ele>
        <time>2014-09-04T13:38:25Z</time>
      </trkpt>
      <trkpt lat="42.83669" lon="-0.49157">
        <ele>2090.523926</ele>
        <time>2014-09-04T13:38:38Z</time>
      </trkpt>
      <trkpt lat="42.83671" lon="-0.49167">
        <ele>2092.92749</ele>
        <time>2014-09-04T13:38:49Z</time>
      </trkpt>
      <trkpt lat="42.83675" lon="-0.49174">
        <ele>2092.447021</ele>
        <time>2014-09-04T13:38:54Z</time>
      </trkpt>
      <trkpt lat="42.837" lon="-0.49178">
        <ele>2091.485352</ele>
        <time>2014-09-04T13:39:14Z</time>
      </trkpt>
      <trkpt lat="42.83721" lon="-0.49197">
        <ele>2092.447021</ele>
        <time>2014-09-04T13:39:35Z</time>
      </trkpt>
      <trkpt lat="42.83737" lon="-0.49216">
        <ele>2092.92749</ele>
        <time>2014-09-04T13:39:53Z</time>
      </trkpt>
      <trkpt lat="42.8374" lon="-0.49219">
        <ele>2092.92749</ele>
        <time>2014-09-04T13:39:56Z</time>
      </trkpt>
      <trkpt lat="42.83761" lon="-0.49234">
        <ele>2091.485352</ele>
        <time>2014-09-04T13:40:16Z</time>
      </trkpt>
      <trkpt lat="42.83782" lon="-0.4925">
        <ele>2090.523926</ele>
        <time>2014-09-04T13:40:35Z</time>
      </trkpt>
      <trkpt lat="42.83804" lon="-0.49269">
        <ele>2091.485352</ele>
        <time>2014-09-04T13:40:56Z</time>
      </trkpt>
      <trkpt lat="42.83824" lon="-0.49278">
        <ele>2091.485352</ele>
        <time>2014-09-04T13:41:14Z</time>
      </trkpt>
      <trkpt lat="42.8384" lon="-0.49275">
        <ele>2090.043457</ele>
        <time>2014-09-04T13:41:27Z</time>
      </trkpt>
      <trkpt lat="42.83866" lon="-0.49285">
        <ele>2089.082031</ele>
        <time>2014-09-04T13:41:49Z</time>
      </trkpt>
      <trkpt lat="42.83883" lon="-0.493">
        <ele>2090.523926</ele>
        <time>2014-09-04T13:42:06Z</time>
      </trkpt>
      <trkpt lat="42.83891" lon="-0.49309">
        <ele>2091.485352</ele>
        <time>2014-09-04T13:42:15Z</time>
      </trkpt>
      <trkpt lat="42.83906" lon="-0.49302">
        <ele>2091.966064</ele>
        <time>2014-09-04T13:42:35Z</time>
      </trkpt>
      <trkpt lat="42.8391" lon="-0.49302">
        <ele>2090.043457</ele>
        <time>2014-09-04T13:42:42Z</time>
      </trkpt>
      <trkpt lat="42.83912" lon="-0.49297">
        <ele>2088.601563</ele>
        <time>2014-09-04T13:42:47Z</time>
      </trkpt>
      <trkpt lat="42.83921" lon="-0.49283">
        <ele>2086.678711</ele>
        <time>2014-09-04T13:43:02Z</time>
      </trkpt>
      <trkpt lat="42.83934" lon="-0.49262">
        <ele>2083.794922</ele>
        <time>2014-09-04T13:43:19Z</time>
      </trkpt>
      <trkpt lat="42.83949" lon="-0.49244">
        <ele>2083.314209</ele>
        <time>2014-09-04T13:43:34Z</time>
      </trkpt>
      <trkpt lat="42.83972" lon="-0.49252">
        <ele>2085.236816</ele>
        <time>2014-09-04T13:43:53Z</time>
      </trkpt>
      <trkpt lat="42.83979" lon="-0.49251">
        <ele>2086.678711</ele>
        <time>2014-09-04T13:44:01Z</time>
      </trkpt>
      <trkpt lat="42.83996" lon="-0.49241">
        <ele>2084.756348</ele>
        <time>2014-09-04T13:44:19Z</time>
      </trkpt>
      <trkpt lat="42.84005" lon="-0.49235">
        <ele>2085.717529</ele>
        <time>2014-09-04T13:44:30Z</time>
      </trkpt>
      <trkpt lat="42.84008" lon="-0.49229">
        <ele>2084.756348</ele>
        <time>2014-09-04T13:44:35Z</time>
      </trkpt>
      <trkpt lat="42.84015" lon="-0.49218">
        <ele>2084.275635</ele>
        <time>2014-09-04T13:44:44Z</time>
      </trkpt>
      <trkpt lat="42.84019" lon="-0.49217">
        <ele>2083.314209</ele>
        <time>2014-09-04T13:44:48Z</time>
      </trkpt>
      <trkpt lat="42.84035" lon="-0.49204">
        <ele>2082.833496</ele>
        <time>2014-09-04T13:45:04Z</time>
      </trkpt>
      <trkpt lat="42.84056" lon="-0.49224">
        <ele>2083.314209</ele>
        <time>2014-09-04T13:45:26Z</time>
      </trkpt>
      <trkpt lat="42.84072" lon="-0.49242">
        <ele>2083.314209</ele>
        <time>2014-09-04T13:45:45Z</time>
      </trkpt>
      <trkpt lat="42.84086" lon="-0.49251">
        <ele>2081.872314</ele>
        <time>2014-09-04T13:46:02Z</time>
      </trkpt>
      <trkpt lat="42.84086" lon="-0.49252">
        <ele>2081.391602</ele>
        <time>2014-09-04T13:46:03Z</time>
      </trkpt>
      <trkpt lat="42.84088" lon="-0.49256">
        <ele>2081.391602</ele>
        <time>2014-09-04T13:46:06Z</time>
      </trkpt>
      <trkpt lat="42.84096" lon="-0.49264">
        <ele>2082.353027</ele>
        <time>2014-09-04T13:46:15Z</time>
      </trkpt>
      <trkpt lat="42.84106" lon="-0.49277">
        <ele>2083.314209</ele>
        <time>2014-09-04T13:46:32Z</time>
      </trkpt>
      <trkpt lat="42.84115" lon="-0.49287">
        <ele>2082.353027</ele>
        <time>2014-09-04T13:46:46Z</time>
      </trkpt>
      <trkpt lat="42.84116" lon="-0.49288">
        <ele>2082.833496</ele>
        <time>2014-09-04T13:46:47Z</time>
      </trkpt>
      <trkpt lat="42.8413" lon="-0.493">
        <ele>2083.314209</ele>
        <time>2014-09-04T13:47:05Z</time>
      </trkpt>
      <trkpt lat="42.84134" lon="-0.49302">
        <ele>2084.275635</ele>
        <time>2014-09-04T13:47:10Z</time>
      </trkpt>
      <trkpt lat="42.84151" lon="-0.49299">
        <ele>2084.275635</ele>
        <time>2014-09-04T13:47:27Z</time>
      </trkpt>
      <trkpt lat="42.84164" lon="-0.49299">
        <ele>2084.756348</ele>
        <time>2014-09-04T13:47:40Z</time>
      </trkpt>
      <trkpt lat="42.84177" lon="-0.49295">
        <ele>2083.314209</ele>
        <time>2014-09-04T13:47:57Z</time>
      </trkpt>
      <trkpt lat="42.84183" lon="-0.4929">
        <ele>2082.353027</ele>
        <time>2014-09-04T13:48:10Z</time>
      </trkpt>
      <trkpt lat="42.84188" lon="-0.49284">
        <ele>2079.468994</ele>
        <time>2014-09-04T13:48:19Z</time>
      </trkpt>
      <trkpt lat="42.84202" lon="-0.49283">
        <ele>2078.0271</ele>
        <time>2014-09-04T13:48:34Z</time>
      </trkpt>
      <trkpt lat="42.8421" lon="-0.49286">
        <ele>2076.585205</ele>
        <time>2014-09-04T13:48:48Z</time>
      </trkpt>
      <trkpt lat="42.84217" lon="-0.49286">
        <ele>2076.104492</ele>
        <time>2014-09-04T13:48:57Z</time>
      </trkpt>
      <trkpt lat="42.84225" lon="-0.49276">
        <ele>2074.662354</ele>
        <time>2014-09-04T13:49:09Z</time>
      </trkpt>
      <trkpt lat="42.84233" lon="-0.4927">
        <ele>2072.259033</ele>
        <time>2014-09-04T13:49:25Z</time>
      </trkpt>
      <trkpt lat="42.84241" lon="-0.49264">
        <ele>2070.336426</ele>
        <time>2014-09-04T13:49:35Z</time>
      </trkpt>
      <trkpt lat="42.84256" lon="-0.49248">
        <ele>2067.933105</ele>
        <time>2014-09-04T13:49:56Z</time>
      </trkpt>
      <trkpt lat="42.84267" lon="-0.49246">
        <ele>2067.933105</ele>
        <time>2014-09-04T13:50:06Z</time>
      </trkpt>
      <trkpt lat="42.84275" lon="-0.4924">
        <ele>2066.971924</ele>
        <time>2014-09-04T13:50:21Z</time>
      </trkpt>
      <trkpt lat="42.84278" lon="-0.49242">
        <ele>2065.530029</ele>
        <time>2014-09-04T13:50:26Z</time>
      </trkpt>
      <trkpt lat="42.84286" lon="-0.49251">
        <ele>2064.087891</ele>
        <time>2014-09-04T13:50:40Z</time>
      </trkpt>
      <trkpt lat="42.84293" lon="-0.49258">
        <ele>2062.645996</ele>
        <time>2014-09-04T13:50:51Z</time>
      </trkpt>
      <trkpt lat="42.84297" lon="-0.49257">
        <ele>2062.165283</ele>
        <time>2014-09-04T13:51:13Z</time>
      </trkpt>
      <trkpt lat="42.84303" lon="-0.49256">
        <ele>2061.684814</ele>
        <time>2014-09-04T13:51:46Z</time>
      </trkpt>
      <trkpt lat="42.84319" lon="-0.49249">
        <ele>2060.242676</ele>
        <time>2014-09-04T13:52:04Z</time>
      </trkpt>
      <trkpt lat="42.84329" lon="-0.49248">
        <ele>2058.319824</ele>
        <time>2014-09-04T13:52:17Z</time>
      </trkpt>
      <trkpt lat="42.84346" lon="-0.49246">
        <ele>2058.800537</ele>
        <time>2014-09-04T13:52:33Z</time>
      </trkpt>
      <trkpt lat="42.84365" lon="-0.49245">
        <ele>2058.319824</ele>
        <time>2014-09-04T13:52:51Z</time>
      </trkpt>
      <trkpt lat="42.84384" lon="-0.49241">
        <ele>2058.319824</ele>
        <time>2014-09-04T13:53:08Z</time>
      </trkpt>
      <trkpt lat="42.84393" lon="-0.49231">
        <ele>2055.916504</ele>
        <time>2014-09-04T13:53:23Z</time>
      </trkpt>
      <trkpt lat="42.84396" lon="-0.4923">
        <ele>2054.955322</ele>
        <time>2014-09-04T13:53:28Z</time>
      </trkpt>
      <trkpt lat="42.84405" lon="-0.49225">
        <ele>2054.474609</ele>
        <time>2014-09-04T13:53:43Z</time>
      </trkpt>
      <trkpt lat="42.84413" lon="-0.49224">
        <ele>2053.032715</ele>
        <time>2014-09-04T13:53:54Z</time>
      </trkpt>
      <trkpt lat="42.84415" lon="-0.49224">
        <ele>2053.032715</ele>
        <time>2014-09-04T13:53:56Z</time>
      </trkpt>
      <trkpt lat="42.8443" lon="-0.49228">
        <ele>2052.552002</ele>
        <time>2014-09-04T13:54:13Z</time>
      </trkpt>
      <trkpt lat="42.84442" lon="-0.49234">
        <ele>2049.1875</ele>
        <time>2014-09-04T13:54:26Z</time>
      </trkpt>
      <trkpt lat="42.84443" lon="-0.49235">
        <ele>2049.668213</ele>
        <time>2014-09-04T13:54:28Z</time>
      </trkpt>
      <trkpt lat="42.84446" lon="-0.49237">
        <ele>2048.706787</ele>
        <time>2014-09-04T13:54:31Z</time>
      </trkpt>
      <trkpt lat="42.84447" lon="-0.49237">
        <ele>2049.1875</ele>
        <time>2014-09-04T13:54:32Z</time>
      </trkpt>
      <trkpt lat="42.84461" lon="-0.49237">
        <ele>2048.226074</ele>
        <time>2014-09-04T13:54:47Z</time>
      </trkpt>
      <trkpt lat="42.84462" lon="-0.49237">
        <ele>2047.264893</ele>
        <time>2014-09-04T13:54:49Z</time>
      </trkpt>
      <trkpt lat="42.84481" lon="-0.4924">
        <ele>2049.1875</ele>
        <time>2014-09-04T13:55:08Z</time>
      </trkpt>
      <trkpt lat="42.84493" lon="-0.49248">
        <ele>2046.78418</ele>
        <time>2014-09-04T13:55:22Z</time>
      </trkpt>
      <trkpt lat="42.84504" lon="-0.49255">
        <ele>2046.78418</ele>
        <time>2014-09-04T13:55:37Z</time>
      </trkpt>
      <trkpt lat="42.84505" lon="-0.49262">
        <ele>2045.822998</ele>
        <time>2014-09-04T13:55:52Z</time>
      </trkpt>
      <trkpt lat="42.8451" lon="-0.49268">
        <ele>2045.822998</ele>
        <time>2014-09-04T13:56:03Z</time>
      </trkpt>
      <trkpt lat="42.84508" lon="-0.49271">
        <ele>2044.380859</ele>
        <time>2014-09-04T13:57:13Z</time>
      </trkpt>
      <trkpt lat="42.84511" lon="-0.49271">
        <ele>2045.822998</ele>
        <time>2014-09-04T13:58:42Z</time>
      </trkpt>
      <trkpt lat="42.84511" lon="-0.4927">
        <ele>2045.822998</ele>
        <time>2014-09-04T13:59:17Z</time>
      </trkpt>
      <trkpt lat="42.84514" lon="-0.49267">
        <ele>2045.822998</ele>
        <time>2014-09-04T14:00:05Z</time>
      </trkpt>
      <trkpt lat="42.84514" lon="-0.49277">
        <ele>2045.342285</ele>
        <time>2014-09-04T14:00:21Z</time>
      </trkpt>
      <trkpt lat="42.84514" lon="-0.4929">
        <ele>2044.861572</ele>
        <time>2014-09-04T14:00:36Z</time>
      </trkpt>
      <trkpt lat="42.84521" lon="-0.49295">
        <ele>2042.458252</ele>
        <time>2014-09-04T14:00:51Z</time>
      </trkpt>
      <trkpt lat="42.84527" lon="-0.49297">
        <ele>2041.016113</ele>
        <time>2014-09-04T14:01:05Z</time>
      </trkpt>
      <trkpt lat="42.84536" lon="-0.49299">
        <ele>2039.574219</ele>
        <time>2014-09-04T14:01:22Z</time>
      </trkpt>
      <trkpt lat="42.84545" lon="-0.49297">
        <ele>2036.690186</ele>
        <time>2014-09-04T14:01:39Z</time>
      </trkpt>
      <trkpt lat="42.84554" lon="-0.49302">
        <ele>2034.767822</ele>
        <time>2014-09-04T14:01:57Z</time>
      </trkpt>
      <trkpt lat="42.8456" lon="-0.49302">
        <ele>2032.364502</ele>
        <time>2014-09-04T14:02:12Z</time>
      </trkpt>
      <trkpt lat="42.84564" lon="-0.49306">
        <ele>2032.364502</ele>
        <time>2014-09-04T14:02:26Z</time>
      </trkpt>
      <trkpt lat="42.84568" lon="-0.49311">
        <ele>2031.883789</ele>
        <time>2014-09-04T14:02:48Z</time>
      </trkpt>
      <trkpt lat="42.84575" lon="-0.49317">
        <ele>2032.364502</ele>
        <time>2014-09-04T14:03:03Z</time>
      </trkpt>
      <trkpt lat="42.84583" lon="-0.49328">
        <ele>2030.441895</ele>
        <time>2014-09-04T14:03:18Z</time>
      </trkpt>
      <trkpt lat="42.84586" lon="-0.49346">
        <ele>2027.077148</ele>
        <time>2014-09-04T14:03:36Z</time>
      </trkpt>
      <trkpt lat="42.84587" lon="-0.4936">
        <ele>2025.154297</ele>
        <time>2014-09-04T14:03:52Z</time>
      </trkpt>
      <trkpt lat="42.84589" lon="-0.4936">
        <ele>2023.712402</ele>
        <time>2014-09-04T14:04:12Z</time>
      </trkpt>
      <trkpt lat="42.84595" lon="-0.49345">
        <ele>2023.231934</ele>
        <time>2014-09-04T14:04:31Z</time>
      </trkpt>
      <trkpt lat="42.846" lon="-0.49335">
        <ele>2019.867188</ele>
        <time>2014-09-04T14:04:44Z</time>
      </trkpt>
      <trkpt lat="42.84603" lon="-0.49322">
        <ele>2018.425293</ele>
        <time>2014-09-04T14:04:59Z</time>
      </trkpt>
      <trkpt lat="42.84605" lon="-0.49314">
        <ele>2016.983398</ele>
        <time>2014-09-04T14:05:17Z</time>
      </trkpt>
      <trkpt lat="42.84608" lon="-0.49299">
        <ele>2013.618652</ele>
        <time>2014-09-04T14:05:35Z</time>
      </trkpt>
      <trkpt lat="42.84614" lon="-0.49306">
        <ele>2011.696045</ele>
        <time>2014-09-04T14:05:51Z</time>
      </trkpt>
      <trkpt lat="42.84615" lon="-0.49309">
        <ele>2011.696045</ele>
        <time>2014-09-04T14:05:54Z</time>
      </trkpt>
      <trkpt lat="42.84618" lon="-0.49321">
        <ele>2009.773193</ele>
        <time>2014-09-04T14:06:04Z</time>
      </trkpt>
      <trkpt lat="42.84621" lon="-0.49312">
        <ele>2007.370117</ele>
        <time>2014-09-04T14:06:20Z</time>
      </trkpt>
      <trkpt lat="42.84625" lon="-0.49304">
        <ele>2004.966797</ele>
        <time>2014-09-04T14:06:36Z</time>
      </trkpt>
      <trkpt lat="42.8463" lon="-0.493">
        <ele>2003.044189</ele>
        <time>2014-09-04T14:06:52Z</time>
      </trkpt>
      <trkpt lat="42.84637" lon="-0.49292">
        <ele>2000.1604</ele>
        <time>2014-09-04T14:07:09Z</time>
      </trkpt>
      <trkpt lat="42.84643" lon="-0.49285">
        <ele>1998.237549</ele>
        <time>2014-09-04T14:07:25Z</time>
      </trkpt>
      <trkpt lat="42.84648" lon="-0.49281">
        <ele>1995.353516</ele>
        <time>2014-09-04T14:07:36Z</time>
      </trkpt>
      <trkpt lat="42.84648" lon="-0.49281">
        <ele>1994.872803</ele>
        <time>2014-09-04T14:07:37Z</time>
      </trkpt>
      <trkpt lat="42.84658" lon="-0.4927">
        <ele>1993.911621</ele>
        <time>2014-09-04T14:07:57Z</time>
      </trkpt>
      <trkpt lat="42.84662" lon="-0.49268">
        <ele>1991.508301</ele>
        <time>2014-09-04T14:08:13Z</time>
      </trkpt>
      <trkpt lat="42.84673" lon="-0.4926">
        <ele>1990.066406</ele>
        <time>2014-09-04T14:08:39Z</time>
      </trkpt>
      <trkpt lat="42.84685" lon="-0.49262">
        <ele>1988.143799</ele>
        <time>2014-09-04T14:08:57Z</time>
      </trkpt>
      <trkpt lat="42.84694" lon="-0.49254">
        <ele>1987.182373</ele>
        <time>2014-09-04T14:09:10Z</time>
      </trkpt>
      <trkpt lat="42.84698" lon="-0.4925">
        <ele>1986.70166</ele>
        <time>2014-09-04T14:09:17Z</time>
      </trkpt>
      <trkpt lat="42.84708" lon="-0.49232">
        <ele>1985.740479</ele>
        <time>2014-09-04T14:09:34Z</time>
      </trkpt>
      <trkpt lat="42.84716" lon="-0.49214">
        <ele>1983.817871</ele>
        <time>2014-09-04T14:09:51Z</time>
      </trkpt>
      <trkpt lat="42.84717" lon="-0.49203">
        <ele>1982.856445</ele>
        <time>2014-09-04T14:10:04Z</time>
      </trkpt>
      <trkpt lat="42.84721" lon="-0.49191">
        <ele>1980.453369</ele>
        <time>2014-09-04T14:10:19Z</time>
      </trkpt>
      <trkpt lat="42.8473" lon="-0.49175">
        <ele>1979.972412</ele>
        <time>2014-09-04T14:10:35Z</time>
      </trkpt>
      <trkpt lat="42.84744" lon="-0.49163">
        <ele>1977.569092</ele>
        <time>2014-09-04T14:10:52Z</time>
      </trkpt>
      <trkpt lat="42.84762" lon="-0.49147">
        <ele>1977.088623</ele>
        <time>2014-09-04T14:11:13Z</time>
      </trkpt>
      <trkpt lat="42.8477" lon="-0.49138">
        <ele>1976.127197</ele>
        <time>2014-09-04T14:11:28Z</time>
      </trkpt>
      <trkpt lat="42.84778" lon="-0.49136">
        <ele>1975.646484</ele>
        <time>2014-09-04T14:11:41Z</time>
      </trkpt>
      <trkpt lat="42.84781" lon="-0.49127">
        <ele>1976.127197</ele>
        <time>2014-09-04T14:11:48Z</time>
      </trkpt>
      <trkpt lat="42.84792" lon="-0.49113">
        <ele>1979.010986</ele>
        <time>2014-09-04T14:12:04Z</time>
      </trkpt>
      <trkpt lat="42.84802" lon="-0.49107">
        <ele>1980.453369</ele>
        <time>2014-09-04T14:12:17Z</time>
      </trkpt>
      <trkpt lat="42.84806" lon="-0.49106">
        <ele>1981.895264</ele>
        <time>2014-09-04T14:12:22Z</time>
      </trkpt>
      <trkpt lat="42.84817" lon="-0.49105">
        <ele>1981.414551</ele>
        <time>2014-09-04T14:12:37Z</time>
      </trkpt>
      <trkpt lat="42.84824" lon="-0.49106">
        <ele>1984.298584</ele>
        <time>2014-09-04T14:12:48Z</time>
      </trkpt>
      <trkpt lat="42.8483" lon="-0.49103">
        <ele>1983.817871</ele>
        <time>2014-09-04T14:13:05Z</time>
      </trkpt>
      <trkpt lat="42.84833" lon="-0.49103">
        <ele>1984.779297</ele>
        <time>2014-09-04T14:13:20Z</time>
      </trkpt>
      <trkpt lat="42.84836" lon="-0.49104">
        <ele>1984.779297</ele>
        <time>2014-09-04T14:13:54Z</time>
      </trkpt>
      <trkpt lat="42.84837" lon="-0.49105">
        <ele>1985.259766</ele>
        <time>2014-09-04T14:14:42Z</time>
      </trkpt>
      <trkpt lat="42.84837" lon="-0.49105">
        <ele>1985.740479</ele>
        <time>2014-09-04T14:16:18Z</time>
      </trkpt>
      <trkpt lat="42.84847" lon="-0.49107">
        <ele>1984.779297</ele>
        <time>2014-09-04T14:16:37Z</time>
      </trkpt>
      <trkpt lat="42.84855" lon="-0.49107">
        <ele>1981.895264</ele>
        <time>2014-09-04T14:16:54Z</time>
      </trkpt>
      <trkpt lat="42.84864" lon="-0.49114">
        <ele>1979.972412</ele>
        <time>2014-09-04T14:17:11Z</time>
      </trkpt>
      <trkpt lat="42.84875" lon="-0.49119">
        <ele>1979.010986</ele>
        <time>2014-09-04T14:17:27Z</time>
      </trkpt>
      <trkpt lat="42.84887" lon="-0.4911">
        <ele>1975.646484</ele>
        <time>2014-09-04T14:17:44Z</time>
      </trkpt>
      <trkpt lat="42.84901" lon="-0.49114">
        <ele>1975.165771</ele>
        <time>2014-09-04T14:18:01Z</time>
      </trkpt>
      <trkpt lat="42.84912" lon="-0.49117">
        <ele>1972.762695</ele>
        <time>2014-09-04T14:18:16Z</time>
      </trkpt>
      <trkpt lat="42.84931" lon="-0.49113">
        <ele>1970.840088</ele>
        <time>2014-09-04T14:18:37Z</time>
      </trkpt>
      <trkpt lat="42.84944" lon="-0.49099">
        <ele>1970.359375</ele>
        <time>2014-09-04T14:18:54Z</time>
      </trkpt>
      <trkpt lat="42.84946" lon="-0.4909">
        <ele>1969.398193</ele>
        <time>2014-09-04T14:19:07Z</time>
      </trkpt>
      <trkpt lat="42.84946" lon="-0.4908">
        <ele>1968.91748</ele>
        <time>2014-09-04T14:19:18Z</time>
      </trkpt>
      <trkpt lat="42.84945" lon="-0.49067">
        <ele>1969.878662</ele>
        <time>2014-09-04T14:19:28Z</time>
      </trkpt>
      <trkpt lat="42.84947" lon="-0.49059">
        <ele>1970.359375</ele>
        <time>2014-09-04T14:19:34Z</time>
      </trkpt>
      <trkpt lat="42.84951" lon="-0.49052">
        <ele>1969.878662</ele>
        <time>2014-09-04T14:19:52Z</time>
      </trkpt>
      <trkpt lat="42.84954" lon="-0.49048">
        <ele>1970.359375</ele>
        <time>2014-09-04T14:19:56Z</time>
      </trkpt>
      <trkpt lat="42.8497" lon="-0.49044">
        <ele>1968.436768</ele>
        <time>2014-09-04T14:20:12Z</time>
      </trkpt>
      <trkpt lat="42.8497" lon="-0.49018">
        <ele>1968.91748</ele>
        <time>2014-09-04T14:20:30Z</time>
      </trkpt>
      <trkpt lat="42.8497" lon="-0.49012">
        <ele>1968.91748</ele>
        <time>2014-09-04T14:20:35Z</time>
      </trkpt>
      <trkpt lat="42.84973" lon="-0.49004">
        <ele>1967.956055</ele>
        <time>2014-09-04T14:20:41Z</time>
      </trkpt>
      <trkpt lat="42.84977" lon="-0.48978">
        <ele>1966.033447</ele>
        <time>2014-09-04T14:21:01Z</time>
      </trkpt>
      <trkpt lat="42.84974" lon="-0.48973">
        <ele>1965.552979</ele>
        <time>2014-09-04T14:21:06Z</time>
      </trkpt>
      <trkpt lat="42.84972" lon="-0.48971">
        <ele>1966.033447</ele>
        <time>2014-09-04T14:21:09Z</time>
      </trkpt>
      <trkpt lat="42.84971" lon="-0.48967">
        <ele>1966.033447</ele>
        <time>2014-09-04T14:21:13Z</time>
      </trkpt>
      <trkpt lat="42.84972" lon="-0.48937">
        <ele>1965.552979</ele>
        <time>2014-09-04T14:21:34Z</time>
      </trkpt>
      <trkpt lat="42.84961" lon="-0.48911">
        <ele>1964.591553</ele>
        <time>2014-09-04T14:21:54Z</time>
      </trkpt>
      <trkpt lat="42.84959" lon="-0.48889">
        <ele>1965.072266</ele>
        <time>2014-09-04T14:22:11Z</time>
      </trkpt>
      <trkpt lat="42.8496" lon="-0.48879">
        <ele>1965.072266</ele>
        <time>2014-09-04T14:22:21Z</time>
      </trkpt>
      <trkpt lat="42.84963" lon="-0.48874">
        <ele>1965.072266</ele>
        <time>2014-09-04T14:22:26Z</time>
      </trkpt>
      <trkpt lat="42.84968" lon="-0.48855">
        <ele>1963.149414</ele>
        <time>2014-09-04T14:22:41Z</time>
      </trkpt>
      <trkpt lat="42.84974" lon="-0.48836">
        <ele>1961.226807</ele>
        <time>2014-09-04T14:22:58Z</time>
      </trkpt>
      <trkpt lat="42.84974" lon="-0.48834">
        <ele>1960.746094</ele>
        <time>2014-09-04T14:22:59Z</time>
      </trkpt>
      <trkpt lat="42.84987" lon="-0.48817">
        <ele>1962.668701</ele>
        <time>2014-09-04T14:23:16Z</time>
      </trkpt>
      <trkpt lat="42.8499" lon="-0.48813">
        <ele>1962.668701</ele>
        <time>2014-09-04T14:23:20Z</time>
      </trkpt>
      <trkpt lat="42.84991" lon="-0.48785">
        <ele>1962.668701</ele>
        <time>2014-09-04T14:23:39Z</time>
      </trkpt>
      <trkpt lat="42.84994" lon="-0.48763">
        <ele>1963.629883</ele>
        <time>2014-09-04T14:23:54Z</time>
      </trkpt>
      <trkpt lat="42.84993" lon="-0.48748">
        <ele>1964.11084</ele>
        <time>2014-09-04T14:24:05Z</time>
      </trkpt>
      <trkpt lat="42.84996" lon="-0.48729">
        <ele>1964.591553</ele>
        <time>2014-09-04T14:24:20Z</time>
      </trkpt>
      <trkpt lat="42.84995" lon="-0.4871">
        <ele>1963.149414</ele>
        <time>2014-09-04T14:24:35Z</time>
      </trkpt>
      <trkpt lat="42.84992" lon="-0.48705">
        <ele>1962.668701</ele>
        <time>2014-09-04T14:24:40Z</time>
      </trkpt>
      <trkpt lat="42.84992" lon="-0.48683">
        <ele>1960.746094</ele>
        <time>2014-09-04T14:24:56Z</time>
      </trkpt>
      <trkpt lat="42.84992" lon="-0.48681">
        <ele>1960.265381</ele>
        <time>2014-09-04T14:24:58Z</time>
      </trkpt>
      <trkpt lat="42.85012" lon="-0.48656">
        <ele>1959.304199</ele>
        <time>2014-09-04T14:25:21Z</time>
      </trkpt>
      <trkpt lat="42.85021" lon="-0.48636">
        <ele>1955.939453</ele>
        <time>2014-09-04T14:25:40Z</time>
      </trkpt>
      <trkpt lat="42.85024" lon="-0.48629">
        <ele>1954.978271</ele>
        <time>2014-09-04T14:25:46Z</time>
      </trkpt>
      <trkpt lat="42.8503" lon="-0.48615">
        <ele>1951.61377</ele>
        <time>2014-09-04T14:26:03Z</time>
      </trkpt>
      <trkpt lat="42.85035" lon="-0.48604">
        <ele>1948.249023</ele>
        <time>2014-09-04T14:26:16Z</time>
      </trkpt>
      <trkpt lat="42.85038" lon="-0.48595">
        <ele>1946.326416</ele>
        <time>2014-09-04T14:26:35Z</time>
      </trkpt>
      <trkpt lat="42.85039" lon="-0.48594">
        <ele>1946.326416</ele>
        <time>2014-09-04T14:26:58Z</time>
      </trkpt>
      <trkpt lat="42.8504" lon="-0.48586">
        <ele>1944.884277</ele>
        <time>2014-09-04T14:27:17Z</time>
      </trkpt>
      <trkpt lat="42.85048" lon="-0.48573">
        <ele>1943.442383</ele>
        <time>2014-09-04T14:27:34Z</time>
      </trkpt>
      <trkpt lat="42.85054" lon="-0.48547">
        <ele>1942.96167</ele>
        <time>2014-09-04T14:27:54Z</time>
      </trkpt>
      <trkpt lat="42.85043" lon="-0.48533">
        <ele>1945.36499</ele>
        <time>2014-09-04T14:28:12Z</time>
      </trkpt>
      <trkpt lat="42.85031" lon="-0.48524">
        <ele>1946.806885</ele>
        <time>2014-09-04T14:28:27Z</time>
      </trkpt>
      <trkpt lat="42.8503" lon="-0.4852">
        <ele>1946.806885</ele>
        <time>2014-09-04T14:28:30Z</time>
      </trkpt>
      <trkpt lat="42.85024" lon="-0.48506">
        <ele>1947.287598</ele>
        <time>2014-09-04T14:28:42Z</time>
      </trkpt>
      <trkpt lat="42.85016" lon="-0.48486">
        <ele>1947.768311</ele>
        <time>2014-09-04T14:28:59Z</time>
      </trkpt>
      <trkpt lat="42.85012" lon="-0.48466">
        <ele>1948.729736</ele>
        <time>2014-09-04T14:29:16Z</time>
      </trkpt>
      <trkpt lat="42.85012" lon="-0.48451">
        <ele>1947.287598</ele>
        <time>2014-09-04T14:29:31Z</time>
      </trkpt>
      <trkpt lat="42.85011" lon="-0.48442">
        <ele>1945.845703</ele>
        <time>2014-09-04T14:29:38Z</time>
      </trkpt>
      <trkpt lat="42.85012" lon="-0.48427">
        <ele>1944.884277</ele>
        <time>2014-09-04T14:29:50Z</time>
      </trkpt>
      <trkpt lat="42.85015" lon="-0.48418">
        <ele>1943.442383</ele>
        <time>2014-09-04T14:29:56Z</time>
      </trkpt>
      <trkpt lat="42.85017" lon="-0.48384">
        <ele>1942.000488</ele>
        <time>2014-09-04T14:30:19Z</time>
      </trkpt>
      <trkpt lat="42.85015" lon="-0.48377">
        <ele>1941.519775</ele>
        <time>2014-09-04T14:30:24Z</time>
      </trkpt>
      <trkpt lat="42.85019" lon="-0.4836">
        <ele>1939.116455</ele>
        <time>2014-09-04T14:30:38Z</time>
      </trkpt>
      <trkpt lat="42.85025" lon="-0.48352">
        <ele>1937.674561</ele>
        <time>2014-09-04T14:30:49Z</time>
      </trkpt>
      <trkpt lat="42.85036" lon="-0.48322">
        <ele>1937.193848</ele>
        <time>2014-09-04T14:31:12Z</time>
      </trkpt>
      <trkpt lat="42.8504" lon="-0.48296">
        <ele>1936.232666</ele>
        <time>2014-09-04T14:31:30Z</time>
      </trkpt>
      <trkpt lat="42.85044" lon="-0.48267">
        <ele>1935.751953</ele>
        <time>2014-09-04T14:31:49Z</time>
      </trkpt>
      <trkpt lat="42.8505" lon="-0.48254">
        <ele>1934.790771</ele>
        <time>2014-09-04T14:32:01Z</time>
      </trkpt>
      <trkpt lat="42.85053" lon="-0.48251">
        <ele>1933.829346</ele>
        <time>2014-09-04T14:32:06Z</time>
      </trkpt>
      <trkpt lat="42.85055" lon="-0.48243">
        <ele>1933.348633</ele>
        <time>2014-09-04T14:32:25Z</time>
      </trkpt>
      <trkpt lat="42.85055" lon="-0.48241">
        <ele>1933.829346</ele>
        <time>2014-09-04T14:32:28Z</time>
      </trkpt>
      <trkpt lat="42.85053" lon="-0.48234">
        <ele>1933.348633</ele>
        <time>2014-09-04T14:32:33Z</time>
      </trkpt>
      <trkpt lat="42.85046" lon="-0.4822">
        <ele>1931.425781</ele>
        <time>2014-09-04T14:32:45Z</time>
      </trkpt>
      <trkpt lat="42.85035" lon="-0.48198">
        <ele>1929.503174</ele>
        <time>2014-09-04T14:33:04Z</time>
      </trkpt>
      <trkpt lat="42.85032" lon="-0.48191">
        <ele>1929.022461</ele>
        <time>2014-09-04T14:33:10Z</time>
      </trkpt>
      <trkpt lat="42.85028" lon="-0.48185">
        <ele>1928.541992</ele>
        <time>2014-09-04T14:33:16Z</time>
      </trkpt>
      <trkpt lat="42.85019" lon="-0.48165">
        <ele>1925.657959</ele>
        <time>2014-09-04T14:33:33Z</time>
      </trkpt>
      <trkpt lat="42.85016" lon="-0.48157">
        <ele>1923.735352</ele>
        <time>2014-09-04T14:33:41Z</time>
      </trkpt>
      <trkpt lat="42.85006" lon="-0.48137">
        <ele>1921.332031</ele>
        <time>2014-09-04T14:34:00Z</time>
      </trkpt>
      <trkpt lat="42.85002" lon="-0.48129">
        <ele>1919.409668</ele>
        <time>2014-09-04T14:34:10Z</time>
      </trkpt>
      <trkpt lat="42.84999" lon="-0.48118">
        <ele>1917.967529</ele>
        <time>2014-09-04T14:34:23Z</time>
      </trkpt>
      <trkpt lat="42.84997" lon="-0.48109">
        <ele>1915.083496</ele>
        <time>2014-09-04T14:34:35Z</time>
      </trkpt>
      <trkpt lat="42.85001" lon="-0.48106">
        <ele>1914.12207</ele>
        <time>2014-09-04T14:34:48Z</time>
      </trkpt>
      <trkpt lat="42.85003" lon="-0.48104">
        <ele>1914.12207</ele>
        <time>2014-09-04T14:35:04Z</time>
      </trkpt>
      <trkpt lat="42.85009" lon="-0.48099">
        <ele>1911.718994</ele>
        <time>2014-09-04T14:35:21Z</time>
      </trkpt>
      <trkpt lat="42.85013" lon="-0.48098">
        <ele>1910.757568</ele>
        <time>2014-09-04T14:35:34Z</time>
      </trkpt>
      <trkpt lat="42.85009" lon="-0.48093">
        <ele>1908.354248</ele>
        <time>2014-09-04T14:35:48Z</time>
      </trkpt>
      <trkpt lat="42.85013" lon="-0.48088">
        <ele>1905.950928</ele>
        <time>2014-09-04T14:36:03Z</time>
      </trkpt>
      <trkpt lat="42.85011" lon="-0.48084">
        <ele>1905.470459</ele>
        <time>2014-09-04T14:36:17Z</time>
      </trkpt>
      <trkpt lat="42.85012" lon="-0.48077">
        <ele>1904.028564</ele>
        <time>2014-09-04T14:36:30Z</time>
      </trkpt>
      <trkpt lat="42.85014" lon="-0.48067">
        <ele>1900.663818</ele>
        <time>2014-09-04T14:36:46Z</time>
      </trkpt>
      <trkpt lat="42.85015" lon="-0.48053">
        <ele>1899.702393</ele>
        <time>2014-09-04T14:37:02Z</time>
      </trkpt>
      <trkpt lat="42.85015" lon="-0.48039">
        <ele>1897.779785</ele>
        <time>2014-09-04T14:37:19Z</time>
      </trkpt>
      <trkpt lat="42.85022" lon="-0.4803">
        <ele>1894.415039</ele>
        <time>2014-09-04T14:37:33Z</time>
      </trkpt>
      <trkpt lat="42.85025" lon="-0.48016">
        <ele>1893.453857</ele>
        <time>2014-09-04T14:37:50Z</time>
      </trkpt>
      <trkpt lat="42.85017" lon="-0.48022">
        <ele>1890.569824</ele>
        <time>2014-09-04T14:38:07Z</time>
      </trkpt>
      <trkpt lat="42.85009" lon="-0.4803">
        <ele>1889.12793</ele>
        <time>2014-09-04T14:38:23Z</time>
      </trkpt>
      <trkpt lat="42.85006" lon="-0.4803">
        <ele>1885.282715</ele>
        <time>2014-09-04T14:38:33Z</time>
      </trkpt>
      <trkpt lat="42.85007" lon="-0.48017">
        <ele>1883.840576</ele>
        <time>2014-09-04T14:38:51Z</time>
      </trkpt>
      <trkpt lat="42.85005" lon="-0.48009">
        <ele>1880.476074</ele>
        <time>2014-09-04T14:39:01Z</time>
      </trkpt>
      <trkpt lat="42.85007" lon="-0.47996">
        <ele>1877.592041</ele>
        <time>2014-09-04T14:39:19Z</time>
      </trkpt>
      <trkpt lat="42.85004" lon="-0.47993">
        <ele>1877.111572</ele>
        <time>2014-09-04T14:39:35Z</time>
      </trkpt>
      <trkpt lat="42.85003" lon="-0.47993">
        <ele>1877.111572</ele>
        <time>2014-09-04T14:40:02Z</time>
      </trkpt>
      <trkpt lat="42.85001" lon="-0.47987">
        <ele>1874.227539</ele>
        <time>2014-09-04T14:40:23Z</time>
      </trkpt>
      <trkpt lat="42.85001" lon="-0.47975">
        <ele>1871.343506</ele>
        <time>2014-09-04T14:40:37Z</time>
      </trkpt>
      <trkpt lat="42.85007" lon="-0.47962">
        <ele>1868.459717</ele>
        <time>2014-09-04T14:40:54Z</time>
      </trkpt>
      <trkpt lat="42.85008" lon="-0.47953">
        <ele>1867.017578</ele>
        <time>2014-09-04T14:41:02Z</time>
      </trkpt>
      <trkpt lat="42.8501" lon="-0.4793">
        <ele>1865.575684</ele>
        <time>2014-09-04T14:41:21Z</time>
      </trkpt>
      <trkpt lat="42.84995" lon="-0.47904">
        <ele>1863.172363</ele>
        <time>2014-09-04T14:41:44Z</time>
      </trkpt>
      <trkpt lat="42.84976" lon="-0.4789">
        <ele>1863.172363</ele>
        <time>2014-09-04T14:42:04Z</time>
      </trkpt>
      <trkpt lat="42.84959" lon="-0.47865">
        <ele>1861.730469</ele>
        <time>2014-09-04T14:42:26Z</time>
      </trkpt>
      <trkpt lat="42.84943" lon="-0.47842">
        <ele>1860.769043</ele>
        <time>2014-09-04T14:42:47Z</time>
      </trkpt>
      <trkpt lat="42.84925" lon="-0.4781">
        <ele>1860.769043</ele>
        <time>2014-09-04T14:43:12Z</time>
      </trkpt>
      <trkpt lat="42.84912" lon="-0.4779">
        <ele>1861.249756</ele>
        <time>2014-09-04T14:43:29Z</time>
      </trkpt>
      <trkpt lat="42.84899" lon="-0.47765">
        <ele>1860.769043</ele>
        <time>2014-09-04T14:43:49Z</time>
      </trkpt>
      <trkpt lat="42.84894" lon="-0.47734">
        <ele>1860.28833</ele>
        <time>2014-09-04T14:44:10Z</time>
      </trkpt>
      <trkpt lat="42.84897" lon="-0.47706">
        <ele>1858.365723</ele>
        <time>2014-09-04T14:44:28Z</time>
      </trkpt>
      <trkpt lat="42.84898" lon="-0.47693">
        <ele>1859.327148</ele>
        <time>2014-09-04T14:44:40Z</time>
      </trkpt>
      <trkpt lat="42.84898" lon="-0.47677">
        <ele>1857.885254</ele>
        <time>2014-09-04T14:44:53Z</time>
      </trkpt>
      <trkpt lat="42.84909" lon="-0.47667">
        <ele>1856.443115</ele>
        <time>2014-09-04T14:45:09Z</time>
      </trkpt>
      <trkpt lat="42.84914" lon="-0.47661">
        <ele>1853.078613</ele>
        <time>2014-09-04T14:45:22Z</time>
      </trkpt>
      <trkpt lat="42.84919" lon="-0.47643">
        <ele>1850.675049</ele>
        <time>2014-09-04T14:45:41Z</time>
      </trkpt>
      <trkpt lat="42.84924" lon="-0.47633">
        <ele>1847.310547</ele>
        <time>2014-09-04T14:45:56Z</time>
      </trkpt>
      <trkpt lat="42.84928" lon="-0.47625">
        <ele>1845.387939</ele>
        <time>2014-09-04T14:46:09Z</time>
      </trkpt>
      <trkpt lat="42.84929" lon="-0.47623">
        <ele>1844.426514</ele>
        <time>2014-09-04T14:46:11Z</time>
      </trkpt>
      <trkpt lat="42.8494" lon="-0.47611">
        <ele>1842.50415</ele>
        <time>2014-09-04T14:46:27Z</time>
      </trkpt>
      <trkpt lat="42.84949" lon="-0.47598">
        <ele>1839.620117</ele>
        <time>2014-09-04T14:46:45Z</time>
      </trkpt>
      <trkpt lat="42.84954" lon="-0.47586">
        <ele>1836.736084</ele>
        <time>2014-09-04T14:47:00Z</time>
      </trkpt>
      <trkpt lat="42.84961" lon="-0.47577">
        <ele>1835.774658</ele>
        <time>2014-09-04T14:47:15Z</time>
      </trkpt>
      <trkpt lat="42.84977" lon="-0.47565">
        <ele>1834.813477</ele>
        <time>2014-09-04T14:47:33Z</time>
      </trkpt>
      <trkpt lat="42.84988" lon="-0.47555">
        <ele>1834.332764</ele>
        <time>2014-09-04T14:47:50Z</time>
      </trkpt>
      <trkpt lat="42.85002" lon="-0.47545">
        <ele>1831.44873</ele>
        <time>2014-09-04T14:48:09Z</time>
      </trkpt>
      <trkpt lat="42.85003" lon="-0.47545">
        <ele>1831.44873</ele>
        <time>2014-09-04T14:48:10Z</time>
      </trkpt>
      <trkpt lat="42.85015" lon="-0.47545">
        <ele>1828.084229</ele>
        <time>2014-09-04T14:48:24Z</time>
      </trkpt>
      <trkpt lat="42.85018" lon="-0.47546">
        <ele>1827.123047</ele>
        <time>2014-09-04T14:48:27Z</time>
      </trkpt>
      <trkpt lat="42.85025" lon="-0.47546">
        <ele>1826.642334</ele>
        <time>2014-09-04T14:48:35Z</time>
      </trkpt>
      <trkpt lat="42.85032" lon="-0.47524">
        <ele>1824.239014</ele>
        <time>2014-09-04T14:48:54Z</time>
      </trkpt>
      <trkpt lat="42.85032" lon="-0.47517">
        <ele>1823.758301</ele>
        <time>2014-09-04T14:49:00Z</time>
      </trkpt>
      <trkpt lat="42.85029" lon="-0.47498">
        <ele>1820.393799</ele>
        <time>2014-09-04T14:49:15Z</time>
      </trkpt>
      <trkpt lat="42.85029" lon="-0.47488">
        <ele>1819.912842</ele>
        <time>2014-09-04T14:49:22Z</time>
      </trkpt>
      <trkpt lat="42.85028" lon="-0.47471">
        <ele>1817.509521</ele>
        <time>2014-09-04T14:49:39Z</time>
      </trkpt>
      <trkpt lat="42.85029" lon="-0.47453">
        <ele>1815.587158</ele>
        <time>2014-09-04T14:49:56Z</time>
      </trkpt>
      <trkpt lat="42.85031" lon="-0.47446">
        <ele>1814.625732</ele>
        <time>2014-09-04T14:50:03Z</time>
      </trkpt>
      <trkpt lat="42.85036" lon="-0.47418">
        <ele>1812.222412</ele>
        <time>2014-09-04T14:50:24Z</time>
      </trkpt>
      <trkpt lat="42.85044" lon="-0.474">
        <ele>1810.780518</ele>
        <time>2014-09-04T14:50:42Z</time>
      </trkpt>
      <trkpt lat="42.85051" lon="-0.47389">
        <ele>1807.416016</ele>
        <time>2014-09-04T14:50:54Z</time>
      </trkpt>
      <trkpt lat="42.85059" lon="-0.47371">
        <ele>1805.493408</ele>
        <time>2014-09-04T14:51:13Z</time>
      </trkpt>
      <trkpt lat="42.85064" lon="-0.47358">
        <ele>1802.609131</ele>
        <time>2014-09-04T14:51:30Z</time>
      </trkpt>
      <trkpt lat="42.85067" lon="-0.47351">
        <ele>1802.128418</ele>
        <time>2014-09-04T14:51:38Z</time>
      </trkpt>
      <trkpt lat="42.85078" lon="-0.47339">
        <ele>1799.244629</ele>
        <time>2014-09-04T14:51:53Z</time>
      </trkpt>
      <trkpt lat="42.85093" lon="-0.47327">
        <ele>1797.322021</ele>
        <time>2014-09-04T14:52:12Z</time>
      </trkpt>
      <trkpt lat="42.851" lon="-0.47319">
        <ele>1793.95752</ele>
        <time>2014-09-04T14:52:22Z</time>
      </trkpt>
      <trkpt lat="42.85123" lon="-0.47312">
        <ele>1792.034912</ele>
        <time>2014-09-04T14:52:43Z</time>
      </trkpt>
      <trkpt lat="42.85131" lon="-0.47305">
        <ele>1790.112305</ele>
        <time>2014-09-04T14:52:53Z</time>
      </trkpt>
      <trkpt lat="42.85149" lon="-0.47302">
        <ele>1789.150879</ele>
        <time>2014-09-04T14:53:11Z</time>
      </trkpt>
      <trkpt lat="42.85165" lon="-0.47295">
        <ele>1787.228027</ele>
        <time>2014-09-04T14:53:30Z</time>
      </trkpt>
      <trkpt lat="42.85181" lon="-0.47295">
        <ele>1784.344238</ele>
        <time>2014-09-04T14:53:45Z</time>
      </trkpt>
      <trkpt lat="42.85196" lon="-0.47311">
        <ele>1783.863525</ele>
        <time>2014-09-04T14:54:05Z</time>
      </trkpt>
      <trkpt lat="42.8521" lon="-0.47312">
        <ele>1781.460205</ele>
        <time>2014-09-04T14:54:23Z</time>
      </trkpt>
      <trkpt lat="42.85211" lon="-0.47312">
        <ele>1781.460205</ele>
        <time>2014-09-04T14:54:24Z</time>
      </trkpt>
      <trkpt lat="42.85223" lon="-0.47307">
        <ele>1779.537598</ele>
        <time>2014-09-04T14:54:40Z</time>
      </trkpt>
      <trkpt lat="42.8523" lon="-0.47308">
        <ele>1778.576416</ele>
        <time>2014-09-04T14:54:49Z</time>
      </trkpt>
      <trkpt lat="42.85247" lon="-0.47301">
        <ele>1775.692383</ele>
        <time>2014-09-04T14:55:07Z</time>
      </trkpt>
      <trkpt lat="42.85251" lon="-0.47295">
        <ele>1774.731201</ele>
        <time>2014-09-04T14:55:20Z</time>
      </trkpt>
      <trkpt lat="42.85256" lon="-0.47291">
        <ele>1774.250488</ele>
        <time>2014-09-04T14:55:56Z</time>
      </trkpt>
      <trkpt lat="42.85265" lon="-0.47282">
        <ele>1772.327881</ele>
        <time>2014-09-04T14:56:14Z</time>
      </trkpt>
      <trkpt lat="42.85271" lon="-0.47274">
        <ele>1769.924316</ele>
        <time>2014-09-04T14:56:27Z</time>
      </trkpt>
      <trkpt lat="42.85273" lon="-0.4727">
        <ele>1769.443848</ele>
        <time>2014-09-04T14:56:41Z</time>
      </trkpt>
      <trkpt lat="42.85283" lon="-0.47258">
        <ele>1768.001709</ele>
        <time>2014-09-04T14:56:58Z</time>
      </trkpt>
      <trkpt lat="42.85288" lon="-0.47249">
        <ele>1766.559814</ele>
        <time>2014-09-04T14:57:13Z</time>
      </trkpt>
      <trkpt lat="42.85296" lon="-0.47237">
        <ele>1765.598633</ele>
        <time>2014-09-04T14:57:27Z</time>
      </trkpt>
      <trkpt lat="42.85302" lon="-0.47228">
        <ele>1763.675781</ele>
        <time>2014-09-04T14:57:45Z</time>
      </trkpt>
      <trkpt lat="42.85306" lon="-0.47222">
        <ele>1763.195313</ele>
        <time>2014-09-04T14:57:59Z</time>
      </trkpt>
      <trkpt lat="42.85308" lon="-0.47216">
        <ele>1762.7146</ele>
        <time>2014-09-04T14:58:06Z</time>
      </trkpt>
      <trkpt lat="42.85308" lon="-0.47213">
        <ele>1761.272705</ele>
        <time>2014-09-04T14:58:09Z</time>
      </trkpt>
      <trkpt lat="42.85314" lon="-0.47207">
        <ele>1759.830566</ele>
        <time>2014-09-04T14:58:22Z</time>
      </trkpt>
      <trkpt lat="42.85319" lon="-0.47197">
        <ele>1756.946777</ele>
        <time>2014-09-04T14:58:36Z</time>
      </trkpt>
      <trkpt lat="42.85324" lon="-0.47186">
        <ele>1755.985107</ele>
        <time>2014-09-04T14:58:48Z</time>
      </trkpt>
      <trkpt lat="42.85328" lon="-0.47168">
        <ele>1754.543213</ele>
        <time>2014-09-04T14:59:01Z</time>
      </trkpt>
      <trkpt lat="42.85328" lon="-0.47166">
        <ele>1754.062744</ele>
        <time>2014-09-04T14:59:02Z</time>
      </trkpt>
      <trkpt lat="42.85331" lon="-0.47159">
        <ele>1752.139893</ele>
        <time>2014-09-04T14:59:07Z</time>
      </trkpt>
      <trkpt lat="42.85342" lon="-0.47142">
        <ele>1750.217529</ele>
        <time>2014-09-04T14:59:23Z</time>
      </trkpt>
      <trkpt lat="42.85342" lon="-0.47141">
        <ele>1749.736816</ele>
        <time>2014-09-04T14:59:24Z</time>
      </trkpt>
      <trkpt lat="42.85352" lon="-0.47125">
        <ele>1747.814209</ele>
        <time>2014-09-04T14:59:41Z</time>
      </trkpt>
      <trkpt lat="42.85363" lon="-0.47119">
        <ele>1747.814209</ele>
        <time>2014-09-04T14:59:53Z</time>
      </trkpt>
      <trkpt lat="42.85371" lon="-0.47104">
        <ele>1747.333496</ele>
        <time>2014-09-04T15:00:06Z</time>
      </trkpt>
      <trkpt lat="42.85371" lon="-0.47101">
        <ele>1747.333496</ele>
        <time>2014-09-04T15:00:08Z</time>
      </trkpt>
      <trkpt lat="42.85378" lon="-0.47074">
        <ele>1745.410889</ele>
        <time>2014-09-04T15:00:25Z</time>
      </trkpt>
      <trkpt lat="42.85386" lon="-0.47064">
        <ele>1742.5271</ele>
        <time>2014-09-04T15:00:40Z</time>
      </trkpt>
      <trkpt lat="42.85393" lon="-0.4705">
        <ele>1741.084961</ele>
        <time>2014-09-04T15:00:54Z</time>
      </trkpt>
      <trkpt lat="42.85404" lon="-0.47028">
        <ele>1737.720215</ele>
        <time>2014-09-04T15:01:11Z</time>
      </trkpt>
      <trkpt lat="42.85415" lon="-0.47019">
        <ele>1736.758789</ele>
        <time>2014-09-04T15:01:23Z</time>
      </trkpt>
      <trkpt lat="42.85422" lon="-0.47016">
        <ele>1735.797607</ele>
        <time>2014-09-04T15:01:32Z</time>
      </trkpt>
      <trkpt lat="42.85425" lon="-0.4701">
        <ele>1735.797607</ele>
        <time>2014-09-04T15:01:38Z</time>
      </trkpt>
      <trkpt lat="42.85424" lon="-0.4699">
        <ele>1734.355713</ele>
        <time>2014-09-04T15:01:56Z</time>
      </trkpt>
      <trkpt lat="42.85425" lon="-0.46986">
        <ele>1732.433105</ele>
        <time>2014-09-04T15:01:59Z</time>
      </trkpt>
      <trkpt lat="42.85426" lon="-0.46977">
        <ele>1729.549072</ele>
        <time>2014-09-04T15:02:11Z</time>
      </trkpt>
      <trkpt lat="42.85429" lon="-0.46967">
        <ele>1728.107178</ele>
        <time>2014-09-04T15:02:25Z</time>
      </trkpt>
      <trkpt lat="42.85429" lon="-0.46958">
        <ele>1724.742676</ele>
        <time>2014-09-04T15:02:39Z</time>
      </trkpt>
      <trkpt lat="42.85431" lon="-0.46946">
        <ele>1721.858398</ele>
        <time>2014-09-04T15:02:52Z</time>
      </trkpt>
      <trkpt lat="42.85431" lon="-0.46945">
        <ele>1721.377686</ele>
        <time>2014-09-04T15:02:53Z</time>
      </trkpt>
      <trkpt lat="42.85434" lon="-0.46934">
        <ele>1719.935791</ele>
        <time>2014-09-04T15:03:06Z</time>
      </trkpt>
      <trkpt lat="42.85427" lon="-0.46917">
        <ele>1717.532471</ele>
        <time>2014-09-04T15:03:22Z</time>
      </trkpt>
      <trkpt lat="42.85425" lon="-0.46893">
        <ele>1716.090576</ele>
        <time>2014-09-04T15:03:39Z</time>
      </trkpt>
      <trkpt lat="42.85419" lon="-0.46859">
        <ele>1713.687256</ele>
        <time>2014-09-04T15:04:01Z</time>
      </trkpt>
      <trkpt lat="42.8541" lon="-0.46833">
        <ele>1713.687256</ele>
        <time>2014-09-04T15:04:20Z</time>
      </trkpt>
      <trkpt lat="42.85406" lon="-0.46813">
        <ele>1712.245361</ele>
        <time>2014-09-04T15:04:35Z</time>
      </trkpt>
      <trkpt lat="42.85402" lon="-0.46797">
        <ele>1710.322754</ele>
        <time>2014-09-04T15:04:51Z</time>
      </trkpt>
      <trkpt lat="42.85398" lon="-0.46782">
        <ele>1707.438721</ele>
        <time>2014-09-04T15:05:06Z</time>
      </trkpt>
      <trkpt lat="42.85397" lon="-0.46767">
        <ele>1704.554688</ele>
        <time>2014-09-04T15:05:20Z</time>
      </trkpt>
      <trkpt lat="42.85389" lon="-0.46757">
        <ele>1702.63208</ele>
        <time>2014-09-04T15:05:34Z</time>
      </trkpt>
      <trkpt lat="42.85378" lon="-0.46754">
        <ele>1700.229004</ele>
        <time>2014-09-04T15:05:50Z</time>
      </trkpt>
      <trkpt lat="42.85374" lon="-0.46746">
        <ele>1697.344971</ele>
        <time>2014-09-04T15:06:00Z</time>
      </trkpt>
      <trkpt lat="42.85369" lon="-0.46738">
        <ele>1693.499756</ele>
        <time>2014-09-04T15:06:13Z</time>
      </trkpt>
      <trkpt lat="42.85362" lon="-0.46735">
        <ele>1690.615479</ele>
        <time>2014-09-04T15:06:27Z</time>
      </trkpt>
      <trkpt lat="42.85356" lon="-0.46725">
        <ele>1689.654297</ele>
        <time>2014-09-04T15:06:41Z</time>
      </trkpt>
      <trkpt lat="42.85353" lon="-0.46719">
        <ele>1688.212402</ele>
        <time>2014-09-04T15:06:56Z</time>
      </trkpt>
      <trkpt lat="42.85342" lon="-0.46719">
        <ele>1684.8479</ele>
        <time>2014-09-04T15:07:10Z</time>
      </trkpt>
      <trkpt lat="42.85334" lon="-0.46713">
        <ele>1683.886475</ele>
        <time>2014-09-04T15:07:21Z</time>
      </trkpt>
      <trkpt lat="42.85329" lon="-0.46703">
        <ele>1681.002686</ele>
        <time>2014-09-04T15:07:34Z</time>
      </trkpt>
      <trkpt lat="42.85329" lon="-0.46701">
        <ele>1680.521973</ele>
        <time>2014-09-04T15:07:36Z</time>
      </trkpt>
      <trkpt lat="42.85328" lon="-0.46694">
        <ele>1679.079834</ele>
        <time>2014-09-04T15:07:40Z</time>
      </trkpt>
      <trkpt lat="42.85332" lon="-0.46681">
        <ele>1678.599365</ele>
        <time>2014-09-04T15:07:54Z</time>
      </trkpt>
      <trkpt lat="42.85332" lon="-0.4667">
        <ele>1676.676758</ele>
        <time>2014-09-04T15:08:09Z</time>
      </trkpt>
      <trkpt lat="42.85327" lon="-0.46667">
        <ele>1675.715088</ele>
        <time>2014-09-04T15:08:29Z</time>
      </trkpt>
      <trkpt lat="42.85327" lon="-0.46671">
        <ele>1673.79248</ele>
        <time>2014-09-04T15:08:45Z</time>
      </trkpt>
      <trkpt lat="42.85322" lon="-0.46664">
        <ele>1670.908691</ele>
        <time>2014-09-04T15:08:59Z</time>
      </trkpt>
      <trkpt lat="42.85319" lon="-0.46656">
        <ele>1668.024658</ele>
        <time>2014-09-04T15:09:10Z</time>
      </trkpt>
      <trkpt lat="42.85317" lon="-0.46637">
        <ele>1667.063477</ele>
        <time>2014-09-04T15:09:27Z</time>
      </trkpt>
      <trkpt lat="42.85317" lon="-0.46634">
        <ele>1665.140869</ele>
        <time>2014-09-04T15:09:32Z</time>
      </trkpt>
      <trkpt lat="42.85317" lon="-0.46613">
        <ele>1662.737549</ele>
        <time>2014-09-04T15:09:45Z</time>
      </trkpt>
      <trkpt lat="42.85317" lon="-0.46612">
        <ele>1662.256836</ele>
        <time>2014-09-04T15:09:46Z</time>
      </trkpt>
      <trkpt lat="42.85315" lon="-0.46596">
        <ele>1660.814941</ele>
        <time>2014-09-04T15:09:57Z</time>
      </trkpt>
      <trkpt lat="42.85317" lon="-0.46581">
        <ele>1660.334229</ele>
        <time>2014-09-04T15:10:10Z</time>
      </trkpt>
      <trkpt lat="42.85322" lon="-0.46565">
        <ele>1657.450195</ele>
        <time>2014-09-04T15:10:23Z</time>
      </trkpt>
      <trkpt lat="42.85322" lon="-0.46544">
        <ele>1654.566162</ele>
        <time>2014-09-04T15:10:38Z</time>
      </trkpt>
      <trkpt lat="42.85325" lon="-0.46535">
        <ele>1654.085693</ele>
        <time>2014-09-04T15:10:47Z</time>
      </trkpt>
      <trkpt lat="42.85328" lon="-0.46529">
        <ele>1652.162842</ele>
        <time>2014-09-04T15:10:58Z</time>
      </trkpt>
      <trkpt lat="42.85332" lon="-0.46521">
        <ele>1649.279053</ele>
        <time>2014-09-04T15:11:12Z</time>
      </trkpt>
      <trkpt lat="42.85336" lon="-0.46498">
        <ele>1648.79834</ele>
        <time>2014-09-04T15:11:31Z</time>
      </trkpt>
      <trkpt lat="42.85336" lon="-0.46487">
        <ele>1647.837158</ele>
        <time>2014-09-04T15:11:40Z</time>
      </trkpt>
      <trkpt lat="42.85337" lon="-0.46481">
        <ele>1646.395264</ele>
        <time>2014-09-04T15:11:45Z</time>
      </trkpt>
      <trkpt lat="42.85342" lon="-0.46466">
        <ele>1643.510986</ele>
        <time>2014-09-04T15:12:00Z</time>
      </trkpt>
      <trkpt lat="42.85345" lon="-0.46451">
        <ele>1642.549805</ele>
        <time>2014-09-04T15:12:16Z</time>
      </trkpt>
      <trkpt lat="42.85347" lon="-0.46445">
        <ele>1641.107666</ele>
        <time>2014-09-04T15:12:21Z</time>
      </trkpt>
      <trkpt lat="42.85347" lon="-0.46435">
        <ele>1638.70459</ele>
        <time>2014-09-04T15:12:28Z</time>
      </trkpt>
      <trkpt lat="42.85349" lon="-0.46418">
        <ele>1637.262451</ele>
        <time>2014-09-04T15:12:40Z</time>
      </trkpt>
      <trkpt lat="42.85346" lon="-0.46407">
        <ele>1635.820557</ele>
        <time>2014-09-04T15:12:51Z</time>
      </trkpt>
      <trkpt lat="42.85348" lon="-0.46391">
        <ele>1635.820557</ele>
        <time>2014-09-04T15:13:01Z</time>
      </trkpt>
      <trkpt lat="42.8535" lon="-0.46377">
        <ele>1635.339844</ele>
        <time>2014-09-04T15:13:12Z</time>
      </trkpt>
      <trkpt lat="42.85352" lon="-0.46368">
        <ele>1631.494629</ele>
        <time>2014-09-04T15:13:21Z</time>
      </trkpt>
      <trkpt lat="42.85352" lon="-0.46347">
        <ele>1629.572021</ele>
        <time>2014-09-04T15:13:36Z</time>
      </trkpt>
      <trkpt lat="42.85353" lon="-0.46331">
        <ele>1625.24585</ele>
        <time>2014-09-04T15:13:50Z</time>
      </trkpt>
      <trkpt lat="42.85354" lon="-0.46319">
        <ele>1623.803955</ele>
        <time>2014-09-04T15:14:01Z</time>
      </trkpt>
      <trkpt lat="42.85353" lon="-0.46306">
        <ele>1622.362061</ele>
        <time>2014-09-04T15:14:15Z</time>
      </trkpt>
      <trkpt lat="42.8535" lon="-0.46293">
        <ele>1620.920166</ele>
        <time>2014-09-04T15:14:25Z</time>
      </trkpt>
      <trkpt lat="42.85351" lon="-0.46273">
        <ele>1618.036133</ele>
        <time>2014-09-04T15:14:37Z</time>
      </trkpt>
      <trkpt lat="42.85352" lon="-0.4627">
        <ele>1617.55542</ele>
        <time>2014-09-04T15:14:39Z</time>
      </trkpt>
      <trkpt lat="42.8536" lon="-0.46257">
        <ele>1617.074951</ele>
        <time>2014-09-04T15:14:52Z</time>
      </trkpt>
      <trkpt lat="42.85365" lon="-0.46249">
        <ele>1615.633057</ele>
        <time>2014-09-04T15:15:00Z</time>
      </trkpt>
      <trkpt lat="42.85373" lon="-0.46234">
        <ele>1614.190918</ele>
        <time>2014-09-04T15:15:14Z</time>
      </trkpt>
      <trkpt lat="42.85378" lon="-0.46219">
        <ele>1610.826172</ele>
        <time>2014-09-04T15:15:31Z</time>
      </trkpt>
      <trkpt lat="42.85379" lon="-0.46207">
        <ele>1608.422852</ele>
        <time>2014-09-04T15:15:42Z</time>
      </trkpt>
      <trkpt lat="42.85377" lon="-0.46188">
        <ele>1607.46167</ele>
        <time>2014-09-04T15:15:51Z</time>
      </trkpt>
      <trkpt lat="42.85375" lon="-0.46178">
        <ele>1604.097168</ele>
        <time>2014-09-04T15:16:02Z</time>
      </trkpt>
      <trkpt lat="42.85376" lon="-0.46164">
        <ele>1603.135742</ele>
        <time>2014-09-04T15:16:14Z</time>
      </trkpt>
      <trkpt lat="42.85378" lon="-0.4615">
        <ele>1601.693848</ele>
        <time>2014-09-04T15:16:26Z</time>
      </trkpt>
      <trkpt lat="42.85381" lon="-0.46138">
        <ele>1599.290527</ele>
        <time>2014-09-04T15:16:37Z</time>
      </trkpt>
      <trkpt lat="42.8538" lon="-0.46122">
        <ele>1596.887207</ele>
        <time>2014-09-04T15:16:49Z</time>
      </trkpt>
      <trkpt lat="42.85381" lon="-0.46107">
        <ele>1596.406738</ele>
        <time>2014-09-04T15:17:01Z</time>
      </trkpt>
      <trkpt lat="42.85381" lon="-0.46096">
        <ele>1595.445068</ele>
        <time>2014-09-04T15:17:13Z</time>
      </trkpt>
      <trkpt lat="42.85383" lon="-0.46084">
        <ele>1592.561279</ele>
        <time>2014-09-04T15:17:25Z</time>
      </trkpt>
      <trkpt lat="42.85382" lon="-0.46071">
        <ele>1592.080566</ele>
        <time>2014-09-04T15:17:34Z</time>
      </trkpt>
      <trkpt lat="42.85383" lon="-0.46051">
        <ele>1589.677246</ele>
        <time>2014-09-04T15:17:49Z</time>
      </trkpt>
      <trkpt lat="42.85384" lon="-0.46045">
        <ele>1587.273926</ele>
        <time>2014-09-04T15:17:55Z</time>
      </trkpt>
      <trkpt lat="42.85383" lon="-0.46031">
        <ele>1584.87085</ele>
        <time>2014-09-04T15:18:09Z</time>
      </trkpt>
      <trkpt lat="42.85378" lon="-0.46021">
        <ele>1581.506104</ele>
        <time>2014-09-04T15:18:22Z</time>
      </trkpt>
      <trkpt lat="42.85374" lon="-0.4601">
        <ele>1580.064209</ele>
        <time>2014-09-04T15:18:34Z</time>
      </trkpt>
      <trkpt lat="42.85372" lon="-0.45998">
        <ele>1577.660645</ele>
        <time>2014-09-04T15:18:48Z</time>
      </trkpt>
      <trkpt lat="42.85373" lon="-0.45987">
        <ele>1574.296143</ele>
        <time>2014-09-04T15:18:57Z</time>
      </trkpt>
      <trkpt lat="42.85376" lon="-0.45973">
        <ele>1573.334961</ele>
        <time>2014-09-04T15:19:08Z</time>
      </trkpt>
      <trkpt lat="42.85378" lon="-0.45966">
        <ele>1571.412109</ele>
        <time>2014-09-04T15:19:13Z</time>
      </trkpt>
      <trkpt lat="42.85388" lon="-0.45951">
        <ele>1570.450928</ele>
        <time>2014-09-04T15:19:25Z</time>
      </trkpt>
      <trkpt lat="42.85404" lon="-0.45926">
        <ele>1569.970215</ele>
        <time>2014-09-04T15:19:43Z</time>
      </trkpt>
      <trkpt lat="42.85409" lon="-0.45902">
        <ele>1569.489746</ele>
        <time>2014-09-04T15:19:57Z</time>
      </trkpt>
      <trkpt lat="42.85414" lon="-0.45892">
        <ele>1569.489746</ele>
        <time>2014-09-04T15:20:06Z</time>
      </trkpt>
      <trkpt lat="42.85416" lon="-0.45879">
        <ele>1568.52832</ele>
        <time>2014-09-04T15:20:16Z</time>
      </trkpt>
      <trkpt lat="42.85422" lon="-0.45861">
        <ele>1566.605713</ele>
        <time>2014-09-04T15:20:34Z</time>
      </trkpt>
      <trkpt lat="42.85428" lon="-0.45841">
        <ele>1563.240967</ele>
        <time>2014-09-04T15:20:52Z</time>
      </trkpt>
      <trkpt lat="42.8543" lon="-0.45828">
        <ele>1562.760254</ele>
        <time>2014-09-04T15:21:08Z</time>
      </trkpt>
      <trkpt lat="42.85433" lon="-0.45799">
        <ele>1561.318359</ele>
        <time>2014-09-04T15:21:27Z</time>
      </trkpt>
      <trkpt lat="42.85442" lon="-0.45769">
        <ele>1559.876221</ele>
        <time>2014-09-04T15:21:47Z</time>
      </trkpt>
      <trkpt lat="42.85443" lon="-0.45768">
        <ele>1559.395752</ele>
        <time>2014-09-04T15:21:48Z</time>
      </trkpt>
      <trkpt lat="42.85463" lon="-0.45751">
        <ele>1558.915039</ele>
        <time>2014-09-04T15:22:08Z</time>
      </trkpt>
      <trkpt lat="42.85483" lon="-0.45732">
        <ele>1559.395752</ele>
        <time>2014-09-04T15:22:29Z</time>
      </trkpt>
      <trkpt lat="42.85485" lon="-0.45729">
        <ele>1558.915039</ele>
        <time>2014-09-04T15:22:31Z</time>
      </trkpt>
      <trkpt lat="42.85493" lon="-0.45722">
        <ele>1557.953857</ele>
        <time>2014-09-04T15:22:40Z</time>
      </trkpt>
      <trkpt lat="42.85505" lon="-0.45713">
        <ele>1557.953857</ele>
        <time>2014-09-04T15:22:49Z</time>
      </trkpt>
      <trkpt lat="42.85514" lon="-0.45698">
        <ele>1556.031006</ele>
        <time>2014-09-04T15:23:04Z</time>
      </trkpt>
      <trkpt lat="42.85514" lon="-0.45697">
        <ele>1556.511719</ele>
        <time>2014-09-04T15:23:05Z</time>
      </trkpt>
      <trkpt lat="42.85527" lon="-0.45682">
        <ele>1553.62793</ele>
        <time>2014-09-04T15:23:23Z</time>
      </trkpt>
      <trkpt lat="42.85538" lon="-0.45668">
        <ele>1552.666504</ele>
        <time>2014-09-04T15:23:39Z</time>
      </trkpt>
      <trkpt lat="42.85552" lon="-0.45641">
        <ele>1550.743896</ele>
        <time>2014-09-04T15:24:00Z</time>
      </trkpt>
      <trkpt lat="42.85557" lon="-0.45625">
        <ele>1547.37915</ele>
        <time>2014-09-04T15:24:11Z</time>
      </trkpt>
      <trkpt lat="42.8556" lon="-0.45617">
        <ele>1545.937256</ele>
        <time>2014-09-04T15:24:18Z</time>
      </trkpt>
      <trkpt lat="42.85572" lon="-0.45604">
        <ele>1542.572754</ele>
        <time>2014-09-04T15:24:36Z</time>
      </trkpt>
      <trkpt lat="42.85582" lon="-0.45601">
        <ele>1540.649902</ele>
        <time>2014-09-04T15:24:48Z</time>
      </trkpt>
      <trkpt lat="42.85586" lon="-0.456">
        <ele>1539.208008</ele>
        <time>2014-09-04T15:24:52Z</time>
      </trkpt>
      <trkpt lat="42.85602" lon="-0.45602">
        <ele>1536.324219</ele>
        <time>2014-09-04T15:25:11Z</time>
      </trkpt>
      <trkpt lat="42.8562" lon="-0.45604">
        <ele>1533.920898</ele>
        <time>2014-09-04T15:25:32Z</time>
      </trkpt>
      <trkpt lat="42.85642" lon="-0.45597">
        <ele>1532.479004</ele>
        <time>2014-09-04T15:25:55Z</time>
      </trkpt>
      <trkpt lat="42.85648" lon="-0.45598">
        <ele>1529.594727</ele>
        <time>2014-09-04T15:26:06Z</time>
      </trkpt>
      <trkpt lat="42.8565" lon="-0.45599">
        <ele>1528.633545</ele>
        <time>2014-09-04T15:26:08Z</time>
      </trkpt>
      <trkpt lat="42.85655" lon="-0.45597">
        <ele>1526.230225</ele>
        <time>2014-09-04T15:26:21Z</time>
      </trkpt>
      <trkpt lat="42.85662" lon="-0.45595">
        <ele>1523.346436</ele>
        <time>2014-09-04T15:26:35Z</time>
      </trkpt>
      <trkpt lat="42.8567" lon="-0.45589">
        <ele>1521.423584</ele>
        <time>2014-09-04T15:26:48Z</time>
      </trkpt>
      <trkpt lat="42.8568" lon="-0.45578">
        <ele>1518.539795</ele>
        <time>2014-09-04T15:27:05Z</time>
      </trkpt>
      <trkpt lat="42.85687" lon="-0.45576">
        <ele>1516.136475</ele>
        <time>2014-09-04T15:27:17Z</time>
      </trkpt>
      <trkpt lat="42.85697" lon="-0.45574">
        <ele>1514.213623</ele>
        <time>2014-09-04T15:27:29Z</time>
      </trkpt>
      <trkpt lat="42.85712" lon="-0.45567">
        <ele>1510.849121</ele>
        <time>2014-09-04T15:27:47Z</time>
      </trkpt>
      <trkpt lat="42.85715" lon="-0.45555">
        <ele>1507.965332</ele>
        <time>2014-09-04T15:28:06Z</time>
      </trkpt>
      <trkpt lat="42.85717" lon="-0.45553">
        <ele>1507.484619</ele>
        <time>2014-09-04T15:28:09Z</time>
      </trkpt>
      <trkpt lat="42.85726" lon="-0.45544">
        <ele>1507.003906</ele>
        <time>2014-09-04T15:28:19Z</time>
      </trkpt>
      <trkpt lat="42.85729" lon="-0.45543">
        <ele>1506.04248</ele>
        <time>2014-09-04T15:28:22Z</time>
      </trkpt>
      <trkpt lat="42.85736" lon="-0.45542">
        <ele>1505.562012</ele>
        <time>2014-09-04T15:28:27Z</time>
      </trkpt>
      <trkpt lat="42.85756" lon="-0.45537">
        <ele>1505.081299</ele>
        <time>2014-09-04T15:28:40Z</time>
      </trkpt>
      <trkpt lat="42.85765" lon="-0.45525">
        <ele>1505.081299</ele>
        <time>2014-09-04T15:28:53Z</time>
      </trkpt>
      <trkpt lat="42.85782" lon="-0.45504">
        <ele>1505.081299</ele>
        <time>2014-09-04T15:29:09Z</time>
      </trkpt>
      <trkpt lat="42.85795" lon="-0.45477">
        <ele>1503.639404</ele>
        <time>2014-09-04T15:29:29Z</time>
      </trkpt>
      <trkpt lat="42.85797" lon="-0.45475">
        <ele>1504.600586</ele>
        <time>2014-09-04T15:29:31Z</time>
      </trkpt>
      <trkpt lat="42.85805" lon="-0.45449">
        <ele>1504.120117</ele>
        <time>2014-09-04T15:29:49Z</time>
      </trkpt>
      <trkpt lat="42.85815" lon="-0.45439">
        <ele>1503.639404</ele>
        <time>2014-09-04T15:30:01Z</time>
      </trkpt>
      <trkpt lat="42.8583" lon="-0.4543">
        <ele>1502.677979</ele>
        <time>2014-09-04T15:30:15Z</time>
      </trkpt>
      <trkpt lat="42.85851" lon="-0.45432">
        <ele>1502.677979</ele>
        <time>2014-09-04T15:30:32Z</time>
      </trkpt>
      <trkpt lat="42.85863" lon="-0.4544">
        <ele>1501.236084</ele>
        <time>2014-09-04T15:30:43Z</time>
      </trkpt>
      <trkpt lat="42.85875" lon="-0.45443">
        <ele>1499.793945</ele>
        <time>2014-09-04T15:30:53Z</time>
      </trkpt>
      <trkpt lat="42.85889" lon="-0.45446">
        <ele>1499.313232</ele>
        <time>2014-09-04T15:31:06Z</time>
      </trkpt>
      <trkpt lat="42.85891" lon="-0.45446">
        <ele>1498.83252</ele>
        <time>2014-09-04T15:31:08Z</time>
      </trkpt>
      <trkpt lat="42.85893" lon="-0.45445">
        <ele>1499.313232</ele>
        <time>2014-09-04T15:31:11Z</time>
      </trkpt>
      <trkpt lat="42.85911" lon="-0.45443">
        <ele>1496.909912</ele>
        <time>2014-09-04T15:31:24Z</time>
      </trkpt>
      <trkpt lat="42.8593" lon="-0.45442">
        <ele>1494.026123</ele>
        <time>2014-09-04T15:31:40Z</time>
      </trkpt>
      <trkpt lat="42.85934" lon="-0.45443">
        <ele>1492.584229</ele>
        <time>2014-09-04T15:31:45Z</time>
      </trkpt>
      <trkpt lat="42.85951" lon="-0.45444">
        <ele>1490.180908</ele>
        <time>2014-09-04T15:32:03Z</time>
      </trkpt>
      <trkpt lat="42.85968" lon="-0.45443">
        <ele>1487.777588</ele>
        <time>2014-09-04T15:32:22Z</time>
      </trkpt>
      <trkpt lat="42.85977" lon="-0.45439">
        <ele>1484.893799</ele>
        <time>2014-09-04T15:32:32Z</time>
      </trkpt>
      <trkpt lat="42.85994" lon="-0.45435">
        <ele>1482.970703</ele>
        <time>2014-09-04T15:32:47Z</time>
      </trkpt>
      <trkpt lat="42.86025" lon="-0.45437">
        <ele>1480.086914</ele>
        <time>2014-09-04T15:33:13Z</time>
      </trkpt>
      <trkpt lat="42.86047" lon="-0.45433">
        <ele>1476.722412</ele>
        <time>2014-09-04T15:33:34Z</time>
      </trkpt>
      <trkpt lat="42.86061" lon="-0.45423">
        <ele>1473.838379</ele>
        <time>2014-09-04T15:33:50Z</time>
      </trkpt>
      <trkpt lat="42.86073" lon="-0.45418">
        <ele>1470.95459</ele>
        <time>2014-09-04T15:34:06Z</time>
      </trkpt>
      <trkpt lat="42.86085" lon="-0.45421">
        <ele>1468.55127</ele>
        <time>2014-09-04T15:34:22Z</time>
      </trkpt>
      <trkpt lat="42.8609" lon="-0.4542">
        <ele>1467.109131</ele>
        <time>2014-09-04T15:34:29Z</time>
      </trkpt>
      <trkpt lat="42.86106" lon="-0.4542">
        <ele>1463.744385</ele>
        <time>2014-09-04T15:34:43Z</time>
      </trkpt>
      <trkpt lat="42.86121" lon="-0.45415">
        <ele>1461.822021</ele>
        <time>2014-09-04T15:34:57Z</time>
      </trkpt>
      <trkpt lat="42.86122" lon="-0.45414">
        <ele>1461.822021</ele>
        <time>2014-09-04T15:34:58Z</time>
      </trkpt>
      <trkpt lat="42.86138" lon="-0.45404">
        <ele>1458.937988</ele>
        <time>2014-09-04T15:35:15Z</time>
      </trkpt>
      <trkpt lat="42.86153" lon="-0.45382">
        <ele>1457.496094</ele>
        <time>2014-09-04T15:35:33Z</time>
      </trkpt>
      <trkpt lat="42.86164" lon="-0.45366">
        <ele>1454.131592</ele>
        <time>2014-09-04T15:35:50Z</time>
      </trkpt>
      <trkpt lat="42.86175" lon="-0.45346">
        <ele>1451.728027</ele>
        <time>2014-09-04T15:36:06Z</time>
      </trkpt>
      <trkpt lat="42.86178" lon="-0.45344">
        <ele>1451.247314</ele>
        <time>2014-09-04T15:36:09Z</time>
      </trkpt>
      <trkpt lat="42.86189" lon="-0.45328">
        <ele>1451.247314</ele>
        <time>2014-09-04T15:36:21Z</time>
      </trkpt>
      <trkpt lat="42.86193" lon="-0.45323">
        <ele>1450.766602</ele>
        <time>2014-09-04T15:36:25Z</time>
      </trkpt>
      <trkpt lat="42.86202" lon="-0.45307">
        <ele>1451.247314</ele>
        <time>2014-09-04T15:36:39Z</time>
      </trkpt>
      <trkpt lat="42.86221" lon="-0.45282">
        <ele>1451.247314</ele>
        <time>2014-09-04T15:37:01Z</time>
      </trkpt>
      <trkpt lat="42.86237" lon="-0.45261">
        <ele>1450.286133</ele>
        <time>2014-09-04T15:37:20Z</time>
      </trkpt>
      <trkpt lat="42.86248" lon="-0.45244">
        <ele>1450.286133</ele>
        <time>2014-09-04T15:37:35Z</time>
      </trkpt>
      <trkpt lat="42.86272" lon="-0.45219">
        <ele>1449.80542</ele>
        <time>2014-09-04T15:37:57Z</time>
      </trkpt>
      <trkpt lat="42.86287" lon="-0.45206">
        <ele>1449.80542</ele>
        <time>2014-09-04T15:38:13Z</time>
      </trkpt>
      <trkpt lat="42.86309" lon="-0.45204">
        <ele>1449.324707</ele>
        <time>2014-09-04T15:38:31Z</time>
      </trkpt>
      <trkpt lat="42.86334" lon="-0.45196">
        <ele>1448.843994</ele>
        <time>2014-09-04T15:38:51Z</time>
      </trkpt>
      <trkpt lat="42.86353" lon="-0.45184">
        <ele>1449.324707</ele>
        <time>2014-09-04T15:39:08Z</time>
      </trkpt>
      <trkpt lat="42.86372" lon="-0.4517">
        <ele>1448.843994</ele>
        <time>2014-09-04T15:39:27Z</time>
      </trkpt>
      <trkpt lat="42.86377" lon="-0.45167">
        <ele>1449.324707</ele>
        <time>2014-09-04T15:39:32Z</time>
      </trkpt>
      <trkpt lat="42.86387" lon="-0.4516">
        <ele>1449.324707</ele>
        <time>2014-09-04T15:39:43Z</time>
      </trkpt>
      <trkpt lat="42.86396" lon="-0.4515">
        <ele>1448.363281</ele>
        <time>2014-09-04T15:39:55Z</time>
      </trkpt>
      <trkpt lat="42.864" lon="-0.45145">
        <ele>1448.843994</ele>
        <time>2014-09-04T15:39:57Z</time>
      </trkpt>
      <trkpt lat="42.86416" lon="-0.45135">
        <ele>1447.882813</ele>
        <time>2014-09-04T15:40:05Z</time>
      </trkpt>
      <trkpt lat="42.86417" lon="-0.45121">
        <ele>1448.363281</ele>
        <time>2014-09-04T15:40:15Z</time>
      </trkpt>
      <trkpt lat="42.8642" lon="-0.45112">
        <ele>1447.882813</ele>
        <time>2014-09-04T15:40:21Z</time>
      </trkpt>
      <trkpt lat="42.86423" lon="-0.45105">
        <ele>1447.4021</ele>
        <time>2014-09-04T15:40:27Z</time>
      </trkpt>
      <trkpt lat="42.86422" lon="-0.45081">
        <ele>1445.479492</ele>
        <time>2014-09-04T15:40:45Z</time>
      </trkpt>
      <trkpt lat="42.86425" lon="-0.45055">
        <ele>1443.076172</ele>
        <time>2014-09-04T15:41:03Z</time>
      </trkpt>
      <trkpt lat="42.86431" lon="-0.45035">
        <ele>1441.634277</ele>
        <time>2014-09-04T15:41:18Z</time>
      </trkpt>
      <trkpt lat="42.86431" lon="-0.45006">
        <ele>1439.71167</ele>
        <time>2014-09-04T15:41:38Z</time>
      </trkpt>
      <trkpt lat="42.86431" lon="-0.45005">
        <ele>1439.230957</ele>
        <time>2014-09-04T15:41:39Z</time>
      </trkpt>
      <trkpt lat="42.86432" lon="-0.45002">
        <ele>1439.230957</ele>
        <time>2014-09-04T15:41:41Z</time>
      </trkpt>
      <trkpt lat="42.86445" lon="-0.44984">
        <ele>1436.827637</ele>
        <time>2014-09-04T15:41:59Z</time>
      </trkpt>
      <trkpt lat="42.86447" lon="-0.44984">
        <ele>1436.827637</ele>
        <time>2014-09-04T15:42:01Z</time>
      </trkpt>
      <trkpt lat="42.86468" lon="-0.4499">
        <ele>1435.385498</ele>
        <time>2014-09-04T15:42:18Z</time>
      </trkpt>
      <trkpt lat="42.86471" lon="-0.44997">
        <ele>1435.866211</ele>
        <time>2014-09-04T15:42:23Z</time>
      </trkpt>
      <trkpt lat="42.86472" lon="-0.45004">
        <ele>1436.827637</ele>
        <time>2014-09-04T15:42:27Z</time>
      </trkpt>
      <trkpt lat="42.86478" lon="-0.45016">
        <ele>1435.866211</ele>
        <time>2014-09-04T15:42:36Z</time>
      </trkpt>
      <trkpt lat="42.86482" lon="-0.45017">
        <ele>1435.866211</ele>
        <time>2014-09-04T15:42:39Z</time>
      </trkpt>
      <trkpt lat="42.86485" lon="-0.4502">
        <ele>1435.385498</ele>
        <time>2014-09-04T15:42:42Z</time>
      </trkpt>
      <trkpt lat="42.86502" lon="-0.45027">
        <ele>1435.866211</ele>
        <time>2014-09-04T15:42:56Z</time>
      </trkpt>
      <trkpt lat="42.86516" lon="-0.45035">
        <ele>1435.866211</ele>
        <time>2014-09-04T15:43:10Z</time>
      </trkpt>
      <trkpt lat="42.86534" lon="-0.45048">
        <ele>1436.347168</ele>
        <time>2014-09-04T15:43:29Z</time>
      </trkpt>
      <trkpt lat="42.86538" lon="-0.45047">
        <ele>1436.347168</ele>
        <time>2014-09-04T15:43:33Z</time>
      </trkpt>
      <trkpt lat="42.86544" lon="-0.45045">
        <ele>1436.827637</ele>
        <time>2014-09-04T15:43:39Z</time>
      </trkpt>
      <trkpt lat="42.86563" lon="-0.45039">
        <ele>1437.30835</ele>
        <time>2014-09-04T15:43:57Z</time>
      </trkpt>
      <trkpt lat="42.86582" lon="-0.45023">
        <ele>1438.269775</ele>
        <time>2014-09-04T15:44:17Z</time>
      </trkpt>
      <trkpt lat="42.86601" lon="-0.45005">
        <ele>1438.269775</ele>
        <time>2014-09-04T15:44:37Z</time>
      </trkpt>
      <trkpt lat="42.86627" lon="-0.44996">
        <ele>1438.750488</ele>
        <time>2014-09-04T15:45:00Z</time>
      </trkpt>
      <trkpt lat="42.86646" lon="-0.45">
        <ele>1438.269775</ele>
        <time>2014-09-04T15:45:17Z</time>
      </trkpt>
      <trkpt lat="42.86656" lon="-0.45">
        <ele>1438.269775</ele>
        <time>2014-09-04T15:45:25Z</time>
      </trkpt>
      <trkpt lat="42.86673" lon="-0.4501">
        <ele>1437.789063</ele>
        <time>2014-09-04T15:45:43Z</time>
      </trkpt>
      <trkpt lat="42.86693" lon="-0.45016">
        <ele>1435.385498</ele>
        <time>2014-09-04T15:46:01Z</time>
      </trkpt>
      <trkpt lat="42.86709" lon="-0.45024">
        <ele>1435.385498</ele>
        <time>2014-09-04T15:46:16Z</time>
      </trkpt>
      <trkpt lat="42.86724" lon="-0.4503">
        <ele>1435.385498</ele>
        <time>2014-09-04T15:46:30Z</time>
      </trkpt>
      <trkpt lat="42.86741" lon="-0.45029">
        <ele>1433.462891</ele>
        <time>2014-09-04T15:46:46Z</time>
      </trkpt>
      <trkpt lat="42.86762" lon="-0.45017">
        <ele>1432.501709</ele>
        <time>2014-09-04T15:47:06Z</time>
      </trkpt>
      <trkpt lat="42.86782" lon="-0.44997">
        <ele>1433.943604</ele>
        <time>2014-09-04T15:47:28Z</time>
      </trkpt>
      <trkpt lat="42.86801" lon="-0.44975">
        <ele>1433.462891</ele>
        <time>2014-09-04T15:47:50Z</time>
      </trkpt>
      <trkpt lat="42.86815" lon="-0.4495">
        <ele>1432.982178</ele>
        <time>2014-09-04T15:48:13Z</time>
      </trkpt>
      <trkpt lat="42.86823" lon="-0.4493">
        <ele>1430.579102</ele>
        <time>2014-09-04T15:48:32Z</time>
      </trkpt>
      <trkpt lat="42.86827" lon="-0.44914">
        <ele>1430.579102</ele>
        <time>2014-09-04T15:48:44Z</time>
      </trkpt>
      <trkpt lat="42.86833" lon="-0.44891">
        <ele>1430.579102</ele>
        <time>2014-09-04T15:49:01Z</time>
      </trkpt>
      <trkpt lat="42.86844" lon="-0.44865">
        <ele>1430.579102</ele>
        <time>2014-09-04T15:49:20Z</time>
      </trkpt>
      <trkpt lat="42.86858" lon="-0.44837">
        <ele>1430.579102</ele>
        <time>2014-09-04T15:49:42Z</time>
      </trkpt>
      <trkpt lat="42.8686" lon="-0.44833">
        <ele>1431.059814</ele>
        <time>2014-09-04T15:49:45Z</time>
      </trkpt>
      <trkpt lat="42.8686" lon="-0.4483">
        <ele>1431.059814</ele>
        <time>2014-09-04T15:49:47Z</time>
      </trkpt>
      <trkpt lat="42.86858" lon="-0.44825">
        <ele>1431.059814</ele>
        <time>2014-09-04T15:49:51Z</time>
      </trkpt>
      <trkpt lat="42.86842" lon="-0.44802">
        <ele>1432.020996</ele>
        <time>2014-09-04T15:50:16Z</time>
      </trkpt>
      <trkpt lat="42.8684" lon="-0.448">
        <ele>1431.059814</ele>
        <time>2014-09-04T15:50:34Z</time>
      </trkpt>
      <trkpt lat="42.86839" lon="-0.44803">
        <ele>1431.540283</ele>
        <time>2014-09-04T15:51:02Z</time>
      </trkpt>
      <trkpt lat="42.86839" lon="-0.44807">
        <ele>1430.579102</ele>
        <time>2014-09-04T15:51:14Z</time>
      </trkpt>
    </trkseg>
  </trk>
</gpx>